[[{"header":{"parameterUnit":"m.s-1","parameterCategory":1,"la1":30.6,"la2":28.766,"lo1":-90.7593,"lo2":-88.6598,"dy":0.0162,"dx":0.0183,"nx":116,"ny":114,"refTime":"2023-09-07T06:00:00:Z","depth":0,"parameterNumber":2,"parameterNumberName":"U-component_of_WINDS"},"data":[0.0,0.0,0.0,0.0,0.0,0.0,0.0,0.0,0.0,0.0,0.0,0.0,0.0,0.0,0.0,0.0,0.0,0.0,0.0,0.0,0.0,0.0,0.0,0.0,0.0,0.0,0.0,0.0,0.0,0.0,0.0,0.0,0.0,0.0,0.0,0.0,0.0,0.0,0.0,0.0,0.0,0.0,0.0,0.0,0.0,0.0,0.0,0.0,0.0,0.0,0.0,0.0,0.0,0.0,0.0,0.0,0.0,0.0,0.0,0.0,0.0,0.0,0.0,0.0,0.0,0.0,0.0,0.0,0.0,0.0,0.0,0.0,0.0,0.0,0.0,0.0,0.0,0.0,0.0,0.0,0.0,0.0,0.0,0.0,0.0,0.0,0.0,0.0,0.0,0.0,0.0,0.0,0.0,0.0,0.0,0.0,0.0,0.0,0.0,0.0,0.0,0.0,0.0,0.0,0.0,0.0,0.0,0.0,0.0,0.0,0.0,0.0,0.0,0.0,0.0,0.0,0.0,0.0,0.0,0.0,0.0,0.0,0.0,0.0,0.0,0.0,0.0,0.0,0.0,0.0,0.0,0.0,0.0,0.0,0.0,0.0,0.0,0.0,0.0,0.0,0.0,0.0,0.0,0.0,0.0,0.0,0.0,0.0,0.0,0.0,0.0,0.0,0.0,0.0,0.0,0.0,0.0,0.0,0.0,0.0,0.0,0.0,0.0,0.0,0.0,0.0,0.0,0.0,0.0,0.0,0.0,0.0,0.0,0.0,0.0,0.0,0.0,0.0,0.0,0.0,0.0,0.0,0.0,0.0,0.0,0.0,0.0,0.0,0.0,0.0,0.0,0.0,0.0,0.0,0.0,0.0,0.0,0.0,0.0,0.0,0.0,0.0,0.0,0.0,0.0,0.0,0.0,0.0,0.0,0.0,0.0,0.0,0.0,0.0,0.0,0.0,0.0,0.0,0.0,0.0,0.0,0.0,0.0,0.0,0.0,0.0,0.0,0.0,0.0,0.0,0.0,0.0,0.0,0.0,0.0,0.0,0.0,0.0,0.0,0.0,0.0,0.0,0.0,0.0,0.0,0.0,0.0,0.0,0.0,0.0,0.0,0.0,0.0,0.0,0.0,0.0,0.0,0.0,0.0,0.0,0.0,0.0,0.0,0.0,0.0,0.0,0.0,0.0,0.0,0.0,0.0,0.0,0.0,0.0,0.0,0.0,0.0,0.0,0.0,0.0,0.0,0.0,0.0,0.0,0.0,0.0,0.0,0.0,0.0,0.0,0.0,0.0,0.0,0.0,0.0,0.0,0.0,0.0,0.0,0.0,0.0,0.0,0.0,0.0,0.0,0.0,0.0,0.0,0.0,0.0,0.0,0.0,0.0,0.0,0.0,0.0,0.0,0.0,0.0,0.0,0.0,0.0,0.0,0.0,0.0,0.0,0.0,0.0,0.0,0.0,0.0,0.0,0.0,0.0,0.0,0.0,0.0,0.0,0.0,0.0,0.0,0.0,0.0,0.0,0.0,0.0,0.0,0.0,0.0,0.0,0.0,0.0,0.0,0.0,0.0,0.0,0.0,0.0,0.0,0.0,0.0,0.0,0.0,0.0,0.0,0.0,0.0,0.0,0.0,0.0,0.0,0.0,0.0,0.0,0.0,0.0,0.0,0.0,0.0,0.0,0.0,0.0,0.0,0.0,0.0,0.0,0.0,0.0,0.0,0.0,0.0,0.0,0.0,0.0,0.0,0.0,0.0,0.0,0.0,0.0,0.0,0.0,0.0,0.0,0.0,0.0,0.0,0.0,0.0,0.0,0.0,0.0,0.0,0.0,0.0,0.0,0.0,0.0,0.0,0.0,0.0,0.0,0.0,0.0,0.0,0.0,0.0,0.0,0.0,0.0,0.0,0.0,0.0,0.0,0.0,0.0,0.0,0.0,0.0,0.0,0.0,0.0,0.0,0.0,0.0,0.0,0.0,0.0,0.0,0.0,0.0,0.0,0.0,0.0,0.0,0.0,0.0,0.0,0.0,0.0,0.0,0.0,0.0,0.0,0.0,0.0,0.0,0.0,0.0,0.0,0.0,0.0,0.0,0.0,0.0,0.0,0.0,0.0,0.0,0.0,0.0,0.0,0.0,0.0,0.0,0.0,0.0,0.0,0.0,0.0,0.0,0.0,0.0,0.0,0.0,0.0,0.0,0.0,0.0,0.0,0.0,0.0,0.0,0.0,0.0,0.0,0.0,0.0,0.0,0.0,0.0,0.0,0.0,0.0,0.0,0.0,0.0,0.0,0.0,0.0,0.0,0.0,0.0,0.0,0.0,0.0,0.0,0.0,0.0,0.0,0.0,0.0,0.0,0.0,0.0,0.0,0.0,0.0,0.0,0.0,0.0,0.0,0.0,0.0,0.0,0.0,0.0,0.0,0.0,0.0,0.0,0.0,0.0,0.0,0.0,0.0,0.0,0.0,0.0,0.0,0.0,0.0,0.0,0.0,0.0,0.0,0.0,0.0,0.0,0.0,0.0,0.0,0.0,0.0,0.0,0.0,0.0,0.0,0.0,0.0,0.0,0.0,0.0,0.0,0.0,0.0,0.0,0.0,0.0,0.0,0.0,0.0,0.0,0.0,0.0,0.0,0.0,0.0,0.0,0.0,0.0,0.0,0.0,0.0,0.0,0.0,0.0,0.0,0.0,0.0,0.0,0.0,0.0,0.0,0.0,0.0,0.0,0.0,0.0,0.0,0.0,0.0,0.0,0.0,0.0,0.0,0.0,0.0,0.0,0.0,0.0,0.0,0.0,0.0,0.0,0.0,0.0,0.0,0.0,0.0,0.0,0.0,0.0,0.0,0.0,0.0,0.0,0.0,0.0,0.0,0.0,0.0,0.0,0.0,0.0,0.0,0.0,0.0,0.0,0.0,0.0,0.0,0.0,0.0,0.0,0.0,0.0,0.0,0.0,0.0,0.0,0.0,0.0,0.0,0.0,0.0,0.0,0.0,0.0,0.0,0.0,0.0,0.0,0.0,0.0,0.0,0.0,0.0,0.0,0.0,0.0,0.0,0.0,0.0,0.0,0.0,0.0,0.0,0.0,0.0,0.0,0.0,0.0,0.0,0.0,0.0,0.0,0.0,0.0,0.0,0.0,0.0,0.0,0.0,0.0,0.0,0.0,0.0,0.0,0.0,0.0,0.0,0.0,0.0,0.0,0.0,0.0,0.0,0.0,0.0,0.0,0.0,0.0,0.0,0.0,0.0,0.0,0.0,0.0,0.0,0.0,0.0,0.0,0.0,0.0,0.0,0.0,0.0,0.0,0.0,0.0,0.0,0.0,0.0,0.0,0.0,0.0,0.0,0.0,0.0,0.0,0.0,0.0,0.0,0.0,0.0,0.0,0.0,0.0,0.0,0.0,0.0,0.0,0.0,0.0,0.0,0.0,0.0,0.0,0.0,0.0,0.0,0.0,0.0,0.0,0.0,0.0,0.0,0.0,0.0,0.0,0.0,0.0,0.0,0.0,0.0,0.0,0.0,0.0,0.0,0.0,0.0,0.0,0.0,0.0,0.0,0.0,0.0,0.0,0.0,0.0,0.0,0.0,0.0,0.0,0.0,0.0,0.0,0.0,0.0,0.0,0.0,0.0,0.0,0.0,0.0,0.0,0.0,0.0,0.0,0.0,0.0,0.0,0.0,0.0,0.0,0.0,0.0,0.0,0.0,0.0,0.0,0.0,0.0,0.0,0.0,0.0,0.0,0.0,0.0,0.0,0.0,0.0,0.0,0.0,0.0,0.0,0.0,0.0,0.0,0.0,0.0,0.0,0.0,0.0,0.0,0.0,0.0,0.0,0.0,0.0,0.0,0.0,0.0,0.0,0.0,0.0,0.0,0.0,0.0,0.0,0.0,0.0,0.0,0.0,0.0,0.0,0.0,0.0,0.0,0.0,0.0,0.0,0.0,0.0,0.0,0.0,0.0,0.0,0.0,0.0,0.0,0.0,0.0,0.0,0.0,0.0,0.0,0.0,0.0,0.0,0.0,0.0,0.0,0.0,0.0,0.0,0.0,0.0,0.0,0.0,0.0,0.0,0.0,0.0,0.0,0.0,0.0,0.0,0.0,0.0,0.0,0.0,0.0,0.0,0.0,0.0,0.0,0.0,0.0,0.0,0.0,0.0,0.0,0.0,0.0,0.0,0.0,0.0,0.0,0.0,0.0,0.0,0.0,0.0,0.0,0.0,0.0,0.0,0.0,0.0,0.0,0.0,0.0,0.0,0.0,0.0,0.0,0.0,0.0,0.0,0.0,0.0,0.0,0.0,0.0,0.0,0.0,0.0,0.0,0.0,0.0,0.0,0.0,0.0,0.0,0.0,0.0,0.0,0.0,0.0,0.0,0.0,0.0,0.0,0.0,0.0,0.0,0.0,0.0,0.0,0.0,0.0,0.0,0.0,0.0,0.0,0.0,0.0,0.0,0.0,0.0,0.0,0.0,0.0,0.0,0.0,0.0,0.0,0.0,0.0,0.0,0.0,0.0,0.0,0.0,0.0,0.0,0.0,0.0,0.0,0.0,0.0,0.0,0.0,0.0,0.0,0.0,0.0,0.0,0.0,0.0,0.0,0.0,0.0,0.0,0.0,0.0,0.0,0.0,0.0,0.0,0.0,0.0,0.0,0.0,0.0,0.0,0.0,0.0,0.0,0.0,0.0,0.0,0.0,0.0,0.0,0.0,0.0,0.0,0.0,0.0,0.0,0.0,0.0,0.0,0.0,0.0,0.0,0.0,0.0,0.0,0.0,0.0,0.0,0.0,0.0,0.0,0.0,0.0,0.0,0.0,0.0,0.0,0.0,0.0,0.0,0.0,0.0,0.0,0.0,0.0,0.0,0.0,0.0,0.0,0.0,0.0,0.0,0.0,0.0,0.0,0.0,0.0,0.0,0.0,0.0,0.0,0.0,0.0,0.0,0.0,0.0,0.0,0.0,0.0,0.0,0.0,0.0,0.0,0.0,0.0,0.0,0.0,0.0,0.0,0.0,0.0,0.0,0.0,0.0,0.0,0.0,0.0,0.0,0.0,0.0,0.0,0.0,0.0,0.0,0.0,0.0,0.0,0.0,0.0,0.0,0.0,0.0,0.0,0.0,0.0,0.0,0.0,0.0,0.0,0.0,0.0,0.0,0.0,0.0,0.0,0.0,0.0,0.0,0.0,0.0,0.0,0.0,0.0,0.0,0.0,0.0,0.0,0.0,0.0,0.0,0.0,0.0,0.0,0.0,0.0,0.0,0.0,0.0,0.0,0.0,0.0,0.0,0.0,0.0,0.0,0.0,0.0,0.0,0.0,0.0,0.0,0.0,0.0,0.0,0.0,0.0,0.0,0.0,0.0,0.0,0.0,0.0,0.0,0.0,0.0,0.0,0.0,0.0,0.0,0.0,0.0,0.0,0.0,0.0,0.0,0.0,0.0,0.0,0.0,0.0,0.0,0.0,0.0,0.0,0.0,0.0,0.0,0.0,0.0,0.0,0.0,0.0,0.0,0.0,0.0,0.0,0.0,0.0,0.0,0.0,0.0,0.0,0.0,0.0,0.0,0.0,0.0,0.0,0.0,0.0,0.0,0.0,0.0,0.0,0.0,0.0,0.0,0.0,0.0,0.0,0.0,0.0,0.0,0.0,0.0,0.0,0.0,0.0,0.0,0.0,0.0,0.0,0.0,0.0,0.0,0.0,0.0,0.0,0.0,0.0,0.0,0.0,0.0,0.0,0.0,0.0,0.0,0.0,0.0,0.0,0.0,0.0,0.0,0.0,0.0,0.0,0.0,0.0,0.0,0.0,0.0,0.0,0.0,0.0,0.0,0.0,0.0,0.0,0.0,0.0,0.0,0.0,0.0,0.0,0.0,0.0,0.0,0.0,0.0,0.0,0.0,0.0,0.0,0.0,0.0,0.0,0.0,0.0,0.0,0.0,0.0,0.0,0.0,0.0,0.0,0.0,0.0,0.0,0.0,0.0,0.0,0.0,0.0,0.0,0.0,0.0,0.0,0.0,0.0,0.0,0.0,0.0,0.0,0.0,0.0,0.0,0.0,0.0,0.0,0.0,0.0,0.0,0.0,2.2439,2.2975,0.0,0.0,0.0,0.0,0.0,0.0,0.0,0.0,0.0,0.0,0.0,0.0,0.0,0.0,0.0,0.0,0.0,0.0,0.0,0.0,0.0,0.0,0.0,0.0,0.0,0.0,0.0,0.0,0.0,0.0,0.0,0.0,0.0,0.0,0.0,0.0,0.0,0.0,1.969,1.969,1.969,1.969,1.969,1.969,0.0,0.0,0.0,0.0,0.0,0.0,0.0,0.0,0.0,0.0,0.0,0.0,0.0,0.0,0.0,0.0,0.0,0.0,0.0,0.0,0.0,0.0,0.0,0.0,0.0,0.0,0.0,0.0,0.0,0.0,0.0,0.0,0.0,0.0,0.0,0.0,0.0,0.0,0.0,0.0,0.0,0.0,0.0,0.0,0.0,0.0,0.0,0.0,0.0,0.0,0.0,0.0,0.0,0.0,0.0,0.0,0.0,0.0,0.0,0.0,0.0,0.0,0.0,0.0,0.0,0.0,0.0,0.0,0.0,0.0,2.2218,2.239,0.0,0.0,0.0,0.0,0.0,0.0,0.0,0.0,0.0,0.0,0.0,0.0,0.0,0.0,0.0,0.0,0.0,0.0,0.0,0.0,0.0,0.0,0.0,0.0,1.8302,1.838,1.838,0.0,0.0,0.0,0.0,0.0,0.0,0.0,0.0,1.969,1.969,1.969,1.969,1.969,1.969,1.969,1.969,1.969,1.969,0.0,0.0,0.0,0.0,0.0,0.0,0.0,0.0,0.0,0.0,0.0,0.0,0.0,0.0,0.0,0.0,0.0,0.0,0.0,0.0,0.0,0.0,0.0,0.0,0.0,0.0,0.0,0.0,0.0,0.0,0.0,0.0,0.0,0.0,0.0,0.0,0.0,0.0,0.0,0.0,0.0,0.0,0.0,0.0,0.0,0.0,0.0,0.0,0.0,0.0,0.0,0.0,0.0,0.0,0.0,0.0,0.0,0.0,0.0,0.0,0.0,0.0,0.0,2.3163,2.3014,2.3005,2.279,2.2705,2.2784,2.2432,2.2056,2.164,2.1578,0.0,0.0,0.0,0.0,0.0,0.0,0.0,0.0,0.0,0.0,0.0,0.0,0.0,0.0,0.0,0.0,0.0,0.0,0.0,0.0,0.0,1.9132,1.8968,1.9442,1.9479,1.9479,0.0,0.0,0.0,0.0,0.0,0.0,1.969,1.969,1.969,1.969,1.969,1.969,1.969,1.969,1.969,1.969,1.969,1.969,1.969,0.0,0.0,0.0,0.0,0.0,0.0,0.0,0.0,0.0,0.0,0.0,0.0,0.0,0.0,0.0,0.0,0.0,0.0,0.0,0.0,0.0,0.0,0.0,0.0,0.0,0.0,0.0,0.0,0.0,0.0,0.0,0.0,0.0,0.0,0.0,0.0,0.0,0.0,0.0,0.0,0.0,2.1841,2.1087,0.0,0.0,0.0,0.0,0.0,0.0,0.0,0.0,0.0,0.0,0.0,0.0,0.0,2.3346,2.3617,2.4372,2.4626,2.4322,2.4292,2.4262,2.4262,2.4218,2.3957,2.3539,2.3156,0.0,2.1903,2.1513,0.0,0.0,0.0,0.0,0.0,0.0,0.0,0.0,0.0,0.0,0.0,0.0,0.0,0.0,0.0,0.0,0.0,0.0,0.0,0.0,0.0,1.9479,1.9442,1.969,1.969,1.969,1.969,0.0,0.0,0.0,0.0,1.969,1.969,1.969,1.969,1.969,1.969,1.969,1.969,1.9406,1.9244,1.9244,1.893,1.8968,1.9244,1.9006,0.0,0.0,0.0,0.0,0.0,0.0,0.0,0.0,0.0,0.0,0.0,0.0,0.0,0.0,0.0,0.0,0.0,0.0,0.0,0.0,0.0,0.0,0.0,0.0,0.0,0.0,0.0,0.0,0.0,0.0,0.0,0.0,0.0,0.0,0.0,0.0,0.0,0.0,0.0,2.2977,2.2555,2.1538,2.1599,2.1638,0.0,0.0,0.0,0.0,0.0,0.0,0.0,0.0,0.0,2.304,2.3412,2.4028,2.4851,2.528,2.5529,2.5727,2.5727,2.5727,2.5727,2.5727,2.5513,2.5088,2.4916,2.4335,2.3369,2.2293,2.1999,2.2149,0.0,0.0,0.0,0.0,2.1741,2.1706,0.0,0.0,0.0,0.0,0.0,0.0,0.0,0.0,0.0,0.0,0.0,0.0,1.9929,1.9944,1.9944,1.9944,1.9944,1.9869,1.969,1.969,0.0,0.0,0.0,1.969,1.969,1.969,1.969,1.969,1.969,1.9639,1.9479,1.9095,1.8817,1.8688,1.8302,1.8341,1.8688,1.8535,1.8263,1.7907,0.0,0.0,0.0,0.0,0.0,0.0,0.0,0.0,0.0,0.0,0.0,0.0,0.0,0.0,0.0,0.0,0.0,0.0,0.0,0.0,0.0,0.0,0.0,0.0,0.0,0.0,0.0,0.0,0.0,0.0,0.0,0.0,0.0,0.0,0.0,0.0,0.0,2.3071,2.2951,2.1829,2.213,2.2202,0.0,0.0,0.0,0.0,0.0,0.0,2.26,2.3049,2.3651,2.4326,2.4477,2.5163,2.6437,2.6569,2.6825,2.731,2.7282,2.7283,2.7283,2.7283,2.7002,2.6486,2.6486,2.5878,2.4747,2.3447,2.2867,2.2891,2.3094,2.3255,2.3358,2.2825,2.2646,2.2576,0.0,0.0,0.0,0.0,0.0,0.0,0.0,0.0,0.0,0.0,0.0,1.9929,2.0587,2.0662,2.0662,2.0662,2.0662,2.0378,1.9735,1.969,1.969,1.969,1.969,1.969,1.969,1.969,1.969,1.969,1.969,1.9442,1.893,1.8893,1.8612,1.8145,1.8106,1.8106,1.8106,1.7585,1.7353,1.7353,1.7353,0.0,0.0,0.0,0.0,0.0,0.0,0.0,0.0,0.0,0.0,0.0,0.0,0.0,0.0,0.0,0.0,0.0,0.0,0.0,0.0,0.0,0.0,0.0,0.0,0.0,0.0,0.0,0.0,0.0,0.0,0.0,0.0,0.0,0.0,0.0,0.0,0.0,0.0,2.1784,2.2289,0.0,0.0,0.0,0.0,2.3745,2.4395,2.4595,2.4184,2.423,2.4609,2.5498,2.6015,2.6901,2.8279,2.8651,2.8854,2.8894,2.8883,2.8892,2.8892,2.8892,2.8301,2.723,2.723,2.6608,2.5495,2.4777,2.4477,2.4403,2.3788,2.3938,2.4447,2.3788,2.3533,2.3458,0.0,0.0,0.0,0.0,0.0,0.0,0.0,0.0,0.0,1.969,2.0079,2.0438,2.0692,2.0722,2.0722,2.0722,2.0303,1.9944,1.9741,1.969,1.9884,2.0318,2.0348,2.0543,2.0976,2.0557,2.0348,2.0348,2.0767,2.0676,2.007,2.0157,1.9859,1.9252,1.8884,1.8508,1.8143,1.7558,1.7505,1.7868,1.7511,1.7574,0.0,0.0,0.0,0.0,0.0,0.0,0.0,0.0,0.0,0.0,0.0,0.0,0.0,0.0,0.0,0.0,0.0,0.0,0.0,0.0,0.0,0.0,0.0,0.0,0.0,0.0,0.0,0.0,0.0,0.0,0.0,0.0,0.0,0.0,0.0,0.0,0.0,2.4193,2.4044,0.0,2.3794,2.3625,2.3557,2.3723,2.4719,2.5271,2.5153,2.5969,2.6766,2.7515,2.7715,2.8423,2.9763,3.0338,3.0807,3.1194,3.1633,3.1833,3.1833,3.1833,3.1416,3.0626,3.0209,2.9564,2.8774,2.8092,2.6811,2.527,2.5465,2.542,2.5285,2.5465,2.5255,2.4866,0.0,0.0,0.0,0.0,0.0,0.0,0.0,0.0,1.969,1.969,2.0094,2.0453,2.0692,2.0722,2.0722,2.0722,2.0288,1.9929,1.969,1.969,1.9989,2.0677,2.0932,2.1261,2.168,2.1261,2.1051,2.1051,2.1485,2.1391,2.0764,2.0851,2.0553,1.9921,1.9529,1.9243,1.9019,1.8421,1.815,1.8179,1.7802,1.799,1.8417,0.0,0.0,0.0,0.0,0.0,0.0,0.0,0.0,0.0,0.0,0.0,0.0,0.0,0.0,0.0,0.0,0.0,0.0,0.0,0.0,0.0,0.0,0.0,0.0,0.0,0.0,0.0,0.0,0.0,0.0,0.0,0.0,0.0,0.0,2.5345,2.5779,2.6213,2.6093,2.5869,2.5644,2.542,2.5285,2.5285,2.6318,2.7036,2.7245,2.8098,2.8981,2.9894,2.9924,3.0322,3.1167,3.156,3.1865,3.2079,3.2762,3.3074,3.3074,3.3305,3.3074,3.2451,3.1819,3.1146,3.0576,2.9872,2.8547,2.6991,2.7425,2.7335,2.7006,2.744,2.732,2.6916,0.0,0.0,0.0,0.0,0.0,0.0,0.0,1.969,1.969,1.969,1.972,2.0004,2.0677,2.0737,2.0737,2.0737,2.0707,2.0408,1.9765,1.969,2.0004,2.0737,2.1395,2.1784,2.1814,2.1799,2.1784,2.1784,2.1799,2.1543,2.1007,2.096,2.0661,2.0091,1.9965,2.0227,2.0731,2.01,1.9258,1.8329,1.8292,1.8606,1.8995,0.0,0.0,0.0,0.0,0.0,0.0,0.0,0.0,0.0,0.0,0.0,0.0,0.0,0.0,0.0,0.0,0.0,0.0,0.0,0.0,0.0,0.0,0.0,0.0,0.0,0.0,0.0,0.0,0.0,0.0,0.0,0.0,0.0,2.5493,2.6752,2.7575,2.7655,2.8233,2.8345,2.7724,2.8278,2.8697,2.8644,2.9295,2.9939,3.0537,3.0582,3.1195,3.2497,3.2542,3.2542,3.2542,3.2486,3.2098,3.1442,3.2176,3.2508,3.2475,3.3165,3.3165,3.2583,3.1869,3.1241,3.0654,2.9932,2.9639,2.9639,2.9624,2.9594,2.9579,2.9609,2.9594,2.949,0.0,0.0,0.0,0.0,0.0,0.0,0.0,1.969,1.969,1.969,2.0543,2.1216,2.1395,2.1425,2.1425,2.1425,2.0528,2.0094,2.0408,1.9959,2.0423,2.2069,2.2742,2.3535,2.4507,2.4059,2.3819,2.3819,2.4298,2.4194,2.36,2.4055,2.3674,2.2606,2.2552,2.2285,2.182,2.1255,2.1091,2.1117,2.0313,2.0313,2.0752,0.0,0.0,0.0,0.0,0.0,0.0,0.0,0.0,0.0,0.0,0.0,0.0,0.0,0.0,0.0,0.0,0.0,0.0,0.0,0.0,0.0,0.0,0.0,0.0,0.0,0.0,0.0,0.0,0.0,0.0,0.0,2.5161,2.5901,2.5608,2.617,2.7076,2.8196,2.8792,2.8985,2.8726,2.9906,3.0419,2.974,3.0954,3.1794,3.1943,3.2407,3.2841,3.3215,3.323,3.323,3.323,3.3673,3.3615,3.2934,3.4133,3.4458,3.3995,3.4681,3.4872,3.4683,3.3455,3.2874,3.2624,3.1434,3.1001,3.0941,3.0447,2.9983,2.9639,3.0088,2.9968,2.9549,0.0,0.0,0.0,0.0,0.0,0.0,0.0,1.969,1.969,1.969,2.0617,2.1171,2.0887,2.1111,2.1171,2.0887,2.0408,2.0168,2.0273,2.0692,2.1575,2.2996,2.3954,2.4807,2.56,2.5241,2.5046,2.5046,2.542,2.542,2.5015,2.5701,2.5387,2.4295,2.4545,2.4187,2.3339,2.3025,2.3075,2.3301,2.2661,2.2171,2.1782,2.1217,2.1016,2.0928,2.0288,1.9949,1.9748,1.9359,0.0,0.0,0.0,0.0,0.0,0.0,0.0,0.0,0.0,0.0,0.0,0.0,0.0,0.0,0.0,0.0,0.0,0.0,0.0,0.0,0.0,0.0,0.0,0.0,2.5546,2.6315,2.573,2.6852,2.805,2.9001,2.9678,3.0151,3.0362,3.0845,3.1061,3.0922,3.1392,3.199,3.2735,3.3103,3.3646,3.4337,3.4337,3.4203,3.3903,3.4288,3.4164,3.3508,3.4613,3.4935,3.4597,3.5299,3.5616,3.5514,3.4138,3.3491,3.3388,3.2053,3.1482,0.0,0.0,0.0,0.0,0.0,3.112,3.0806,0.0,0.0,0.0,0.0,0.0,0.0,0.0,1.969,1.969,1.969,2.0348,2.0557,1.9884,2.0408,2.0543,1.9854,2.0363,2.0513,2.0049,2.1889,2.3251,2.3804,2.5121,2.5839,2.5839,2.5839,2.5839,2.5839,2.5839,2.5869,2.5974,2.6469,2.6304,2.5605,2.6015,2.5788,2.5126,2.4933,2.4983,2.5096,2.5034,2.4042,2.2535,2.2046,2.1763,2.1643,2.1581,2.0852,1.9961,2.0407,0.0,0.0,0.0,0.0,0.0,0.0,0.0,0.0,0.0,0.0,0.0,0.0,0.0,0.0,0.0,0.0,0.0,0.0,0.0,0.0,0.0,0.0,0.0,0.0,2.5508,2.64,2.6131,2.8092,2.961,2.9675,3.0502,3.124,3.186,3.1232,3.114,3.1952,3.1274,3.1443,3.2925,3.3168,0.0,0.0,0.0,3.5205,3.4607,3.4592,3.4262,3.3604,3.4271,3.4596,3.4503,3.5247,3.5577,3.553,3.4125,3.3501,3.3398,3.2025,3.1511,3.1586,3.1586,3.1586,3.1661,3.2302,3.2557,3.2602,0.0,0.0,0.0,0.0,0.0,0.0,0.0,1.969,1.969,1.969,2.0737,2.1261,2.0587,2.1111,2.1246,2.0572,2.0632,2.1111,2.2039,2.3954,2.5091,2.5211,2.6482,2.7186,2.7186,2.7186,2.7186,2.7186,2.7186,2.747,2.8023,2.8122,2.8037,2.7754,2.7201,2.701,2.7052,2.5955,2.5975,2.6766,2.6327,2.5423,2.433,2.4217,2.3429,2.2402,2.1981,2.1254,2.0396,1.9966,2.0635,2.1596,2.1033,2.1382,0.0,0.0,0.0,0.0,0.0,0.0,0.0,0.0,0.0,0.0,0.0,0.0,0.0,0.0,0.0,0.0,0.0,0.0,0.0,2.5537,2.6713,2.7421,2.7287,2.8688,2.9511,2.9027,2.9944,3.0529,3.0552,3.155,3.1965,3.1406,3.1908,3.2374,3.2709,3.3431,3.398,3.4312,3.5067,3.5444,3.531,3.531,3.4966,3.4292,0.0,0.0,3.4527,3.5211,3.5531,3.5455,3.4106,3.3517,3.3367,3.2077,3.1839,3.2332,3.2332,3.2332,3.2332,3.2467,3.2841,3.3155,0.0,0.0,0.0,0.0,0.0,0.0,0.0,1.969,1.969,1.969,2.0572,2.0946,2.0273,2.0797,2.0932,2.0258,2.0513,2.141,2.3026,2.4388,2.542,2.6078,2.7036,2.7625,2.7625,2.7625,2.7739,2.8083,2.8083,2.8427,2.9101,2.9415,2.9478,2.9318,2.8778,2.8546,2.8512,2.736,2.718,2.767,2.7394,2.6791,2.5988,2.5423,2.4598,2.3692,2.3423,2.2889,2.227,2.2194,2.2534,2.2934,2.286,2.2985,2.2987,0.0,0.0,0.0,0.0,0.0,0.0,0.0,0.0,0.0,0.0,0.0,0.0,0.0,0.0,2.4469,2.415,0.0,2.6492,2.6656,2.7457,2.804,2.7855,2.869,2.9206,2.8904,2.9724,3.0382,3.0645,3.1022,3.1193,3.118,3.1193,3.1402,3.1888,3.2321,3.3031,3.3959,3.4476,3.4986,3.5504,3.5504,3.5325,3.4996,3.534,3.5325,3.4996,3.5355,3.5504,3.5444,3.4427,3.3978,3.3903,3.2916,3.2706,3.3036,3.3365,3.3499,3.3499,3.3499,3.3709,3.3888,0.0,0.0,0.0,0.0,0.0,0.0,0.0,0.0,1.969,1.969,2.0288,2.0453,1.9765,2.0303,2.0483,1.9929,2.0632,2.1919,2.3864,2.4881,2.5929,2.7111,2.7799,2.8023,2.7784,2.7904,2.8173,2.8607,2.8727,2.919,2.9968,3.0477,3.0761,3.0901,3.0439,3.0211,3.0169,2.921,2.8809,2.8692,2.8692,2.823,2.7494,2.6477,2.5478,2.4698,2.4698,2.4211,2.3563,2.4214,2.4208,2.399,2.4536,2.4528,2.4155,2.3364,2.3078,0.0,0.0,0.0,0.0,0.0,0.0,0.0,0.0,2.3427,2.3376,2.3703,2.463,2.5305,2.5124,2.6518,2.7617,2.748,2.8062,2.8421,2.827,2.875,2.9089,2.9089,2.9725,3.0325,3.0856,3.0203,3.0139,3.0908,3.0305,3.0381,3.1352,3.1562,3.2413,3.4131,3.4235,3.4691,3.5504,3.5504,3.5504,3.5504,3.5504,3.5504,3.5504,3.5504,3.5504,3.5474,3.4771,3.4412,3.4247,3.3709,3.3574,3.3739,3.4262,3.4562,3.4666,3.4532,3.4562,3.4637,0.0,0.0,0.0,0.0,0.0,0.0,0.0,0.0,0.0,1.969,2.0288,2.0453,1.9765,2.0303,2.0677,2.0602,2.1739,2.3295,2.5255,2.7126,2.8487,2.9205,2.9849,2.9639,2.8502,2.9056,2.9101,2.8607,2.919,3.0103,3.1315,3.139,3.2019,3.3077,3.2266,3.2205,3.2606,3.175,3.1213,3.0834,3.0834,3.0015,2.8674,2.8059,2.6408,2.4374,2.4374,2.3191,2.1875,2.2822,2.3292,2.3646,2.4118,2.4792,2.5121,2.359,2.3078,2.2874,2.1707,2.1886,2.284,2.4719,2.4885,2.5203,0.0,2.7431,2.6603,2.6176,2.6596,2.6918,2.642,2.6854,2.7506,2.7908,2.8497,2.8837,2.8825,2.934,2.9691,2.9691,2.9768,2.9858,2.9921,2.9856,2.9856,2.9934,3.0322,3.0955,3.2061,3.2759,3.3698,3.4862,3.5215,3.5359,3.5504,3.5504,3.5504,3.5504,3.5504,3.5504,3.5504,3.5504,3.5504,3.5474,3.4771,3.4143,3.3604,3.3529,3.3844,3.4382,3.4442,3.4846,3.531,3.4696,3.4861,3.522,0.0,0.0,0.0,0.0,0.0,0.0,0.0,0.0,0.0,0.0,1.9929,2.0004,1.972,1.9944,2.0288,2.0677,2.1919,2.352,2.548,2.7111,2.8472,2.9535,2.9819,2.9714,2.919,2.9445,2.9624,2.9714,3.0387,3.1195,3.2108,3.2497,3.317,3.4006,3.2491,3.2216,3.2737,3.1261,3.0563,3.0419,3.0419,2.9783,2.8875,2.831,2.7042,2.5499,2.4804,2.3896,0.0,2.373,2.3899,2.4005,2.5173,2.5592,2.5398,2.4406,2.433,2.452,2.4413,2.4298,2.4632,2.619,2.6664,2.6987,2.816,2.7846,2.7306,2.7394,2.7858,2.8172,2.7946,2.836,2.8825,2.9051,2.9553,2.9804,2.9478,2.9917,3.0156,2.9829,2.9792,2.9792,2.9792,2.9792,2.993,3.0244,3.0181,3.0491,3.1267,3.181,3.2545,3.355,3.4254,3.4905,3.5504,3.5504,3.5504,3.5504,3.5504,3.5504,3.5504,3.5504,3.5504,3.5489,3.519,3.4921,3.4666,3.4666,3.4831,3.507,3.507,3.525,3.5474,3.519,3.525,3.5429,0.0,0.0,0.0,0.0,0.0,0.0,0.0,0.0,0.0,0.0,1.9479,1.953,1.969,1.969,1.9884,2.0378,2.1799,2.343,2.5226,2.6916,2.8457,2.9774,3.0028,3.0028,2.9834,3.0028,3.0342,3.0791,3.1465,3.2228,3.3066,3.3544,3.4128,3.4692,3.3283,3.2764,3.289,3.1563,3.0633,3.0216,3.0216,2.9644,2.885,2.8147,2.7193,2.6101,2.5159,2.4368,2.3816,2.4217,2.3991,2.3766,2.5121,2.5247,2.487,2.4657,2.4858,2.5277,2.5858,2.5844,2.5946,2.7351,2.8139,2.865,2.8976,2.8699,2.8524,2.8925,2.9327,2.9566,2.9415,2.9741,2.9967,2.9817,3.0131,3.0244,2.9842,3.0131,3.0244,2.9842,2.9792,2.9792,2.9792,2.993,3.0181,3.0583,3.052,3.0795,3.1642,3.1906,3.2595,3.3889,3.4214,3.4758,3.5504,3.5504,3.5504,3.5504,3.5504,3.5504,3.5504,3.5504,3.5504,3.5504,3.5504,3.5504,3.5504,3.5504,3.5504,3.5504,3.5504,3.5504,3.5504,3.5504,3.5504,3.5504,0.0,0.0,0.0,0.0,0.0,0.0,0.0,0.0,0.0,0.0,0.0,0.0,0.0,1.969,1.969,1.972,2.1569,2.3236,2.4522,2.7111,2.9146,3.0417,3.112,3.1165,3.0492,3.1135,3.1422,3.1437,3.2153,3.3155,3.4412,3.4442,3.4816,3.5474,3.5409,3.4824,3.3959,3.3891,3.282,3.118,3.118,3.0271,2.8812,2.772,2.6603,2.5548,2.5008,2.4104,2.3103,2.3175,2.2824,2.246,2.305,2.3165,2.3314,2.3866,2.4029,2.4154,2.4728,2.5217,2.6122,2.8287,2.9306,3.0053,3.1066,3.1286,3.1273,3.1286,3.1298,3.116,3.0658,3.0583,3.0419,2.988,2.9804,2.9817,2.9792,2.9804,2.9817,2.9792,2.9792,2.9792,2.9792,3.0281,3.0595,3.062,3.1562,3.2846,3.4369,3.4327,3.5131,3.7193,3.6081,3.5439,3.5504,3.5504,3.5504,3.5504,3.5504,3.5504,3.5504,3.5504,3.5504,3.5504,3.5504,3.5504,3.5504,3.5504,3.5504,3.5504,3.5504,3.5504,3.5504,3.5504,3.5504,3.5504,0.0,0.0,0.0,0.0,0.0,0.0,0.0,0.0,0.0,0.0,0.0,0.0,0.0,0.0,0.0,0.0,2.138,2.2772,2.4462,2.6288,2.7859,2.9175,3.0268,3.0746,3.0507,3.118,3.1749,3.2183,3.2841,3.3619,3.4487,3.4951,3.491,3.4476,3.3822,3.3031,3.2105,3.1489,3.1068,3.0765,3.0011,2.9606,2.9252,2.7017,2.5711,2.4858,0.0,2.2372,2.2046,2.2046,2.192,2.1995,2.3301,2.3439,2.3251,2.3828,2.4251,2.4735,2.566,2.6601,2.7711,2.9585,3.0214,3.0636,3.1725,3.165,3.1386,3.1386,3.052,2.9817,3.003,2.9453,2.9013,2.9189,2.9854,3.0218,2.9842,3.0105,3.0206,2.9829,2.9792,2.993,3.0306,3.0181,3.0369,3.1072,3.1148,3.1521,3.2449,3.3671,3.4339,3.4242,3.5486,3.5953,3.5504,3.5504,3.5504,3.5504,3.5504,3.5504,3.5504,3.5504,3.5504,3.5504,3.5504,3.5504,3.5504,3.5504,3.5504,3.5504,3.5504,3.5504,3.5504,3.5504,3.5504,3.5504,0.0,0.0,0.0,0.0,0.0,0.0,0.0,0.0,0.0,0.0,0.0,0.0,0.0,0.0,0.0,0.0,0.0,2.1979,2.349,2.5031,2.6378,2.7485,2.8771,2.946,2.946,2.9894,3.0447,3.112,3.1779,3.2557,3.344,3.4113,3.4332,3.4178,3.3546,3.2681,3.1669,3.0834,3.0213,2.9641,2.8712,2.8323,2.8072,2.6076,2.4858,0.0,2.2372,2.1686,2.147,2.1062,2.104,2.1486,2.2789,2.3352,2.3599,2.389,2.4528,2.5361,2.6687,2.7541,2.8527,3.0152,3.0728,3.1122,3.2014,3.2102,3.1938,3.1725,3.0683,2.9804,2.9792,2.9026,2.8323,2.8084,2.8662,2.9076,2.8913,2.9202,2.9515,2.9767,2.9967,3.0143,3.0306,3.0181,3.0369,3.106,3.116,3.1546,3.2528,3.3657,3.445,3.4683,3.5825,3.6282,3.5863,3.5863,3.5744,3.5504,3.5504,3.5504,3.5504,3.5504,3.5504,3.5504,3.5504,3.5504,3.5504,3.5504,3.5504,3.5504,3.5504,3.5504,3.5504,3.5504,3.5504,3.5504,0.0,0.0,0.0,0.0,0.0,0.0,0.0,0.0,0.0,0.0,0.0,0.0,0.0,0.0,0.0,0.0,0.0,0.0,2.1565,2.3372,2.4777,2.548,2.6767,2.7535,2.7565,2.761,2.7919,2.8607,2.922,3.0193,3.1437,3.2093,3.3051,3.42,3.42,3.3499,3.2331,3.1792,3.0298,2.8154,2.7503,2.6634,2.564,2.5023,2.4067,2.3062,2.2472,2.2014,2.142,2.0257,2.0335,2.1036,2.1705,2.3025,2.4367,2.4189,2.4886,2.6103,2.7689,2.8119,2.86,3.0216,3.0972,3.1499,3.2051,3.2591,3.283,3.2252,3.165,3.0909,2.9892,2.9239,2.8335,2.6804,2.6659,2.6816,2.7331,2.7431,2.8047,2.9641,3.0319,3.0457,2.993,3.0344,3.0658,3.0658,3.1574,3.2846,3.4396,3.441,3.5543,3.8031,3.7112,3.6567,3.6455,3.6537,3.6207,3.5549,3.5549,3.5534,3.5504,3.5504,3.5504,3.5504,3.5504,3.5504,3.5504,3.5504,3.5504,3.5504,3.5504,3.5504,3.5504,3.5504,3.5504,3.5504,0.0,0.0,0.0,0.0,0.0,0.0,0.0,0.0,0.0,0.0,0.0,0.0,0.0,0.0,0.0,0.0,0.0,0.0,2.0327,2.1673,2.2951,2.4059,2.539,2.6333,2.6826,2.732,2.7919,2.8607,2.8771,2.9505,3.0761,3.0462,3.0391,3.0478,3.0478,2.9927,2.8957,2.8732,2.8879,2.8985,2.6867,2.6426,2.6934,2.5088,2.3846,2.3059,2.2674,2.2089,2.1462,2.1159,2.1718,2.2604,2.3246,2.4277,2.5331,2.5728,2.6637,2.7585,2.8001,2.8694,2.9568,3.0368,3.0707,3.0947,3.1474,3.1712,3.1662,3.1135,2.9917,2.8863,2.8586,2.8072,2.7695,2.7682,2.8398,2.8988,2.9126,2.9515,2.993,3.0357,3.0871,3.1135,3.0997,3.111,3.1198,3.1198,3.1085,3.166,3.3194,3.4399,3.4988,3.4649,3.6799,3.7297,3.6096,3.6808,3.6866,3.6237,3.6237,3.5983,3.5504,3.5504,3.5504,3.5504,3.5504,3.5504,3.5504,3.5504,3.5504,3.5504,3.5504,3.5504,3.5504,3.5504,3.5504,3.5504,0.0,0.0,0.0,0.0,0.0,0.0,0.0,0.0,0.0,0.0,0.0,0.0,0.0,0.0,0.0,0.0,0.0,0.0,0.0,2.0718,2.159,2.2308,2.3325,2.4059,2.4433,2.5091,2.5465,2.557,2.6437,2.723,2.7934,2.8158,2.8492,2.8866,2.8866,2.8527,2.7871,2.7577,2.7475,0.0,0.0,2.5744,2.6069,2.5128,2.4496,2.4071,2.3527,2.3036,2.2644,2.2898,2.3813,2.4904,2.4841,2.5589,2.6573,2.7082,2.7646,2.8218,2.8736,2.9327,2.9894,3.0175,3.0428,3.0539,3.0331,3.0696,3.0758,2.9729,2.8762,2.8034,2.7795,2.7494,2.7218,2.7042,2.7745,2.8411,2.8662,2.9164,2.9792,3.0532,3.1286,3.165,3.1411,3.1612,3.175,3.175,3.1486,3.1898,3.3186,3.4285,3.5024,3.5321,3.7036,3.7634,3.7022,3.6995,3.6836,3.6492,3.6193,3.5863,3.5504,3.5504,3.5504,3.5504,0.0,3.5504,3.5504,3.5504,3.5504,3.5504,3.5504,3.5504,3.5504,3.5504,3.5504,3.5504,0.0,0.0,0.0,0.0,0.0,0.0,0.0,0.0,0.0,0.0,0.0,0.0,0.0,0.0,0.0,0.0,0.0,0.0,0.0,0.0,2.0489,2.0593,2.1129,2.1511,2.16,2.2248,2.2263,2.1695,2.34,2.4283,2.4388,2.545,2.6617,2.7814,2.7904,2.7771,2.7506,2.7064,2.6226,2.5163,2.5094,2.486,2.4621,0.0,2.5508,2.5287,2.4567,2.432,2.4364,2.4822,2.5914,2.6986,2.6304,2.6896,2.7841,2.8227,2.8354,2.8537,2.953,2.9792,2.9792,2.9792,3.0175,3.0176,2.9089,2.9641,2.9917,2.8235,2.7946,2.7808,2.7168,2.7118,2.6879,2.5963,2.6302,2.6904,2.7532,2.8097,2.9013,3.0532,3.1599,3.2051,3.165,3.2051,3.2328,3.2328,3.2252,3.2676,3.3766,3.4076,3.5308,3.771,3.759,3.7789,3.8527,3.7434,3.6836,3.6731,3.6163,3.5804,3.5639,3.5639,3.5594,3.5504,3.5504,3.5504,3.5504,3.5504,3.5504,3.5504,3.5504,3.5504,3.5504,3.5504,3.5504,3.5504,0.0,0.0,0.0,0.0,0.0,0.0,0.0,0.0,0.0,0.0,1.6637,1.668,0.0,0.0,0.0,0.0,0.0,0.0,0.0,0.0,0.0,2.0016,2.0146,2.0465,2.1029,2.1584,2.1814,2.1695,2.2039,2.2488,2.3011,2.2697,2.2951,2.3729,2.4238,2.4417,2.4399,2.4814,2.5212,2.5477,2.4773,2.4861,2.5383,2.604,0.0,0.0,2.4567,2.4998,2.5923,2.5614,2.6006,2.6722,2.7442,2.8176,2.8773,2.9378,2.9504,2.9555,2.9781,2.9792,2.9792,2.9792,2.9894,2.9642,2.8499,2.875,2.875,2.708,2.7105,2.7105,2.6076,2.6276,2.6691,2.6954,2.7457,2.8172,2.9214,2.9829,3.0444,3.1173,3.1825,3.2365,3.2754,3.2867,3.293,3.293,3.2478,3.2606,3.3645,3.3847,3.5104,3.7738,3.7777,3.8179,3.9245,3.902,3.8631,3.8063,3.7943,3.7345,3.6312,3.6312,3.6013,3.5504,3.5504,0.0,3.5504,3.5504,3.5504,3.5504,3.5504,3.5504,3.5504,3.5504,3.5504,3.5504,0.0,0.0,0.0,0.0,0.0,0.0,0.0,1.6522,1.6522,1.6522,1.6522,1.6635,1.6936,1.7211,1.7372,0.0,0.0,0.0,0.0,0.0,0.0,0.0,0.0,0.0,1.9854,2.0454,2.0587,2.0235,0.0,2.1545,2.1259,2.156,2.1859,2.2173,2.2473,2.2607,2.2596,2.2644,2.3185,2.4045,2.3755,2.4402,2.5624,0.0,0.0,0.0,2.5119,2.5515,2.6202,2.546,2.6003,2.7216,2.823,2.8925,2.9428,2.9716,2.9792,2.9792,2.9792,2.9792,2.9792,2.9792,2.9593,2.9062,2.7968,2.7883,2.7682,2.6289,2.6465,2.6691,2.6151,2.6264,2.6553,2.6816,2.708,2.7645,2.8762,2.939,3.0055,3.0884,3.1461,3.2001,3.2566,3.2629,3.2629,3.2629,3.2641,3.2908,3.3386,3.3927,3.4928,3.6479,3.7353,3.8069,3.8546,3.8748,3.8542,3.7883,3.7554,3.6896,3.5968,3.5968,3.5804,3.5504,3.5504,3.5504,3.5504,3.5504,3.5504,3.5504,3.5504,3.5504,3.5504,3.5504,3.5504,3.5504,0.0,0.0,0.0,0.0,0.0,0.0,0.0,1.6522,1.6522,1.6522,1.6522,1.6785,1.7488,1.7451,1.7606,0.0,0.0,0.0,0.0,0.0,0.0,0.0,0.0,0.0,0.0,0.0,0.0,1.8888,2.0371,0.0,0.0,0.0,0.0,0.0,2.1123,2.1123,2.1138,2.0848,2.1351,0.0,0.0,2.3798,0.0,0.0,0.0,0.0,0.0,2.5814,2.5939,2.5413,2.6245,2.7644,2.8388,2.9101,2.9566,2.9327,2.9515,2.9792,2.9792,2.9792,2.9792,2.9792,2.934,2.8575,2.7377,2.7205,2.6929,2.5686,2.5975,2.6496,2.6302,2.6276,2.6382,2.6508,2.6533,2.6879,2.8109,2.8762,2.949,3.0495,3.1072,3.1562,3.1989,3.2039,3.2089,3.2202,3.2754,3.3081,3.3081,3.4345,3.5157,3.5471,3.7253,3.8144,3.8144,3.8483,3.8347,3.7838,3.7345,3.6761,3.6118,3.5983,3.5848,3.5714,3.5564,3.5504,3.5504,3.5504,3.5504,3.5504,3.5504,3.5504,3.5504,3.5504,3.5504,3.5504,0.0,0.0,0.0,0.0,0.0,0.0,0.0,1.6522,1.6522,1.6522,1.6522,1.6936,1.8016,1.7677,1.7634,0.0,0.0,0.0,0.0,0.0,0.0,0.0,0.0,0.0,0.0,0.0,0.0,1.8921,1.9073,0.0,0.0,0.0,0.0,0.0,0.0,1.9335,1.9376,1.9922,0.0,0.0,0.0,0.0,0.0,0.0,0.0,0.0,0.0,2.5988,2.5604,2.6485,2.6922,2.7128,2.7578,2.8292,2.8812,2.7808,2.8599,2.9792,2.9792,2.9792,2.9792,2.9792,2.934,2.846,2.6968,2.6917,2.6829,2.5222,2.5724,2.6302,2.5774,2.5674,2.585,2.6445,2.6533,2.7017,2.8624,2.9352,2.9942,3.0545,3.1072,3.1411,3.1461,3.1461,3.1675,3.2177,3.2754,3.3081,3.3081,3.4952,3.6105,3.6129,3.8175,3.9265,3.9265,3.9277,3.929,3.923,3.917,3.8796,3.8108,3.7509,3.6926,3.6357,3.5759,3.5504,0.0,3.5504,3.5504,3.5504,3.5504,3.5504,3.5504,3.5504,3.5504,3.5504,0.0,0.0,0.0,0.0,0.0,0.0,1.6522,1.6522,1.6522,1.6522,1.6522,1.6823,1.7626,1.7815,1.8103,1.8643,0.0,0.0,0.0,0.0,0.0,0.0,0.0,0.0,0.0,0.0,1.8256,1.8484,1.9135,0.0,0.0,0.0,0.0,0.0,0.0,1.8796,1.8506,1.8847,0.0,0.0,0.0,0.0,0.0,0.0,0.0,0.0,0.0,0.0,2.5976,2.5537,2.5873,2.6366,2.5356,2.6231,2.7618,2.7738,2.8021,2.8511,2.9515,2.9792,2.9792,2.9792,2.8834,2.787,2.7528,2.6841,2.6176,2.5875,2.6151,2.6458,2.6163,2.5824,2.5674,2.59,2.6112,2.6554,2.7326,2.8106,2.8779,2.9529,2.9792,3.0294,3.1298,3.1386,3.1763,3.2667,3.2629,3.2704,3.3056,3.3856,3.4332,3.4332,3.5775,3.6568,3.6568,3.7175,3.7296,3.6953,3.7564,3.7521,3.6892,3.6862,3.6716,3.6447,3.5789,3.5504,0.0,3.5504,3.5504,3.5504,3.5504,3.5133,3.4691,3.5279,3.5133,3.4691,0.0,0.0,0.0,0.0,0.0,1.6522,1.6522,1.6522,1.6522,1.6522,1.6522,1.6735,1.7313,1.7877,1.843,1.8933,1.853,0.0,0.0,0.0,0.0,0.0,0.0,0.0,0.0,0.0,1.813,1.8436,1.9178,1.9456,0.0,0.0,1.9319,1.8936,0.0,0.0,0.0,0.0,0.0,0.0,0.0,0.0,0.0,0.0,0.0,0.0,0.0,0.0,0.0,0.0,0.0,2.5439,2.4348,2.4811,2.5913,2.6755,2.7265,2.7745,2.8775,2.9415,2.9754,2.9578,2.8379,2.7309,2.7339,2.6452,2.5674,2.5925,2.6239,2.6533,2.6533,2.6126,2.585,2.585,2.6037,2.631,2.6703,2.7357,2.8169,2.9196,2.9227,2.9705,3.1156,3.1347,3.1788,3.2754,3.2604,3.2641,3.3056,3.3081,3.324,3.3556,3.4581,3.5129,3.5129,3.5814,3.6004,3.5604,3.6599,3.6733,3.6187,3.6314,3.6206,3.5984,3.5052,3.4624,0.0,3.4624,3.4624,3.4624,3.4624,3.4192,3.3671,3.4409,3.4192,3.3671,0.0,0.0,0.0,0.0,0.0,0.0,1.6522,1.6522,1.6522,1.6522,1.6522,1.6735,1.7313,1.7877,1.843,1.8933,1.853,0.0,0.0,0.0,0.0,0.0,0.0,0.0,0.0,0.0,1.7915,1.9007,1.9007,1.9284,1.9773,1.9258,1.9007,1.8957,0.0,0.0,0.0,0.0,0.0,0.0,0.0,0.0,0.0,0.0,0.0,0.0,0.0,0.0,0.0,0.0,0.0,0.0,0.0,2.4488,2.354,2.416,2.609,2.7984,2.7457,2.8524,2.9654,2.9089,2.8075,2.7003,2.5866,2.5611,2.5448,2.4946,2.5699,2.6533,2.6533,2.6521,2.6521,2.6521,2.6508,2.671,2.7193,2.7745,2.8651,3.0224,3.0022,3.0139,3.1119,3.1342,3.1625,3.2177,3.2754,3.3068,3.3081,3.3081,3.3556,3.4664,3.5668,3.6198,3.6198,3.6198,3.6198,3.6184,3.7252,3.7469,3.6733,3.6259,3.5624,3.4934,3.3297,3.2593,0.0,3.2593,3.2593,3.2593,3.2593,3.2593,3.2593,3.2593,3.2593,3.2593,0.0,0.0,0.0,0.0,0.0,0.0,0.0,1.6522,1.6522,1.6522,1.6522,1.6584,1.6773,1.7639,1.8279,1.8455,1.8304,0.0,0.0,0.0,0.0,0.0,0.0,0.0,0.0,0.0,1.7551,1.7903,1.8656,1.912,1.9284,1.9459,1.9371,1.902,1.8668,1.8392,0.0,0.0,0.0,0.0,0.0,0.0,2.1617,0.0,0.0,0.0,0.0,0.0,0.0,0.0,0.0,0.0,0.0,0.0,0.0,2.3738,2.4159,2.5006,2.6462,2.6868,2.6988,2.7175,2.6396,2.5706,2.6143,2.5598,2.5234,2.5824,2.6214,2.6533,2.6533,2.6533,2.6647,2.6967,2.7524,2.7893,2.8075,2.8607,2.919,2.9645,3.0432,3.0893,3.0815,3.1461,3.2026,3.2202,3.2039,3.2265,3.3031,3.2704,3.2824,3.3543,3.394,3.4095,3.4095,3.4095,3.4095,3.4095,3.5142,3.56,3.5355,3.5024,3.4812,3.45,3.3179,3.2593,3.2593,3.2593,3.2593,3.2593,3.2593,3.2249,3.1742,3.2393,3.2177,3.1688,0.0,0.0,0.0,0.0,0.0,0.0,0.0,1.6337,1.6522,1.6522,1.6522,1.6522,1.6522,1.7526,1.8204,1.8204,1.8392,0.0,0.0,0.0,0.0,0.0,0.0,0.0,0.0,1.74,1.7689,1.7689,1.8593,1.8983,1.8983,1.9359,1.9447,1.9309,1.912,1.8945,0.0,0.0,0.0,0.0,0.0,0.0,2.0869,0.0,0.0,0.0,0.0,0.0,0.0,0.0,0.0,0.0,0.0,0.0,0.0,0.0,2.315,2.3178,2.4859,2.5581,2.5901,2.5892,2.5332,2.49,2.541,2.5184,2.5021,2.5699,2.6176,2.6533,2.6533,2.6533,2.6703,2.7378,2.8108,2.8567,2.8486,2.9267,2.9823,2.9844,3.11,3.164,3.0934,3.1512,3.1901,3.1901,3.1587,3.1788,3.2704,3.2215,3.2164,3.2729,3.2754,3.2754,3.2754,3.2754,3.2654,3.2441,3.3749,3.4096,3.3647,3.3594,3.3424,3.3166,3.2005,3.1549,0.0,3.1549,3.1549,3.1549,3.1549,3.1193,3.0771,3.1341,3.1193,3.0719,0.0,0.0,0.0,0.0,0.0,0.0,0.0,1.6095,1.6466,1.6466,1.6522,1.6522,1.6522,1.7488,1.8141,1.8141,0.0,0.0,0.0,0.0,0.0,0.0,0.0,0.0,1.7313,1.7865,1.8141,1.8141,1.8694,1.892,1.892,1.892,1.9246,1.9723,1.9246,1.9321,0.0,0.0,0.0,0.0,0.0,0.0,0.0,0.0,0.0,0.0,0.0,0.0,0.0,0.0,0.0,0.0,0.0,0.0,0.0,0.0,0.0,0.0,0.0,2.4631,2.6,2.4941,2.4746,2.4637,2.4117,2.438,0.0,2.4808,2.5661,2.6471,2.6471,2.6496,2.685,2.7656,2.8344,2.8769,2.8688,2.9649,3.0468,3.0511,3.1834,3.2369,3.1304,3.1323,3.1373,3.1336,3.1298,3.1537,3.2127,3.1637,3.1587,3.2139,3.2127,3.2139,3.2215,3.2215,3.1951,3.1449,3.2927,3.3067,3.195,3.2014,3.1774,0.0,3.0241,2.9792,2.9792,2.9792,2.9792,2.9792,2.9792,2.9792,2.9792,2.9792,2.9792,2.9779,0.0,0.0,0.0,0.0,0.0,0.0,0.0,0.0,0.0,0.0,1.6522,1.6522,1.6522,1.7149,1.7576,0.0,0.0,0.0,0.0,0.0,0.0,0.0,0.0,0.0,1.6722,1.7287,1.7576,1.7576,1.8129,1.8405,1.8405,1.8405,1.8681,1.9158,1.9083,1.9321,0.0,0.0,0.0,0.0,0.0,0.0,0.0,0.0,0.0,0.0,2.0012,2.0087,0.0,0.0,0.0,0.0,0.0,0.0,0.0,0.0,2.2731,2.2874,2.2585,0.0,2.4048,2.3631,2.3966,2.4353,0.0,2.4128,2.4305,2.4732,2.5347,2.5799,2.5799,2.6665,2.7615,2.8223,2.9457,3.0255,3.0106,3.053,3.0667,3.002,3.1415,3.158,2.9666,3.0645,3.1223,3.0834,3.0407,3.0583,3.1537,3.1085,3.1035,3.1574,3.1198,3.1386,3.2202,3.2215,3.2152,3.2014,3.1946,3.183,3.1563,3.1169,3.0915,3.0684,3.0045,2.9792,2.9792,2.9792,2.9792,2.9792,2.9792,2.9792,2.9792,2.9792,2.9792,2.9729,0.0,0.0,0.0,0.0,0.0,0.0,0.0,0.0,0.0,0.0,0.0,1.6522,1.6522,1.7036,0.0,0.0,0.0,0.0,0.0,0.0,0.0,0.0,0.0,1.6522,1.6522,1.7338,1.7639,1.7388,1.8191,1.8455,1.8204,1.8204,1.8505,1.8983,1.9284,1.9535,0.0,0.0,0.0,0.0,1.9798,0.0,0.0,0.0,0.0,0.0,1.9798,1.9798,0.0,2.0194,2.0309,2.0315,0.0,0.0,0.0,0.0,2.2121,2.2686,2.2397,2.2794,2.3194,2.2851,2.323,2.3715,2.359,2.3801,2.4155,2.4707,2.5234,2.5674,2.5937,2.6633,2.7465,2.8326,2.9455,3.0528,3.1364,3.128,3.1091,3.1138,3.1327,3.111,3.0156,3.0645,3.0809,3.0281,2.9967,3.0156,3.0984,3.0771,3.0746,3.1022,3.0997,3.1135,3.1474,3.1486,3.1348,3.1097,3.1047,3.0896,3.0645,3.0369,3.0231,3.0218,2.993,2.9792,2.9792,2.9792,2.9792,2.9792,2.9792,2.9792,2.9792,2.9792,2.9792,2.9741,0.0,0.0,0.0,0.0,0.0,0.0,0.0,0.0,0.0,0.0,0.0,0.0,0.0,0.0,0.0,0.0,0.0,0.0,0.0,0.0,0.0,0.0,0.0,1.6522,1.6522,1.7539,1.7852,1.7388,1.8317,1.853,1.8078,1.799,1.8292,1.8883,1.9535,1.9798,0.0,1.9798,1.9798,1.9798,1.9798,0.0,0.0,0.0,0.0,0.0,0.0,0.0,0.0,1.9798,1.9798,1.9798,1.9798,0.0,0.0,0.0,0.0,0.0,2.2284,2.2711,2.2989,2.2564,2.2873,2.3245,2.3138,2.3514,2.4004,2.4469,2.5046,2.5624,2.6126,2.6476,2.7058,2.8221,2.9003,3.017,3.2164,3.1683,3.1392,3.2241,3.1414,3.0846,3.1122,3.0821,3.0419,2.9955,2.9842,3.003,3.0583,3.0532,3.0532,3.062,3.1047,3.1097,3.0733,3.0658,3.0382,2.993,3.0306,3.0244,2.9792,2.9792,2.9792,2.9792,0.0,0.0,2.9792,2.9792,2.9792,2.9792,2.9792,2.9792,2.9792,2.9792,2.9792,2.9792,0.0,0.0,0.0,0.0,0.0,0.0,0.0,0.0,0.0,0.0,0.0,0.0,0.0,0.0,0.0,0.0,0.0,0.0,0.0,0.0,0.0,1.7388,1.6823,1.6522,1.6522,1.7174,1.7463,1.7388,1.7551,1.7589,1.7501,1.7011,1.7338,1.838,1.9359,1.9798,1.9798,1.9798,1.9798,1.9798,1.9798,0.0,0.0,0.0,0.0,0.0,0.0,0.0,0.0,1.9798,1.9798,1.9798,1.9798,0.0,0.0,0.0,0.0,0.0,2.2184,2.2711,2.3075,2.3001,2.3528,2.3943,2.3258,2.314,2.3288,2.3315,2.4217,2.4971,2.5059,2.6398,2.7564,2.7775,2.8684,3.0032,3.1832,3.1281,3.077,3.0867,3.1128,3.0947,3.0118,3.0382,3.0583,3.0495,3.0055,3.003,3.0583,3.0168,3.0131,3.0608,3.0696,3.0909,3.1273,3.0834,3.057,3.0482,3.0105,2.988,2.9792,2.9792,2.9792,2.9792,0.0,2.9792,2.9792,2.9792,2.9792,2.9792,2.9792,2.9792,2.9792,2.9792,2.9792,2.9792,0.0,0.0,0.0,0.0,0.0,0.0,0.0,0.0,0.0,0.0,0.0,0.0,0.0,0.0,0.0,0.0,0.0,0.0,0.0,0.0,1.7237,1.6936,1.666,1.6522,1.6522,1.7087,1.7388,1.7388,1.7677,1.7664,1.7388,1.7011,1.7095,1.763,1.8739,1.9202,1.9254,1.9631,1.9579,1.9254,0.0,0.0,0.0,0.0,0.0,0.0,0.0,0.0,0.0,0.0,1.9798,1.9798,1.9798,0.0,0.0,0.0,0.0,0.0,2.1719,2.2272,2.2765,2.3046,2.3638,2.3943,2.3273,2.3078,2.3253,2.3916,2.4456,2.5096,2.5988,2.6883,2.7785,2.8723,2.9712,3.0665,3.1395,3.0901,3.0662,3.1202,3.0582,3.0331,3.1035,3.0809,3.062,3.062,3.0382,3.0218,3.0168,3.0218,3.0357,3.0608,3.062,3.0871,3.1386,3.0583,3.0319,3.0608,3.0055,2.9792,2.9792,2.9792,2.9792,2.9792,0.0,2.9792,2.9792,2.9792,2.9792,2.9792,2.9792,2.9792,2.9792,2.9792,2.9792,2.9792,0.0,0.0,0.0,0.0,0.0,0.0,0.0,0.0,0.0,0.0,0.0,0.0,0.0,0.0,0.0,0.0,0.0,0.0,0.0,0.0,1.6986,1.6534,1.6522,1.6522,1.6522,1.6948,1.7187,1.7187,1.7601,1.7497,1.6995,1.7063,1.7108,1.7205,1.8251,1.8715,1.8768,1.9475,1.9371,1.8768,0.0,0.0,0.0,0.0,0.0,0.0,0.0,0.0,0.0,0.0,0.0,0.0,0.0,0.0,0.0,1.9798,2.0112,2.0614,2.1305,2.1895,2.2405,2.2985,2.3468,2.3692,2.3391,2.329,2.3615,2.4619,2.4921,2.5398,2.6653,2.7105,2.7795,2.934,3.0213,3.0716,3.0851,3.0559,3.0585,3.1448,3.0088,2.9842,3.1662,3.0984,3.047,3.0608,3.0495,3.0294,2.9993,3.0269,3.0482,3.062,3.062,3.0871,3.1386,3.0583,3.0319,3.0608,3.0055,2.9792,2.9792,2.9792,2.9792,2.9792,2.9792,2.9792,2.9792,2.9792,2.9792,2.9792,2.9792,2.9792,2.9792,2.9792,2.9792,2.9792,0.0,0.0,0.0,0.0,0.0,0.0,0.0,0.0,0.0,0.0,0.0,0.0,0.0,0.0,0.0,0.0,0.0,0.0,0.0,0.0,1.6559,1.6522,1.6522,1.6522,1.6522,1.6559,1.6572,1.6572,1.6622,1.6337,1.576,1.6681,1.7169,1.7326,1.8251,1.8715,1.8768,1.9475,1.9371,1.8768,1.9475,0.0,0.0,0.0,0.0,0.0,0.0,0.0,0.0,0.0,0.0,0.0,0.0,0.0,1.9798,1.9798,1.9823,2.01,2.1192,2.1895,2.246,2.2977,2.3128,2.3303,2.3817,2.3942,2.4104,2.4695,2.5209,2.5573,2.5699,2.6578,2.7657,2.88,2.8988,2.9416,3.0473,3.0146,3.002,3.0624,3.0093,2.9993,3.067,3.0193,3.0068,3.057,3.0143,3.0055,3.0532,3.0105,3.0093,3.0595,3.062,3.0871,3.1386,3.1311,3.1047,3.0608,3.0055,2.9792,2.9792,2.9792,2.9792,2.9792,2.9792,2.9792,2.9792,2.9792,2.9792,2.9792,2.9792,2.9792,2.9792,2.9792,2.9792,2.9792,0.0,0.0,0.0,0.0,0.0,0.0,0.0,0.0,0.0,0.0,0.0,0.0,0.0,0.0,0.0,0.0,0.0,0.0,0.0,1.6522,1.6522,1.6522,1.6522,1.6522,1.6522,1.6522,1.6522,1.6522,1.6522,1.6134,1.5428,1.6086,1.6373,1.6345,1.7005,1.7357,1.7357,1.8112,1.8004,1.7413,1.8608,1.8821,0.0,0.0,0.0,0.0,0.0,0.0,0.0,0.0,1.9798,1.9798,1.9798,1.9798,1.9798,1.9798,1.9798,2.0049,2.1179,2.1895,2.2447,2.3,2.3401,2.3752,2.3925,2.4243,2.4553,2.4747,2.5766,2.6753,2.7092,2.8084,2.8976,2.9402,2.9465,2.9729,3.0507,3.0143,2.9993,3.0557,3.0131,3.0131,3.1009,3.062,3.0394,3.0595,3.0419,3.0244,3.0118,2.9905,3.0043,3.0595,3.0281,3.052,3.1386,3.1072,3.0972,3.1097,3.0884,3.062,3.0306,3.0306,3.0118,2.9792,2.9792,2.9792,2.9792,2.9792,2.9792,2.9792,2.9792,2.9792,2.9792,2.9792,2.9792,2.9714,0.0,0.0,0.0,0.0,0.0,0.0,0.0,0.0,0.0,0.0,0.0,0.0,0.0,0.0,0.0,0.0,0.0,0.0,1.6466,1.6522,1.6522,1.6522,1.6522,1.6522,1.6522,1.6522,1.6522,1.6522,1.6697,1.6266,1.533,1.5936,1.6059,1.5758,1.6283,1.6492,1.6539,1.7302,1.7191,1.6595,1.7852,1.8058,0.0,0.0,0.0,0.0,0.0,0.0,0.0,0.0,1.9798,1.9773,1.961,1.9673,1.9773,1.961,1.9798,2.0275,2.123,2.1895,2.2447,2.3,2.3565,2.4079,2.4416,2.4773,2.5149,2.5519,2.6526,2.7444,2.8009,2.8737,2.9377,2.9729,2.9792,2.998,3.0532,3.0143,2.993,3.0306,3.0018,3.008,3.0821,3.057,3.0357,3.0357,3.0357,3.0193,2.9817,2.9792,2.9799,2.9819,2.9473,2.9462,2.9849,3.0003,3.0264,3.061,3.1135,3.1122,3.0608,3.0432,3.0143,2.9792,2.9792,2.9792,2.9792,2.9792,2.9792,2.9792,2.9365,2.9275,2.9275,2.9275,2.9275,2.9118,0.0,0.0,0.0,0.0,0.0,0.0,0.0,0.0,0.0,0.0,0.0,0.0,0.0,0.0,0.0,0.0,0.0,0.0,1.6479,1.6479,1.6466,1.6522,1.6522,1.6522,1.6522,1.6522,1.6479,1.6479,1.7099,1.6699,1.5304,1.6332,1.647,1.5911,1.6329,1.6492,1.6539,1.7246,1.7146,1.6539,1.7302,1.7578,1.7688,0.0,0.0,0.0,0.0,0.0,0.0,0.0,1.9798,1.971,1.9196,1.9384,1.9698,1.9183,1.9811,2.0832,2.1343,2.1895,2.2447,2.294,2.359,2.4268,2.5365,2.5576,2.5949,2.7094,2.7293,2.7457,2.8009,2.8109,2.8486,2.9603,2.9792,2.998,3.0532,3.0131,2.9792,2.9792,2.9792,2.9792,2.9792,2.9792,2.9792,2.9792,2.9792,2.9792,2.9792,2.9792,2.9275,2.8096,2.8084,2.7602,2.6472,2.8117,2.8869,2.8869,3.0597,3.111,3.0595,3.0043,2.9792,2.9792,2.9792,2.9792,2.9792,2.9792,2.9792,2.9702,2.8518,2.8096,2.8096,2.8096,2.8096,2.8096,0.0,0.0,0.0,0.0,0.0,0.0,0.0,0.0,0.0,0.0,0.0,0.0,0.0,0.0,0.0,0.0,0.0,0.0,1.582,1.5864,1.6051,1.6466,1.6522,1.6522,1.6522,1.6923,1.6734,1.5864,1.6908,1.6645,1.518,1.6302,1.6331,1.5558,1.5688,1.5748,1.5748,1.5968,1.5921,1.5806,1.6539,1.681,1.6978,0.0,0.0,0.0,0.0,0.0,0.0,0.0,0.0,0.0,1.9623,1.9673,1.9773,1.9623,1.9798,2.0275,2.123,2.1895,2.2535,2.3502,2.4443,2.5297,2.6068,2.5925,2.6046,2.757,2.784,2.8062,2.8549,2.9013,2.9264,2.9202,2.9528,2.9854,3.0018,2.9892,2.9792,2.9792,2.9792,2.9792,2.9792,2.9792,2.9792,2.9792,2.9028,2.8597,2.8597,2.7879,2.7302,2.6964,2.6953,2.6801,2.6483,2.7383,2.779,2.779,2.8286,2.9224,3.0608,3.0444,3.0168,2.9792,2.9792,2.9792,2.9714,2.8937,2.8597,2.8518,2.7371,2.7452,2.8016,2.729,2.7452,2.7844,0.0,0.0,0.0,0.0,0.0,0.0,0.0,0.0,0.0,0.0,1.3647,0.0,0.0,0.0,0.0,0.0,0.0,0.0,0.0,1.607,1.6483,1.6861,1.7074,1.7187,1.7187,1.7526,1.7343,1.6654,1.7554,1.7388,1.6221,1.6802,1.6643,1.5806,1.5526,1.541,1.541,1.541,1.541,1.541,1.5864,1.6036,1.6197,0.0,0.0,0.0,0.0,0.0,0.0,0.0,0.0,0.0,1.9798,1.9962,2.01,1.9874,2.0275,2.0903,2.1355,2.2221,2.315,2.3828,2.4983,2.6083,2.6661,2.6884,2.7271,2.8543,2.8612,2.8583,2.9139,2.9365,2.9415,2.9289,2.9566,2.9792,2.9792,2.9792,2.9624,2.9197,2.9106,2.8949,2.8542,2.8858,2.8949,2.8542,2.8267,2.7924,2.7533,2.6883,2.6307,2.5808,2.5797,2.5641,2.5147,2.5923,2.6319,2.6319,2.6752,2.7681,2.8943,2.8943,2.8763,2.8542,2.8949,2.887,2.8462,2.8187,2.7844,2.736,2.6213,2.6202,2.6685,2.6047,2.6202,2.6603,0.0,0.0,0.0,0.0,0.0,0.0,0.0,0.0,0.0,0.0,1.3967,1.4468,0.0,0.0,0.0,0.0,0.0,0.0,0.0,0.0,1.7285,1.7375,1.7903,1.8204,1.8204,1.8254,1.8279,1.8279,1.8781,1.8597,1.7788,1.7668,1.7191,1.6379,1.569,1.541,1.541,1.541,1.541,1.541,1.5468,1.5526,1.5633,1.7135,0.0,0.0,0.0,0.0,0.0,0.0,0.0,0.0,1.9924,2.025,2.0542,2.0024,2.0966,2.2071,2.1606,2.2673,2.3941,2.4054,2.531,2.6702,2.7324,2.8213,2.9076,2.9539,2.9212,2.9049,2.9704,2.9276,2.9012,2.9704,2.9792,2.9792,2.9792,2.9702,2.9275,2.8255,2.8004,2.7602,2.6554,2.736,2.7522,2.6554,2.7279,2.736,2.6389,2.6224,2.5724,2.4713,2.4628,2.4125,2.3135,2.4125,2.4628,2.4617,2.5724,2.6224,2.6224,2.6389,2.6483,2.6554,2.7522,2.736,2.6565,2.7441,2.7197,2.6224,2.5126,2.4702,2.4787,2.4702,2.4702,2.4787,0.0,0.0,0.0,0.0,0.0,0.0,0.0,0.0,0.0,0.0,0.0,0.0,0.0,0.0,0.0,0.0,0.0,0.0,0.0,0.0,1.6361,1.7375,1.7903,1.8204,1.8204,1.8631,1.8844,1.8844,1.892,1.8333,1.7062,1.7398,1.6912,1.5633,1.5468,1.541,1.541,1.541,1.541,1.5468,1.6036,1.6265,1.6425,1.7895,1.8436,0.0,0.0,0.0,0.0,0.0,0.0,0.0,2.084,2.0602,2.0049,2.0388,2.074,2.1091,2.1405,2.2385,2.354,2.4418,2.5887,2.7398,2.8309,2.8737,2.8825,2.85,2.839,2.8587,2.9584,2.8929,2.8633,2.9599,2.9792,2.9792,2.9792,2.9028,2.8347,2.8096,2.7371,2.6719,2.6554,2.6719,2.6719,2.6483,2.588,2.5452,2.521,2.4307,2.3724,2.3464,2.3464,2.3387,2.3135,2.3299,2.3464,2.3464,2.3724,2.381,2.3887,2.5641,2.6483,2.6472,2.6719,2.6719,2.6472,2.5786,2.5368,2.5041,2.3877,2.4049,2.4702,2.38,2.4049,2.4702,0.0,0.0,0.0,0.0,0.0,0.0,0.0,0.0,0.0,0.0,0.0,0.0,0.0,0.0,0.0,0.0,0.0,0.0,0.0,0.0,1.7303,1.8518,1.8819,1.897,1.897,1.9246,1.9397,1.9397,1.9397,1.88,1.7732,1.7619,1.7024,1.5921,1.5584,1.5584,1.5921,1.5921,1.5921,1.5979,1.6379,1.6322,1.614,1.7622,1.8167,1.834,1.9423,0.0,0.0,0.0,0.0,0.0,0.0,0.0,2.0614,2.0706,2.123,2.1794,2.1556,2.2686,2.428,2.5661,2.664,2.7473,2.8338,2.8724,2.8836,2.8509,2.8753,2.9107,2.9658,2.9278,2.8937,2.8937,2.9028,2.8779,2.8291,2.7706,2.7116,2.6603,2.6036,2.5473,2.4893,2.5389,2.5473,2.4893,2.4798,2.4542,2.4049,2.3377,2.3135,2.3135,2.3135,2.3135,2.3135,2.3135,2.3135,2.3135,2.3135,2.3135,2.3135,2.4307,2.4893,2.4893,2.5473,2.5389,2.4893,2.4798,2.4457,2.3963,2.3299,2.3464,2.3877,2.3299,2.3464,2.3877,0.0,0.0,0.0,0.0,0.0,0.0,0.0,0.0,0.0,0.0,0.0,0.0,0.0,0.0,0.0,0.0,0.0,0.0,0.0,0.0,0.0,1.9748,1.9798,1.9798,1.9798,1.9798,1.9798,1.9798,1.9798,1.9423,1.8715,1.8058,1.7246,1.6322,1.5806,1.5921,1.6492,1.6492,1.6539,1.6708,1.681,1.6528,1.613,1.7457,1.7895,1.7961,1.915,1.9592,1.9656,1.9756,0.0,0.0,0.0,0.0,2.1129,2.0819,2.1631,2.251,2.1594,2.2987,2.5059,2.6603,2.7067,2.7281,2.7833,2.8338,2.8623,2.875,2.9187,2.951,2.948,2.9383,2.8919,2.7947,2.7844,2.7522,2.6637,2.6307,2.5891,2.4872,2.4628,2.4125,2.3222,2.3963,2.4125,2.3135,2.3963,2.4125,2.3135,2.3135,2.3135,2.3135,2.3135,2.3135,2.3135,2.3135,2.3135,2.3135,2.3135,2.3135,2.3135,2.3135,2.3135,2.3135,2.4135,2.3963,2.3135,2.4125,2.3963,2.3135,2.3135,2.3135,2.3135,2.3135,2.3135,2.3135,0.0,0.0,0.0,0.0,0.0,0.0,0.0,0.0,0.0,0.0,1.5096,1.5688,0.0,0.0,0.0,0.0,0.0,0.0,1.6337,0.0,0.0,1.9748,1.9798,1.9798,1.9798,1.9798,1.9798,1.9798,1.9798,1.9423,1.8715,1.8608,1.7457,1.5584,1.6093,1.6436,1.6492,1.6492,1.6866,1.7523,1.8167,1.8328,1.8328,1.9202,1.9097,1.8555,1.8768,1.8874,1.8946,1.9425,1.9711,0.0,0.0,0.0,2.0112,2.0592,2.0869,2.0966,2.0869,2.241,2.4381,2.5536,2.6201,2.6716,2.7268,2.7468,2.7619,2.8089,2.824,2.8315,2.8312,2.7591,2.6896,2.6753,2.6719,2.6637,2.6554,2.563,2.4957,2.4787,2.3963,2.3299,2.3135,2.3222,2.3299,2.3135,2.3222,2.3222,2.3135,2.3135,2.3135,2.3135,2.3135,2.3135,2.3135,2.3135,2.3135,2.3135,2.3135,2.3135,2.3135,2.3135,2.3135,2.3135,2.3222,2.3222,2.3135,2.3299,2.3222,2.3135,2.3135,2.3135,2.3135,2.3135,2.3135,2.3135,0.0,0.0,0.0,0.0,0.0,0.0,0.0,0.0,0.0,0.0,0.0,1.5466,0.0,0.0,0.0,1.6522,1.6238,1.6374,1.6974,1.7752,1.8555,1.9334,1.9648,1.9798,1.9798,1.9798,1.9798,1.9798,1.9798,1.9423,1.8715,1.915,1.8382,1.6631,1.6539,1.6978,1.7688,1.7302,1.7523,1.8221,1.8555,1.8221,1.7578,1.8768,1.8447,1.7633,1.8874,1.8768,1.8213,1.888,1.8863,1.8744,1.9655,0.0,0.0,0.0,2.0627,2.1255,2.1882,2.2761,2.3853,2.5247,2.5787,2.6126,2.6691,2.7082,2.7366,2.7599,2.8127,2.8248,2.7416,2.7359,2.6842,2.5087,2.5027,2.5002,2.4347,2.3852,2.3604,2.3856,2.3387,2.3135,2.3135,2.3135,2.3135,2.3135,2.3135,2.3135,2.3135,2.3135,2.3135,2.3135,2.3135,2.3135,2.3135,2.3135,2.3135,2.3135,2.3135,2.3135,2.3135,2.3135,2.3135,2.3135,2.3135,2.3135,2.3135,2.3135,2.3135,2.3135,2.3135,2.3135,2.3135,2.3135,2.3135,2.3135,0.0,0.0,0.0,0.0,0.0,0.0,0.0,0.0,0.0,0.0,0.0,0.0,0.0,0.0,0.0,0.0,1.6522,1.676,1.735,1.7903,1.8455,1.8958,1.9522,1.9798,1.9798,1.9798,1.9798,1.9798,1.9798,1.9527,1.8992,1.9527,1.9202,1.8124,1.7413,1.7578,1.8382,1.7841,1.8112,1.898,1.8768,1.8058,1.7202,1.8274,1.7895,1.6978,1.8661,1.8472,1.7574,1.8186,1.7978,1.7574,1.8186,1.8717,0.0,0.0,0.0,2.0977,2.1931,2.2533,2.3251,2.4632,2.5285,2.5711,2.6138,2.6666,2.7075,2.71,2.7831,2.8003,2.6481,2.6952,2.6554,2.3566,2.3412,2.3308,2.2438,2.2353,2.2471,2.2783,2.2822,2.2822,2.2822,2.2822,2.2861,2.2969,2.2881,2.291,2.3125,2.3037,2.3027,2.3135,2.3135,2.3135,2.3135,2.3135,2.3135,2.3135,2.3135,2.3135,2.3135,2.3135,2.3135,2.3135,2.3135,2.3135,2.3135,2.3135,2.3135,2.3135,2.3135,2.3135,2.3135,2.3135,2.3135,2.3135,0.0,0.0,0.0,0.0,0.0,0.0,0.0,0.0,0.0,0.0,0.0,0.0,1.5632,1.6151,1.6522,1.6522,1.6522,1.676,1.735,1.7903,1.8455,1.8958,1.9522,0.0,1.9798,1.9798,1.9798,1.9798,1.9798,1.9798,1.9747,1.9798,1.9747,1.9643,1.8927,1.8221,1.7633,1.7633,1.8447,1.9695,1.8992,1.8661,1.8608,1.8661,1.8232,1.7578,1.7688,1.745,1.7081,1.7531,1.7384,1.7081,1.7542,1.7699,1.7722,0.0,0.0,0.0,1.961,2.1023,2.2498,2.3053,2.4443,2.5598,2.5636,2.6088,2.6559,2.6546,2.6967,2.6873,2.5397,2.5501,2.5092,2.2399,2.2031,2.1997,2.1914,2.1924,2.1924,2.1953,2.1953,2.1953,2.1953,2.1953,2.2119,2.251,2.2178,2.2295,2.3096,2.2764,2.2734,2.3125,2.3135,2.3135,2.3135,2.3135,2.3135,2.3135,2.3135,2.3135,2.3135,2.3135,2.3135,2.3135,2.3135,2.3135,2.3135,2.3135,2.3135,2.3135,2.3135,2.3135,2.3135,2.3135,2.3135,2.3135,0.0,0.0,0.0,0.0,0.0,0.0,0.0,0.0,0.0,0.0,0.0,0.0,0.0,1.638,1.6522,1.6522,1.6522,1.6609,1.681,1.7363,1.7928,1.848,1.902,1.9459,1.9798,1.9798,1.9798,1.9798,1.9472,1.9472,1.9798,1.9459,1.9218,1.9097,1.8821,1.8555,1.8286,1.8286,1.8608,1.9097,1.8821,1.8447,1.8004,1.8004,1.7523,1.7034,1.795,1.7901,1.7409,1.7577,1.7192,1.6708,1.6869,1.7202,1.7677,1.8178,1.8167,1.8228,1.9325,2.033,2.1394,2.278,2.3853,2.4657,2.5021,2.5523,2.59,2.59,2.665,2.6634,2.4469,2.4694,2.4604,2.2366,2.167,2.1465,2.1465,2.1465,2.1572,2.1846,2.1885,2.1885,2.1885,2.1885,2.1953,2.21,2.1973,2.2021,2.2314,2.2197,2.2178,2.2334,2.2598,2.2734,2.2734,2.2734,2.2734,2.2744,2.3008,2.3135,2.3135,2.3135,2.3135,2.3135,2.3135,2.3135,2.3135,2.3135,2.3135,2.3135,2.3135,2.3135,2.3135,2.3135,2.3135,2.3135,0.0,0.0,0.0,0.0,0.0,0.0,0.0,0.0,0.0,1.5832,0.0,0.0,0.0,0.0,1.6522,1.6522,1.6522,1.6522,1.6522,1.7061,1.7626,1.8179,1.8731,1.9271,1.9798,1.9798,1.9798,1.9798,1.9459,1.9371,1.9535,1.9359,1.8953,1.8465,1.8907,1.8768,1.834,1.8608,1.8555,1.8328,1.8608,1.8286,1.7633,1.7841,1.7688,1.7379,1.8592,1.8383,1.7655,1.7823,1.7108,1.6151,1.6151,1.6472,1.6903,1.7111,1.7079,1.7236,1.8121,1.8925,1.9977,2.1758,2.2775,2.3455,2.4011,2.4751,2.5269,2.4979,2.5732,2.597,2.4486,2.4241,2.3644,2.1811,2.1221,2.1016,2.1016,2.1016,2.1113,2.1406,2.1445,2.1445,2.1445,2.1445,2.1504,2.165,2.1523,0.0,2.1865,2.1748,2.1738,2.1885,2.2295,2.251,2.251,2.2656,2.2725,2.2725,2.3008,2.3135,2.3135,2.3135,2.3135,2.3135,2.3135,2.3135,2.3135,2.3135,2.3135,2.3135,2.3135,2.3135,2.3135,2.3135,2.3135,2.3135,0.0,0.0,0.0,0.0,0.0,0.0,0.0,0.0,1.5365,1.4846,0.0,0.0,0.0,0.0,0.0,1.6522,1.6534,1.6547,1.6547,1.7074,1.7639,1.8204,1.8731,1.9246,1.9798,1.9798,1.9798,1.9773,1.9773,1.951,1.902,1.9535,1.9115,1.8017,1.9228,1.898,1.7665,1.8382,1.8286,1.7677,1.8394,1.8286,1.7699,1.8394,1.8673,1.8768,1.9345,1.8695,1.769,1.8306,1.7111,1.542,1.54,1.5391,1.5225,1.4385,1.4955,1.5879,0.0,0.0,0.0,1.992,2.1117,2.2085,2.2559,2.3692,2.4499,2.3622,2.4147,2.4921,2.5426,2.392,2.2218,2.0787,2.0634,2.0566,2.0566,2.0566,2.0566,2.0566,2.0566,2.0566,2.0566,2.0566,2.0742,2.1182,2.081,2.0937,2.1797,2.1445,2.1416,2.1846,2.2246,2.2461,2.2471,2.2881,2.3076,2.3076,2.3096,2.3105,2.3125,2.3125,2.3125,2.3135,2.3135,2.3135,2.3135,2.3135,2.3135,2.3135,2.3135,2.3135,2.3135,2.3135,2.3135,2.3135,0.0,0.0,0.0,0.0,0.0,1.342,1.4329,1.4744,1.5197,0.0,0.0,0.0,1.6281,1.638,1.6522,1.6522,1.6898,1.7137,1.7137,1.73,1.7802,1.8756,1.8568,1.8857,1.9786,1.9798,1.9623,1.9246,1.9246,1.897,1.8442,1.8982,1.9058,1.8722,1.9458,1.9047,1.7908,1.9031,1.8768,1.7677,1.8394,1.8507,1.8148,1.7389,1.7912,1.8907,1.8115,1.817,1.8475,1.8094,1.742,1.6578,1.5966,1.5381,1.4956,1.4899,1.4999,1.52,1.5781,0.0,0.0,0.0,0.0,0.0,2.1523,2.2185,2.2742,2.2858,2.3182,2.335,2.3043,2.2329,2.1533,2.0703,2.0569,2.0566,2.0566,2.0566,2.0566,2.0566,2.0566,2.0566,2.0566,2.0566,2.0615,0.0,2.0635,2.0674,2.0918,2.082,2.0957,2.1396,2.1211,2.126,2.1582,2.1699,2.1758,2.1768,2.208,2.2393,2.2685,2.2685,2.2852,2.3135,2.3135,2.3135,2.3135,2.3135,2.3135,2.3135,2.3135,2.3135,2.3135,2.3135,2.3135,2.3135,0.0,0.0,0.0,0.0,0.0,1.3515,1.4247,1.4732,1.5332,0.0,0.0,0.0,1.6522,1.6522,1.6522,1.6522,1.7049,1.7388,1.7388,1.7601,1.8116,1.8933,1.8719,1.8945,1.9786,1.9798,1.9547,1.8983,1.8983,1.8744,1.8216,1.8769,1.8859,1.8559,1.9407,1.9064,1.7954,1.9018,1.8614,1.7396,1.8631,1.9102,1.8872,1.8002,1.8486,1.9456,1.8616,1.8326,1.8412,1.8196,1.7533,1.6644,1.591,1.5425,1.4995,1.4601,1.4663,1.4848,1.5077,1.571,1.6576,1.7767,0.0,0.0,2.0,2.0634,2.1128,2.124,2.1609,2.1925,2.1776,2.1228,2.0757,2.0705,2.0505,2.0436,2.0883,2.0589,2.0505,2.1135,2.0867,2.0566,2.0566,2.0566,2.0566,2.0566,2.0566,2.0566,2.0566,2.0566,2.0684,2.0947,2.0889,2.0967,2.123,2.1416,2.1504,2.1514,2.1768,2.2012,2.2256,2.2432,2.2646,2.2891,2.3066,2.3135,2.3135,2.3135,2.3135,2.3135,2.3135,2.3135,2.3135,2.3135,2.3135,2.3135,0.0,0.0,1.2929,1.2968,1.342,1.3862,1.4003,1.4858,1.5543,0.0,1.6194,1.6522,1.6522,1.6522,1.6547,1.6609,1.7137,1.7501,1.7564,1.8028,1.8543,1.9095,1.8945,1.9208,1.9798,1.9685,1.9422,1.8983,1.892,1.8656,1.8129,1.8744,1.861,1.7984,1.9205,1.9041,1.796,1.861,1.8148,1.7122,1.9022,1.9703,1.9591,1.9403,1.9688,2.0077,1.9694,1.8814,1.7885,1.83,1.7458,1.6184,1.5586,1.541,1.5166,1.3936,1.415,1.4697,1.4307,1.4521,1.5256,1.6763,1.7254,0.0,1.8312,1.9065,1.9519,1.9242,1.9738,2.0435,2.1011,2.0387,1.9944,2.069,2.0247,2.0172,2.1125,2.0606,2.0562,2.1694,2.1181,2.0643,2.0488,2.0498,2.0498,2.0498,2.0537,2.0566,2.0566,2.0566,2.0566,2.0566,2.0947,2.1162,2.1162,2.1543,2.1738,2.1738,2.1738,2.1787,2.1894,2.2275,2.249,2.2607,2.2978,2.3135,2.3135,2.3135,2.3135,2.3135,2.3135,2.3135,2.3135,2.3135,2.3135,2.3135,0.0,1.2881,1.3065,1.3552,1.3732,1.4133,1.5084,1.505,1.5242,1.6194,1.6423,1.6522,1.6522,1.6522,1.671,1.7174,1.7727,1.8229,1.8681,1.8807,1.9095,1.9623,1.8832,1.8819,1.9786,1.8957,1.8681,1.8983,1.8581,1.8078,1.7564,1.8555,1.8684,1.8175,1.8833,1.8771,1.8151,1.8307,1.8211,1.8031,1.9308,1.9703,1.9571,1.9287,1.9448,1.9633,1.834,1.7925,1.7905,1.7714,1.7386,1.6924,1.5771,1.541,1.5225,1.4287,1.4375,1.4766,1.4678,1.4971,1.539,1.5722,1.6226,0.0,1.7476,1.7673,1.7821,1.8164,1.8417,1.8667,1.9046,1.8994,1.9213,2.0455,1.9959,1.9599,2.0118,2.1008,2.1425,2.0924,2.1059,2.091,2.0115,2.0039,2.0039,2.0039,2.0361,2.0566,2.0566,2.0566,2.0566,2.0566,2.0654,2.0693,2.0693,2.0781,2.082,2.082,2.082,2.1201,2.1885,2.1973,2.2373,2.3018,2.3105,2.3135,2.3135,2.3135,2.3135,2.3135,2.3135,2.3135,2.3135,2.3135,2.3135,2.3135,1.2881,1.2881,1.3027,1.3286,1.3826,1.4457,1.505,1.5421,1.5832,1.6423,1.6522,1.6522,1.6522,1.6773,1.7061,1.735,1.8141,1.8731,1.8958,1.9271,1.9522,1.9798,1.9284,1.9133,1.9409,1.9145,1.8882,1.8618,1.8342,1.8066,1.7802,1.8078,1.8204,1.8216,1.8493,1.8304,1.779,1.779,1.779,1.789,1.8982,1.9691,2.0068,1.9457,1.9516,1.9761,1.8145,1.7641,1.7666,1.7451,1.7236,1.6982,1.6533,1.6094,1.5605,1.4961,1.5078,1.5332,1.4902,1.5088,1.541,1.541,1.569,0.0,0.0,1.682,1.7062,1.7579,1.771,1.7841,1.8241,1.8115,1.8299,1.9158,1.9093,1.9271,2.024,2.1275,2.2172,2.2733,2.2137,2.1468,2.1039,2.0529,2.0244,2.0244,2.0439,2.0469,2.0254,2.0244,2.0244,2.0244,2.0039,2.0137,2.0634,2.0352,2.0352,2.0566,2.0566,2.0801,2.124,2.1689,2.2119,2.2539,2.2959,2.3135,2.3125,2.291,2.2822,2.2852,2.3057,2.2881,2.2568,2.2988,2.3008,2.2852,1.2881,1.2881,1.2929,1.3065,1.3978,1.4744,1.488,1.57,1.6337,1.6337,1.6423,1.6522,1.6522,1.6936,1.7262,1.7375,1.8191,1.8794,1.902,1.9422,1.966,1.966,1.966,1.9459,1.8983,1.9334,1.9171,1.8518,1.8204,1.8103,1.8191,1.7639,1.7614,1.8053,1.8053,1.7852,1.7539,1.7426,1.7501,1.7777,1.8668,1.956,2.0323,1.9768,1.9743,1.9854,1.8468,1.7852,1.7615,1.7656,1.7382,1.7129,1.7436,1.7056,1.6317,1.5791,1.5831,1.5958,1.5117,1.5156,1.541,1.541,1.5478,1.5625,0.0,0.0,0.0,1.7187,1.7324,1.749,1.7822,1.7654,1.7603,1.817,1.8445,1.918,2.0776,2.1745,2.2937,2.4647,2.3329,2.22,2.2017,2.1375,2.0934,2.0857,2.1168,2.0978,2.0157,2.0202,2.0163,2.0009,1.9536,1.9619,2.0312,2.0049,2.0088,2.0439,2.0527,2.0605,2.0713,2.1435,2.1846,2.2041,2.2725,2.3018,2.2988,2.2656,2.2412,2.2305,2.2734,2.248,2.1982,2.2744,2.2803,2.2578,1.2881,1.2881,1.3065,1.3589,1.4236,1.488,1.541,1.5588,1.572,1.572,1.6194,1.6522,1.6522,1.6572,1.6823,1.7338,1.7501,1.799,1.897,1.9083,1.912,1.912,1.912,1.9033,1.8983,1.8606,1.8794,1.9623,1.8179,1.7727,1.8191,1.7639,1.7413,1.7476,1.7476,1.7714,1.8078,1.7589,1.7953,1.8857,1.8933,1.9058,1.9271,1.9901,1.9826,1.943,1.8944,1.8569,1.8426,1.8668,1.8529,1.828,1.8219,1.7948,1.7429,1.6628,1.6244,1.6017,1.5469,1.5381,1.541,1.541,1.5703,1.6006,1.6115,0.0,1.6748,1.6797,0.0,1.7402,1.7451,0.0,0.0,1.8975,1.8865,1.9359,2.1528,2.2682,2.3571,2.4306,2.3733,2.3052,2.2254,2.2048,2.1973,2.1886,2.3091,2.3015,2.1177,2.1136,2.1032,2.0554,1.9733,1.9336,1.9434,1.9756,1.9941,1.999,2.0381,2.0771,2.1162,2.126,2.1719,2.2441,2.2539,2.2578,2.2578,2.2529,2.206,2.1426,2.1855,2.1973,2.1943,2.2412,2.2549,2.2578,1.2881,1.2881,1.2968,1.3238,1.4061,1.4789,1.5062,1.5688,1.6139,1.6139,1.6666,1.7024,1.7024,1.7589,1.794,1.7865,1.8154,1.853,1.8945,1.8983,1.9171,1.9459,1.9472,1.9334,1.8983,1.9095,1.9208,1.9359,1.8355,1.7978,1.8191,1.73,1.6886,1.6886,1.6886,1.72,1.7714,1.7488,1.784,1.8606,1.9221,1.9296,1.9083,1.9744,1.9576,1.901,1.9124,1.8868,1.8414,1.8769,1.8885,1.8855,1.9077,1.9066,1.8848,1.7973,1.7636,1.7327,1.6147,1.5977,1.6113,1.585,1.5928,1.6125,1.6125,1.6406,1.6665,1.6665,0.0,0.0,0.0,0.0,0.0,0.0,1.8374,1.8859,2.0629,2.0962,2.172,2.3615,2.4165,0.0,2.304,2.2414,2.1922,2.166,2.2179,2.1671,1.9767,2.0463,2.0596,1.9847,1.9495,1.9404,1.9648,1.958,1.9678,1.9912,2.0098,2.042,2.0859,2.1113,2.1435,2.1787,2.2041,2.2148,2.2129,2.1875,2.1562,2.123,2.1152,2.1279,2.1621,2.2539,2.2725,2.2539,1.2881,1.2881,1.2881,1.2881,1.3884,1.4789,1.5152,1.5788,1.6386,1.6679,1.7124,1.7438,1.7589,1.8317,1.8643,1.8242,1.843,1.8643,1.8794,1.8807,1.897,1.9346,1.9648,1.956,1.8983,1.9535,1.9623,1.9246,1.8543,1.8204,1.8179,1.7049,1.6522,1.6522,1.6685,1.7074,1.7614,1.7765,1.8141,1.8706,1.9497,1.9572,1.9284,1.966,1.9475,1.904,1.9372,1.9104,1.8635,1.9023,1.9136,0.0,1.9803,1.9829,1.9516,1.8908,1.8501,1.8004,1.6631,1.6396,1.6475,1.6143,1.6125,1.6154,1.6221,1.6494,1.6797,1.7031,1.7246,0.0,0.0,0.0,1.7504,1.792,0.0,1.8281,1.9661,1.9703,2.0597,2.3591,2.4681,2.5004,0.0,2.3553,2.2785,2.2197,2.2263,2.1421,1.9422,2.0151,2.0215,1.9353,1.9305,1.9316,1.9394,1.9326,1.9443,1.9746,1.9853,2.0146,2.0576,2.0898,2.1123,2.125,2.1572,2.1709,2.168,2.1367,2.1162,2.1025,2.083,2.0947,2.1348,2.2275,2.2422,2.2178,1.2881,1.2881,1.2881,1.2881,1.3884,1.5107,1.625,1.5964,1.6058,1.723,1.7375,1.7589,1.8129,1.8216,1.8229,1.8204,1.7739,1.7664,1.8191,1.8229,1.8242,1.8254,1.9246,1.956,1.8983,1.9535,1.9798,1.9773,1.8719,1.8204,1.8179,1.7049,1.6522,1.6547,1.7099,1.7664,1.8216,1.8744,1.9284,1.9748,1.9786,1.9798,1.9773,1.9798,1.9798,1.9747,1.9772,1.9621,0.0,1.9698,1.9604,0.0,0.0,0.0,1.8944,1.9063,1.8333,1.735,1.6836,1.6406,1.6145,1.6125,1.6125,1.6172,1.6611,1.6719,1.6973,1.7803,1.7656,1.751,1.793,1.7648,1.7532,1.7959,1.7648,0.0,0.0,1.9786,2.1377,2.472,2.5493,2.5973,2.6352,2.5948,2.523,2.4164,2.4683,2.3921,2.1252,2.0909,2.0344,1.9306,1.9334,1.8896,1.8076,1.8877,1.9297,1.9307,1.9717,2.0146,2.0566,2.0576,2.082,2.123,2.125,2.126,2.125,2.124,2.0977,2.0625,2.1045,2.1221,2.124,2.1279,2.1289,2.1338,1.2939,1.2881,1.2881,1.2881,1.3563,1.4614,1.62,1.6226,1.6654,1.8246,1.8154,1.8267,1.9158,1.9258,1.9133,1.8781,1.8581,1.8555,1.8744,1.8744,1.8907,1.9246,1.961,1.9723,1.9547,1.971,1.9798,1.9798,1.8731,1.8204,1.8179,1.7049,1.6522,1.6547,1.7124,1.7689,1.8242,1.8745,1.9334,1.9798,1.9798,2.0037,2.0326,1.9949,1.9798,1.9798,1.9798,1.9756,0.0,1.9758,2.0254,2.0847,2.1149,2.1061,2.0769,2.0274,1.9394,1.8471,0.0,0.0,1.7285,1.7002,0.0,1.6973,1.7129,1.6943,1.6894,1.748,1.748,1.751,1.793,1.791,1.7833,1.8008,1.791,1.793,0.0,1.9428,2.0492,2.1658,2.2419,2.3335,2.4385,2.3514,2.265,2.2022,2.211,2.1636,2.0557,2.0846,2.0841,2.0302,1.9905,1.9287,1.8437,1.8711,1.8857,1.8857,1.8994,1.9443,2.0137,2.0137,2.0381,2.0791,2.0791,2.0791,2.0791,2.0791,2.0703,2.0576,2.0732,2.0791,2.0859,2.1445,2.167,2.1641,1.3154,1.2988,1.293,1.3076,1.3551,1.4552,1.635,1.6584,1.7118,1.8784,1.8882,1.9032,1.9723,1.9798,1.966,1.9334,1.9133,1.8983,1.8983,1.8983,1.9171,1.951,1.971,1.9798,1.9798,1.9798,1.9695,1.9423,1.8772,1.8336,1.8044,1.7202,1.6923,1.7137,1.7501,1.7978,1.853,1.9083,1.9497,1.9798,1.9798,2.0024,2.0326,1.9936,1.9798,1.9798,0.0,1.9798,1.9798,1.9798,2.0426,2.123,2.143,2.1316,2.1058,2.0726,1.9748,1.866,1.7876,1.7695,0.0,1.7451,1.7266,0.0,1.7344,1.7051,1.6894,1.749,1.749,1.751,1.793,1.8008,1.8008,1.8008,1.8008,1.8008,0.0,1.8901,1.9589,1.9589,2.0794,2.2012,2.2965,2.2221,2.1485,2.1021,2.0642,2.0296,2.006,2.0349,2.041,2.0278,2.0058,1.958,1.8877,1.8711,1.8711,1.8867,1.8711,1.9004,1.9697,1.9697,1.9844,2.0117,2.0117,2.0195,2.0332,2.0332,2.042,2.0566,2.0566,2.0566,2.0635,2.1211,2.1416,2.1377,1.3545,1.3232,1.3096,1.3506,1.3896,1.4767,1.6738,1.7014,1.7462,1.8846,1.9434,1.9786,1.9836,1.9823,1.9798,1.9798,1.9346,1.907,1.907,1.9021,1.9008,1.9021,1.9484,1.9747,1.9798,1.9747,1.9423,1.8715,1.8804,1.8534,1.7906,1.7562,1.7702,1.8204,1.8229,1.853,1.9008,1.9572,1.9798,1.9798,1.9798,1.9798,1.9798,1.9798,1.9798,1.9798,1.9798,1.9823,1.9836,1.9811,2.0225,2.0882,2.133,2.0665,1.9827,2.0445,1.9365,1.8008,1.8008,1.7715,1.7412,1.7412,1.71,0.0,0.0,0.0,1.7002,1.7842,1.7676,1.751,1.793,1.8008,1.8008,1.8008,1.8008,1.8008,1.8008,1.835,1.8533,1.8533,2.0605,2.2002,2.2047,2.2036,2.1823,2.1286,2.0525,1.9981,1.9902,1.9544,1.9297,1.933,1.9658,1.9668,1.9228,1.8818,1.8818,1.9219,1.8799,1.8828,1.9258,1.9258,1.9268,1.9287,1.9287,1.9512,1.9883,1.9902,2.0156,2.0537,2.0557,2.0566,2.0566,2.0566,2.0566,2.0566,1.398,1.415,1.4326,1.4434,1.4541,1.4984,1.6073,1.6552,1.7493,1.9198,1.9327,1.9535,2.0351,2.0062,1.9798,1.9798,1.9673,1.9597,1.9597,1.9059,1.9007,1.9546,1.9193,1.9254,1.9798,1.9254,1.8874,1.8715,1.7775,1.7531,1.7867,1.7423,1.7543,1.8229,1.8631,1.8808,1.8821,1.9509,1.9798,1.9798,1.9798,1.9798,1.9798,0.0,1.9798,1.9798,1.9798,2.0152,2.0545,1.9962,2.0727,2.1845,2.1568,2.0986,2.0422,2.0546,1.9365,1.8008,1.8008,1.793,1.7852,1.7852,1.7764,1.7705,0.0,0.0,0.0,0.0,0.0,0.0,0.0,1.8008,1.8008,1.8008,1.8008,1.8008,1.8008,1.8105,1.8164,1.8164,1.8733,1.932,1.9992,1.9748,1.9504,1.9322,1.9113,1.9312,1.9981,0.0,1.9819,1.9913,1.9643,1.9092,1.835,1.8223,1.8223,1.834,1.8223,1.8389,1.8799,1.8799,1.8984,1.9287,1.9287,1.9346,1.9473,1.9785,1.998,2.0117,2.0439,2.0566,2.0566,2.0566,2.0566,2.0566,1.4463,1.4619,1.4785,1.4785,1.5419,1.6069,1.6388,1.6826,1.7634,1.9274,1.9552,1.9768,2.0275,1.9949,1.9674,1.9621,1.9124,1.8928,1.9156,1.8845,1.8886,1.9307,1.9254,1.9371,1.9798,1.8931,1.8383,1.8232,1.7452,1.7243,1.7478,1.8017,1.8499,1.8871,1.8734,1.8846,1.9221,1.9609,1.9798,1.9798,1.9798,1.9798,0.0,1.9798,1.9798,1.9798,1.9798,2.0265,2.0813,2.0076,2.0916,2.2221,2.1656,2.1331,2.1101,2.0719,1.9628,1.8462,1.8076,1.8008,1.8008,1.8008,1.8008,1.8008,1.8008,1.7822,1.7725,0.0,1.7969,1.7949,0.0,0.0,1.8223,1.8037,1.8008,1.8008,1.8008,1.8008,1.8008,1.8008,1.8008,1.8203,1.8682,1.834,1.8164,1.835,1.8359,1.8646,0.0,0.0,1.9707,1.9767,1.9439,1.9053,1.8574,1.8379,1.8281,1.8281,1.8096,1.8135,1.8359,1.8359,1.8496,1.873,1.873,1.8936,1.9307,1.9541,1.9863,2.0205,2.0254,2.04,2.0518,2.0146,2.0244,2.0537,1.4961,1.5,1.5,1.4893,1.6257,1.7256,1.7158,1.7493,1.8173,1.9202,2.002,2.0261,1.9633,1.9624,1.9526,1.9349,1.8432,1.8089,1.8476,1.8639,1.8715,1.8715,1.9202,1.9527,1.9527,1.8442,1.7751,1.7468,1.7308,1.7093,1.6938,1.8496,1.942,1.974,1.8829,1.8932,1.9798,1.9798,1.9798,1.9798,1.9798,1.9798,1.9798,1.9798,1.9798,1.9798,1.9798,2.0303,2.086,2.0177,2.1029,2.2309,2.1681,2.1697,2.1729,2.0767,1.9901,1.911,1.8269,1.8008,1.8008,1.8008,1.8008,1.8008,1.8008,1.8008,1.8008,1.8008,1.835,1.8506,0.0,0.0,1.8496,1.8076,1.8018,1.8095,1.8095,1.8105,1.8056,1.8105,1.8066,0.0,1.8018,1.7676,1.7617,1.7978,1.8008,1.8144,0.0,0.0,1.915,1.9043,1.915,1.918,1.9121,1.875,1.8484,1.8555,1.8184,1.8008,1.8008,1.8008,1.8008,1.8008,1.8008,1.8467,1.9209,1.9209,1.9678,2.0361,1.998,2.0068,2.0312,1.9561,1.9795,2.042,1.5908,1.6143,1.6162,1.543,1.6146,1.6789,1.6799,1.8512,1.9692,1.9213,2.0049,2.0104,1.8713,1.9275,1.9519,1.8857,1.921,1.946,1.9559,1.8987,1.8715,1.8715,1.8221,1.8015,1.8015,1.717,1.6736,1.6708,1.6079,1.6177,1.6882,1.6371,1.7445,1.9765,1.9592,1.9626,1.9798,1.9798,1.9798,1.9798,1.9798,1.9798,1.9798,1.9798,1.9798,1.9798,1.9798,2.0476,2.1322,2.0756,2.1619,2.2811,2.1807,2.1697,2.167,2.0359,1.964,1.911,1.8269,1.8008,1.8008,1.8008,1.8008,1.8008,1.8008,1.8008,1.8008,1.8008,1.835,1.8506,1.8086,0.0,1.8496,1.8076,1.8281,1.8476,1.8476,1.8514,1.8508,1.8468,1.8508,1.8389,1.8047,1.7939,1.793,1.8008,1.8008,1.7891,0.0,0.0,1.8437,0.0,1.8389,0.0,0.0,0.0,1.8115,1.8115,1.8047,1.8008,1.8008,1.8008,1.8008,1.8008,1.8008,1.8291,1.875,1.875,1.9053,1.9502,1.9424,1.9443,1.9492,1.9346,1.96,2.0019,1.6455,1.6396,1.6257,1.5901,1.6715,1.7294,1.6943,1.8665,1.9733,1.8902,1.965,1.9946,1.8998,1.9591,1.9825,1.91,1.8815,1.878,1.8998,1.848,1.8063,1.785,1.7662,1.751,1.7263,1.6557,1.6413,1.6848,1.5407,1.5177,1.6097,1.5638,1.6144,1.7517,1.7932,1.8736,1.9786,1.9788,0.0,1.9798,1.9798,1.9798,1.9798,1.9798,1.9798,1.9798,1.9798,2.0157,2.0715,2.1199,2.2147,2.2927,2.2171,2.2167,2.22,2.0688,2.0081,1.9694,1.8327,1.8008,1.8008,1.8008,1.8008,1.8008,1.8008,1.8008,1.8008,1.8008,1.835,1.8574,1.8379,1.832,0.0,0.0,1.8331,1.8379,1.8596,1.8455,1.8305,1.8288,1.829,1.8232,1.8027,1.8008,1.792,1.7705,1.7881,1.7725,0.0,0.0,1.8252,0.0,0.0,0.0,1.7686,0.0,1.8115,1.7686,1.791,1.8008,1.8008,1.8008,1.8008,1.8008,1.8008,1.8252,1.8652,1.8877,1.9102,1.9268,1.9043,1.9092,1.9238,1.8789,1.8896,1.9248,1.6885,1.6728,1.6578,1.6338,1.7326,1.7943,1.7145,1.8312,1.92,1.8731,1.9356,1.9609,1.9056,1.9552,1.9678,1.8975,1.8147,1.7745,1.8136,1.779,1.7366,1.6769,1.7158,1.7082,1.6556,1.6039,1.6125,1.6801,1.5389,1.4965,0.0,1.5371,1.5746,1.6383,1.6968,1.8022,0.0,0.0,1.9788,1.9798,1.9798,1.9798,1.9798,1.9798,1.9798,1.9798,1.9798,1.9803,2.0003,2.1123,2.2247,2.3009,2.2609,2.2732,2.2786,2.1151,2.0628,2.0268,1.8721,1.8134,1.8008,1.8008,1.8008,1.8008,1.8008,1.8008,1.8008,1.8008,1.8271,1.8555,1.874,1.8506,0.0,0.0,0.0,1.8484,1.8592,1.8424,1.8225,1.8123,1.8025,1.7978,1.7881,1.7881,1.7705,1.7275,1.7637,1.7539,1.6714,0.0,0.0,0.0,0.0,1.8144,1.7393,0.0,1.7988,1.7246,1.7578,1.7734,1.7734,1.7734,1.7793,1.7881,1.7881,1.8115,1.8535,1.8965,1.9092,1.8984,1.8633,1.8711,1.8936,1.8262,1.8271,1.8623,1.7402,1.79,1.7909,1.6572,1.7668,1.838,1.6964,1.7552,1.8432,1.9114,1.9488,1.9184,1.7765,1.813,1.8198,1.7477,1.7531,1.76,1.7645,1.76,1.7137,1.6063,1.6398,1.6105,1.5008,1.5328,1.5507,1.5585,1.6407,1.6337,0.0,1.5405,1.6815,1.9388,0.0,0.0,0.0,1.9393,1.9773,1.9798,1.9798,1.9798,1.9798,1.9798,1.9798,1.9798,1.9798,1.9803,1.9822,1.9937,2.1405,2.3103,2.3028,2.3077,2.2845,2.1404,2.0795,2.0398,1.9431,1.8586,1.8008,1.8008,1.8008,1.8008,1.8008,1.8008,1.8008,1.8008,1.8037,1.8311,1.9082,1.9189,1.9053,0.0,0.0,1.9493,1.8686,1.8902,1.8985,1.8557,1.8232,1.7861,1.748,1.7441,1.7266,1.6826,1.7197,1.7236,0.0,0.0,0.0,1.6807,1.7617,1.7852,1.7393,1.7461,1.7266,1.6797,1.6826,1.6792,1.6792,1.6792,1.707,1.7441,1.7441,1.7676,1.8105,1.8525,1.8477,1.8125,1.8086,1.8096,1.8115,1.8037,1.8271,1.8584,1.7793,1.7822,1.7939,1.8105,1.8271,1.8173,1.7603,1.7802,1.8144,1.8462,1.8825,1.868,1.7736,1.81,1.8146,1.7518,1.7523,1.7578,1.7578,1.7202,1.6524,1.5542,1.5695,1.5296,1.4183,1.4992,1.539,1.5396,1.5877,1.6355,1.6951,0.0,0.0,0.0,0.0,1.8624,1.9177,1.9296,1.9522,1.9798,1.9798,1.9798,1.9798,1.9798,1.9798,1.9798,1.9798,1.9783,1.979,1.979,2.0407,2.1287,2.2145,2.2457,2.2259,2.1296,2.0531,1.9946,1.9422,1.8654,1.8008,1.8008,1.8008,1.8008,1.8008,1.8008,1.8008,1.8008,1.8008,1.8115,1.8457,1.8525,1.8545,1.8623,0.0,0.0,1.8586,1.8557,1.8389,1.792,1.7715,1.7465,1.7026,1.7213,1.7314,1.7139,1.7519,1.7461,0.0,0.0,0.0,1.75,0.0,1.7549,1.7383,1.7383,1.7031,1.6338,1.6602,1.6665,1.6685,1.7002,1.7353,1.7764,1.7764,1.7852,1.8018,1.8193,1.8164,1.8008,1.8008,1.8008,1.8008,1.8008,1.8115,1.8242,1.8193,1.8154,1.8389,1.9027,1.8974,1.8596,1.8081,1.7995,1.8008,1.8008,1.8026,1.7965,1.7728,1.7835,1.777,1.7226,1.7054,1.6968,1.6968,1.6501,1.5801,1.5046,1.5022,1.4648,1.3841,1.4886,1.541,1.5393,1.5587,1.6223,0.0,0.0,0.0,0.0,1.8172,1.8418,1.9773,1.9409,1.9459,1.9798,1.9798,1.9798,1.9798,1.9798,1.9798,1.9798,1.9798,1.9798,1.9798,1.9798,1.9797,2.0007,2.1007,2.1516,2.1619,2.1229,2.0639,1.9969,1.9576,1.8951,1.8307,1.7919,1.792,1.7978,1.7852,1.792,1.8008,1.8008,1.8008,1.8047,1.8164,1.8193,1.8291,1.8523,0.0,0.0,1.8398,1.8293,1.8027,1.759,1.749,1.7248,1.6755,1.7002,1.7139,1.7002,1.751,0.0,0.0,0.0,0.0,0.0,0.0,0.0,1.7197,1.7061,1.6621,1.5879,1.6191,1.6416,1.6553,1.7129,1.7539,1.7832,1.7959,1.8008,1.8008,1.8008,1.8008,1.8008,1.8008,1.8008,1.8008,1.8008,1.8008,1.8008,1.8562,1.9307,1.9684,1.9014,1.9841,1.9965,1.8227,1.7999,1.8008,1.8008,1.7266,1.6904,1.7324,1.6982,1.6543,1.6154,1.5713,1.541,1.541,1.5402,1.5163,1.4625,1.4269,1.4119,1.411,1.4965,1.541,1.542,1.5999,0.0,1.543,0.0,1.6469,1.8389,1.8394,1.8907,1.9798,1.9798,1.9798,1.9798,1.9798,1.9798,1.9798,1.9798,1.9798,1.9798,1.9798,1.9798,1.9798,1.9798,1.9811,1.9822,1.983,2.0318,2.1002,2.1387,2.1272,2.0817,1.9986,1.9522,1.9007,1.7754,1.7705,1.79,1.749,1.7715,1.8008,1.8008,1.8008,1.8135,1.8555,1.8562,1.8562,1.8562,0.0,0.0,1.8144,1.8337,1.8463,1.8076,1.7671,1.7248,1.6755,1.6727,1.6553,1.6174,0.0,0.0,0.0,0.0,0.0,1.6758,1.7158,0.0,1.6685,1.6299,1.5859,1.542,1.542,1.5654,1.6164,1.6982,1.7383,1.7412,1.7832,1.8008,1.8008,1.8008,1.8008,1.8008,1.8008,1.8008,1.8008,1.8008,1.8008,1.8008,1.8691,1.9092,1.9477,1.9466,1.9429,1.9137,1.818,1.8008,1.8008,1.8008,1.7773,1.7432,1.6982,1.6279,1.5889,1.6105,1.5664,1.541,0.0,1.537,1.5037,1.4291,1.4704,1.4437,1.3299,1.4684,1.5372,1.5372,0.0,0.0,0.0,1.5841,1.6471,1.8389,1.7468,1.7829,1.9044,1.9044,1.9359,1.9798,1.9798,1.9798,1.9798,1.9798,1.9798,1.9798,1.9798,1.9798,1.9798,1.9798,1.9798,1.9823,1.982,1.9942,2.0245,2.079,2.0721,2.037,1.9946,1.9336,1.8601,1.7665,1.7266,1.7109,1.6973,1.7275,1.7666,1.7949,1.8008,1.8047,1.8184,1.8213,1.8213,1.8213,1.833,0.0,1.8047,1.7842,1.76,1.7184,1.6787,1.6304,1.5889,1.6123,1.6356,1.6494,0.0,0.0,0.0,0.0,0.0,0.0,1.7168,0.0,1.7178,1.6436,1.584,1.541,1.541,1.5644,1.6154,1.6982,1.7383,1.7402,1.7832,1.8008,1.8008,1.8008,1.8008,1.8008,1.8008,1.7579,1.7139,1.7794,1.7579,1.7139,1.8936,1.9355,1.9795,1.9798,1.9448,1.9017,1.8447,1.817,1.8008,1.8008,1.7871,1.7654,1.7219,1.6343,0.0,1.5811,1.5566,1.541,1.541,1.5418,1.517,1.4617,1.4492,1.3943,1.2892,1.4215,0.0,1.5402,1.54,1.5881,1.676,1.5821,1.6212,1.7634,1.6864,1.7302,1.8715,1.8715,1.915,1.9786,1.9775,1.9788,1.9788,1.9788,1.9788,1.98,1.9812,1.9798,1.9798,1.9798,1.9798,1.9798,1.9798,1.9798,1.9874,2.0238,2.0294,2.0076,1.9388,1.8957,1.8373,1.7362,1.6934,1.6777,1.6943,1.7305,1.7695,1.7959,1.8008,1.8008,1.8008,1.8008,1.8008,1.8008,1.8008,1.7959,1.7803,1.7556,1.722,1.6732,1.6495,1.6123,0.0,1.5937,1.6128,0.0,0.0,0.0,0.0,0.0,0.0,1.7196,1.6542,1.6453,1.7139,1.626,1.5684,1.542,1.5752,1.594,1.604,1.7154,1.7617,1.7637,1.79,1.8008,1.8008,1.8008,1.8008,1.8008,1.8008,1.7647,1.7207,1.7794,1.7647,1.7217,1.9287,1.9951,2.04,0.0,1.9787,0.0,1.9031,1.8399,1.8008,1.8008,1.7666,1.7583,1.7905,1.6951,1.6087,1.543,0.0,0.0,1.541,1.5422,1.5401,1.5416,1.3787,1.2896,1.2919,1.3737,1.4609,1.5381,1.5371,1.5381,1.5468,1.541,1.5806,1.6539,1.6492,1.7246,1.8715,1.8661,1.9097,1.9773,1.9775,1.9735,1.9683,1.9595,1.9683,1.981,1.9775,1.9798,1.9784,1.9784,1.9784,1.9784,1.9784,1.9811,1.9798,1.9798,1.9934,1.9819,1.8611,1.8386,1.8228,1.7007,1.6665,1.6846,1.7285,1.7686,1.7978,1.8008,1.8008,1.8008,1.8008,1.8008,1.8008,1.8008,1.7988,1.7832,1.7441,1.7334,1.7148,1.6704,0.0,0.0,1.6077,1.6058,1.5906,0.0,0.0,0.0,0.0,0.0,1.6634,1.5856,1.5414,1.5633,1.6513,1.5737,1.5303,1.5283,1.6224,1.6336,1.5766,1.7214,1.792,1.7823,1.793,1.8008,1.8008,1.8008,1.8008,1.8008,1.8008,1.794,1.7862,1.7862,1.7862,1.793,0.0,0.0,2.0137,2.0371,1.9879,1.935,1.9242,1.8506,1.8008,1.8008,1.793,1.7734,1.7327,1.6894,1.6305,1.546,1.537,1.541,1.541,1.54,1.5429,1.5419,1.3771,1.2915,1.2881,1.4337,1.5201,1.5389,1.4998,1.5296,1.6208,1.5633,1.6083,1.7302,1.614,1.6789,1.8661,1.8124,1.8608,1.9811,1.9793,1.9327,1.8495,1.7639,1.8307,1.9775,1.9799,1.9787,1.9784,1.9784,1.9784,1.9784,1.9784,1.9805,1.9798,1.9798,1.9359,1.8724,1.8407,1.8017,1.7549,1.6849,1.6665,1.6846,1.7285,1.7461,1.7627,1.7939,1.8008,1.8008,1.8008,1.8008,1.8008,1.8008,1.7744,1.75,1.7393,1.6807,1.6373,0.0,1.595,1.5644,1.5595,1.5547,1.5655,0.0,0.0,1.5216,1.4555,1.4606,1.4727,1.4831,1.4731,1.4833,1.5035,1.4507,1.4132,1.3922,1.5393,1.537,1.4084,1.604,1.6757,1.6471,1.7504,1.8008,1.8008,1.8008,1.8008,1.8008,1.8008,1.7579,1.6922,1.6922,1.6922,1.6876,1.9541,1.9922,2.0225,2.0264,1.9727,1.9219,1.9023,1.8428,1.8008,1.8008,1.8008,1.7773,1.7158,1.6968,1.6475,1.5504,1.539,1.541,1.541,1.541,1.5412,1.5413,1.3786,1.2887,1.2916,1.3787,1.4512,1.5002,1.4992,1.5338,1.5979,1.5584,1.5753,1.6269,1.5505,1.6043,1.756,1.7368,1.7938,1.8963,1.912,1.8645,1.7713,1.5653,1.6271,1.8412,1.942,1.9825,1.9585,1.823,1.7775,1.7759,1.7759,1.8691,1.9691,1.8999,1.8932,1.8872,1.8181,1.744,1.6838,1.6481,1.6875,1.7324,1.7373,1.7529,1.7734,1.7959,1.8008,1.8008,1.8008,1.8008,1.8008,1.8008,1.7656,1.7314,1.7109,1.6494,1.6084,1.6123,1.5871,1.5722,1.5722,1.587,1.6025,1.6096,1.5451,0.0,1.4533,1.3622,1.3439,1.4104,1.3956,1.4077,1.4481,1.413,1.3677,1.3255,1.4622,1.463,1.3632,1.5644,1.6441,1.6319,1.7474,1.8008,1.8008,1.8008,1.8008,1.792,1.7359,1.6903,1.654,1.5947,1.5739,1.5781,1.9834,2.0156,2.0273,1.9971,1.9512,1.9062,1.8691,1.8281,1.8008,1.8008,1.8008,1.7821,1.7273,1.7149,1.6609,1.5605,1.542,1.541,1.541,1.5429,1.5419,1.5413,1.3801,1.2896,1.2887,1.3143,1.3725,1.4697,1.5129,1.5352,1.541,1.541,1.5282,1.5041,1.4929,1.5471,1.6423,1.6707,1.7219,1.7788,1.8084,1.7903,1.7136,1.408,1.4359,1.6703,1.8747,1.9608,1.9341,1.6385,1.5427,1.5371,1.5371,1.7126,1.8905,1.7634,1.8126,1.8885,1.7899,1.694,1.6262,1.624,1.7139,1.792,1.7559,1.7754,1.8008,1.8008,1.8008,1.8008,1.8008,1.8008,1.8037,1.8096,1.7695,1.7275,1.6963,0.0,1.6176,1.6216,1.6216,1.6217,1.6198,1.6503,1.6568,1.6239,1.5065,1.444,1.4481,1.3085,1.2618,1.3455,1.3128,1.3327,1.4148,1.3998,1.3575,1.2917,1.3924,1.4073,1.3454,1.5342,1.614,1.621,1.7295,1.7794,1.7794,1.7794,1.7794,1.7687,1.6468,1.6088,1.6156,1.4932,1.4577,1.4731,1.9834,1.9687,1.958,1.9863,1.9258,1.8711,1.8582,1.8281,1.8008,1.8008,1.8008,1.7959,1.7842,1.7178,1.6597,1.6215,1.5691,1.541,1.541,1.5385,1.5401,1.5403,1.3799,1.2878,1.291,1.4287,1.5123,1.529,1.5008,1.5068,1.541,1.541,1.5718,1.6218,1.5591,1.61,1.7332,1.645,1.647,1.7138,1.7106,1.7089,1.6694,1.3937,1.4198,1.6233,1.7471,1.8749,1.9326,1.6402,1.5425,1.5399,1.5399,1.5731,1.6032,1.5787,1.591,1.628,1.7305,1.6948,1.6388,1.6828,1.7502,1.7988,1.793,1.7969,1.8008,1.8008,1.8008,1.8008,1.8008,1.8008,1.8125,1.8486,1.7891,1.748,1.7773,0.0,1.6596,1.6596,1.6621,1.6641,1.659,1.6651,1.6646,1.6645,1.5093,1.4252,1.4473,1.2883,1.2116,1.2512,1.2478,1.2524,1.2663,1.3403,1.3199,1.2084,1.325,1.3265,1.2223,1.3539,1.4163,1.4243,1.6026,1.6802,1.6853,1.6853,1.6853,1.6706,1.573,1.5202,1.4898,1.3893,1.3894,1.4321,1.9541,1.9424,1.9346,1.9541,1.9062,1.8562,1.8562,1.8281,1.8008,1.8008,1.8008,1.7832,1.7373,1.6973,1.6471,1.5894,1.5566,1.541,1.541,1.5389,1.5203,1.4747,1.3532,1.2903,1.2895,1.368,1.4477,1.5379,1.4988,1.4883,1.5078,1.5303,1.5328,1.5224,1.513,1.5492,1.6224,1.5977,1.6052,1.631,1.66,1.6426,1.5934,1.4413,1.4294,1.5103,1.6078,1.6824,1.7216,1.5853,1.5414,1.5389,1.5389,1.5367,1.5422,1.5407,1.5389,1.5543,1.6243,1.6457,1.6548,1.6815,1.7444,1.8008,1.8008,1.8008,1.8008,1.8008,1.8008,1.8008,1.8008,1.7822,1.7812,1.8232,1.7588,0.0,1.7607,1.7129,1.6821,1.708,1.708,1.708,1.7051,1.7285,1.7317,1.7069,1.5617,1.4734,1.4899,1.3085,1.2164,1.2298,1.2305,1.2305,1.2305,1.2739,1.2663,1.2104,1.267,1.2663,1.2177,1.3245,1.3673,1.3818,1.5242,1.5756,1.5558,1.5558,1.5505,1.5238,1.4101,1.3715,1.3572,1.2458,1.234,1.2773,1.9287,1.9209,1.9131,1.9131,1.8779,1.8486,1.8486,1.8135,1.7861,1.7861,1.7783,1.748,1.6807,1.6548,1.6146,1.5635,1.5478,1.541,1.541,1.54,1.5074,1.4253,1.3389,1.288,1.29,1.2889,1.3513,1.4845,1.4763,1.4736,1.4779,1.4971,1.4824,1.4297,1.4639,1.4875,1.5057,1.5484,1.5512,1.5362,1.5925,1.5787,1.5235,1.4797,1.4542,1.4492,1.5038,1.5314,1.5405,1.5405,1.5399,1.5391,1.5148,1.5177,1.5196,1.5196,1.5274,1.543,1.5381,1.6055,1.6723,1.6929,1.7478,1.7988,1.7988,1.8008,1.8008,1.8008,1.8008,1.8008,1.8008,1.7744,1.7666,1.8086,0.0,1.7178,0.0,1.7305,1.7119,1.7504,1.7516,1.755,1.7513,1.7833,1.7755,1.7281,1.5957,1.5072,1.4854,1.323,1.2338,1.2405,1.2338,1.2305,1.2305,1.2305,1.2305,1.2305,1.2305,1.2305,1.2298,1.3025,1.3382,1.3455,1.445,1.4676,1.4344,1.4344,1.4209,1.3859,1.2621,1.2307,1.2365,1.1334,1.1089,1.1383,1.9287,1.8965,1.8682,1.8682,1.833,1.8057,1.8057,1.7705,1.7432,1.7432,1.7258,1.7066,1.6748,1.5952,1.5674,1.6176,1.5723,1.541,1.541,1.5422,1.5144,1.459,1.3469,1.289,1.292,1.288,1.297,1.3067,1.4109,1.459,1.462,1.4302,1.4414,1.4736,1.4775,1.4821,1.4792,1.4877,1.4596,1.4272,1.4704,1.487,1.4851,1.4802,1.498,1.5273,1.4975,1.5066,1.5391,1.5391,1.54,1.5264,1.444,1.4391,1.4673,1.4673,1.5021,1.542,1.5413,1.6045,1.6878,1.772,1.7915,1.7979,1.8007,1.8008,1.8008,1.8008,1.8008,1.8008,1.8008,1.7988,1.8105,1.8525,0.0,0.0,1.8486,1.8184,1.793,1.7949,1.7939,1.7949,1.793,1.8008,1.7648,1.676,1.5774,1.4775,1.3894,1.2858,1.2425,1.2782,1.2445,1.2305,1.2305,1.2305,1.2305,1.2305,1.2305,1.2305,1.2305,1.2372,1.2372,1.2445,1.3382,1.363,1.3399,1.3399,1.3271,1.2908,1.1873,1.131,1.1154,1.1002,1.0835,1.0869,1.8545,1.8359,1.8164,1.791,1.7725,1.7627,1.7627,1.7256,1.708,1.7344,1.7096,1.6713,1.6348,1.6001,1.5788,1.5753,1.5518,1.541,1.541,1.5077,1.4493,1.3565,1.3124,1.2881,1.2881,1.2916,1.3408,1.4471,1.3838,1.37,1.4037,1.4086,1.4228,1.4385,1.4385,1.4678,1.5137,1.4609,1.459,1.4922,1.4824,1.4941,1.5146,1.4883,1.5049,1.5352,1.4856,1.4968,1.5335,1.5019,1.5106,1.5296,1.4693,1.4625,1.471,1.471,1.5011,1.5381,1.538,1.5621,1.5959,1.6319,1.7187,1.8015,1.8007,1.7996,1.7974,1.7969,1.7986,1.7974,1.7978,1.8291,1.8516,1.8232,0.0,1.8154,1.8504,1.8271,1.8203,1.874,1.834,1.8105,1.8368,1.8378,1.8105,1.7483,1.683,1.6131,1.5497,1.4601,1.4244,1.4656,1.4541,1.3889,1.2654,1.2392,1.2305,1.2305,1.2305,1.2305,1.2305,1.2305,1.2305,1.2291,1.2466,1.2424,1.2123,1.2453,1.2189,1.1467,1.1582,1.1261,1.0728,1.0728,1.0768,1.1053,1.8037,1.7793,1.7559,1.7412,1.7275,1.7178,1.7178,1.6807,1.6631,1.6934,1.6592,1.6201,1.5889,1.5859,1.5732,1.5439,1.541,1.541,1.541,1.4779,1.3969,1.2941,1.29,1.2881,1.2881,1.288,1.3482,1.461,1.3447,1.3097,1.345,1.3613,1.3887,1.4077,1.4077,1.4531,1.5186,1.4727,1.4795,1.5205,1.5049,1.5156,1.5371,1.4941,1.5049,1.5352,1.478,1.4936,1.5305,1.4634,1.47,1.4962,1.477,1.4597,1.4404,1.4541,1.4873,1.5177,1.5371,1.5399,1.5428,1.5366,1.6712,1.8026,1.7978,1.7976,1.7839,1.732,1.761,1.8022,1.7969,1.8368,1.8554,1.8291,1.8105,1.8154,1.8504,1.8389,1.8428,1.9014,1.8564,1.8252,1.8388,1.8388,1.8144,1.7571,1.7216,1.6731,1.6202,1.535,1.5154,1.5683,1.5471,1.4813,1.3712,1.3205,1.2755,1.2305,1.2305,1.2305,1.2305,1.2305,1.2251,1.2151,1.1957,1.1783,1.166,1.2022,1.1688,1.1045,1.1593,1.1469,1.0926,1.0681,1.1058,1.1774,1.792,1.7314,1.6865,1.7305,1.7012,1.6728,1.6728,1.6348,1.6115,1.6125,1.5684,1.541,1.541,1.541,1.541,1.541,1.541,1.541,1.54,1.46,1.376,1.292,1.2881,1.2881,1.2881,1.2893,1.2903,1.2881,1.2903,1.2893,1.2881,1.2881,1.333,1.4077,1.4077,1.4365,1.4814,1.5225,1.5156,1.4824,1.5244,1.541,1.5371,1.4951,1.5039,1.5342,1.479,1.4926,1.5285,1.44,1.41,1.4181,1.4479,1.4073,1.3594,1.3961,1.4369,1.4722,1.5235,1.541,1.5399,1.5383,1.6738,1.8002,1.7996,1.8008,1.7474,1.5804,1.677,1.8008,1.8008,1.8008,1.8203,1.8829,1.8378,1.8164,1.8504,1.8562,1.8562,1.8572,1.8562,1.8467,1.8057,1.8008,1.7605,1.6671,1.6603,1.6219,1.5233,1.4587,1.4672,1.5618,1.4754,1.468,1.5618,1.4821,1.3703,1.2305,1.2305,1.2305,1.2305,1.2305,1.2144,1.1942,1.1942,1.1998,1.2186,1.2186,1.2056,1.1834,1.1834,1.1826,1.171,1.0926,1.16,1.3009,1.7148,1.6904,1.667,1.6494,1.6348,1.626,1.626,1.5889,1.5713,1.6086,1.5684,1.541,1.541,1.541,1.541,1.541,1.5377,1.5396,1.5414,1.5133,1.4358,1.2959,1.2881,1.2881,1.2881,1.288,1.288,1.2881,1.288,1.288,1.2881,1.2881,1.3174,1.3682,1.3389,1.3828,1.4756,1.4277,1.4521,1.5215,1.5039,1.5146,1.5371,1.5256,1.5309,1.5369,1.5219,1.5244,1.5185,1.3753,1.327,1.3356,1.3807,1.3935,1.3922,1.4048,1.4592,1.5177,1.537,1.541,1.539,1.5392,1.674,1.8004,1.7975,1.8009,1.7829,1.732,1.761,1.8012,1.7969,1.7987,1.8074,1.8242,1.8449,1.8605,1.8623,1.8379,1.8418,1.9023,1.8564,1.8262,1.8437,1.8449,1.8213,1.7623,1.7609,1.748,1.7179,1.6963,1.7104,1.7673,1.7458,1.7099,1.6738,1.5524,1.4408,1.331,1.331,1.2952,1.2298,1.2952,1.3071,1.2769,1.321,1.3317,1.3068,1.3442,1.3214,1.2696,1.3235,1.3114,1.2634,1.2397,1.2581,1.307,1.6787,1.6455,1.6182,1.6135,1.5918,1.5801,1.5801,1.5586,1.5508,1.5771,1.5576,1.541,1.541,1.541,1.541,1.541,1.5412,1.5144,1.4437,1.5017,1.4631,1.2959,1.2881,1.2881,1.2881,1.2881,1.2881,1.2881,1.2881,1.2881,1.2881,1.2881,1.3105,1.3506,1.3418,1.3896,1.469,1.4404,1.4707,1.5391,1.5137,1.5164,1.5414,1.5376,1.5391,1.532,1.4656,1.4437,1.4265,1.3256,1.2921,1.2962,1.3266,1.3503,1.3672,1.3838,1.4281,1.4839,1.5305,1.5397,1.5418,1.5379,1.6695,1.7984,1.7986,1.8035,1.8012,1.8004,1.7965,1.8012,1.8014,1.8018,1.8025,1.7969,1.8321,1.8467,1.8354,1.8329,1.8447,1.8965,1.8574,1.8291,1.8379,1.835,1.8281,1.8018,1.8008,1.8008,1.8008,1.7648,1.7754,1.8309,1.8021,1.7731,1.753,1.6702,1.5658,1.4307,1.4307,1.4027,1.3448,1.381,1.3855,1.3522,1.3703,1.3788,1.374,1.4063,1.3906,1.3545,1.4025,1.3906,1.3425,1.313,1.3425,1.3965,1.6558,1.5967,1.5537,1.5928,1.5674,1.541,1.541,1.541,1.541,1.541,1.541,1.54,1.5361,1.5352,1.5342,1.5303,1.5292,1.4651,1.3002,1.4316,1.4508,1.2959,1.2881,1.2881,1.2881,1.2881,1.2881,1.2881,1.2881,1.2881,1.2881,1.2881,1.3086,1.3467,1.3848,1.4214,1.453,1.506,1.5342,1.541,1.541,1.5397,1.5406,1.5409,1.5416,1.5195,1.3689,1.3113,1.3094,1.2923,1.2921,1.292,1.2881,1.2886,1.2949,1.3328,1.3516,1.3896,1.4999,1.5381,1.5415,1.539,1.6628,1.7838,1.7916,1.7915,1.7929,1.7985,1.7915,1.7803,1.7975,1.7974,1.7978,1.8008,1.8008,1.7968,1.7989,1.8315,1.8584,1.8584,1.8584,1.8418,1.7998,1.7959,1.7969,1.8008,1.8008,1.8008,1.8008,1.7203,1.7116,1.7998,1.7148,1.7139,1.8008,1.8008,1.7088,1.5305,1.5305,1.5305,1.5217,1.4783,1.4488,1.4197,1.3822,1.3889,1.4332,1.4332,1.4332,1.4332,1.4332,1.4332,1.4213,1.3485,1.4145,1.5294,1.5762,1.5547,1.5439,1.5537,1.5478,1.541,1.541,1.541,1.541,1.541,1.541,1.5283,1.4951,1.4922,1.4785,1.4389,1.4606,1.4232,1.2974,1.3252,1.3293,1.2939,1.2881,1.2881,1.2881,1.2881,1.2881,1.2881,1.2881,1.2881,1.2881,1.2881,1.293,1.3018,1.3115,1.3433,1.393,1.4237,1.4795,1.541,1.541,1.5397,1.5406,1.5409,1.538,1.5349,1.4961,1.4879,1.4635,1.3361,1.2915,1.2922,1.2889,1.2916,1.2919,1.3004,1.3042,1.3346,1.4476,1.5077,1.5415,1.539,1.6049,1.6807,1.7203,1.7122,1.7148,1.784,1.6925,1.64,1.777,1.7985,1.7992,1.7969,1.8008,1.7969,1.7968,1.8066,1.8144,1.8144,1.8144,1.7978,1.7559,1.7519,1.7656,1.7988,1.8008,1.8008,1.8008,1.7823,1.7823,1.8008,1.7794,1.7794,1.8008,1.8008,1.7432,1.628,1.628,1.593,1.5217,1.5471,1.5415,1.5045,1.5355,1.5381,1.5108,1.5108,1.5108,1.5108,1.5108,1.5108,1.5108,1.4932,1.5108,1.5352,1.5498,1.541,1.541,1.541,1.541,1.541,1.541,1.541,1.541,1.541,1.541,1.5254,1.4834,1.4785,1.4544,1.3961,1.4324,1.4124,1.2972,1.2908,1.2881,1.2881,1.2881,1.2881,1.2881,1.2881,1.2881,1.2881,1.2881,1.2881,1.2881,1.2881,1.2881,1.29,1.3301,1.3445,1.3399,1.4292,1.5,1.541,1.541,1.5397,1.533,1.4518,1.4214,1.4334,1.5095,1.4906,1.4084,1.3192,1.2916,1.3035,1.3816,1.355,1.2886,1.2886,1.289,1.3105,1.394,1.4619,1.5101,1.5322,1.5811,1.6284,1.6612,1.6831,1.6854,1.6787,1.6055,1.5698,1.6567,1.7412,1.8014,1.7988,1.8008,1.8008,1.8008,1.8008,1.7939,1.7734,1.7715,1.7627,1.7402,1.7568,1.7773,1.7988,1.8008,1.8008,1.8008,1.8008,1.8008,1.8008,1.8008,1.8008,1.8008,1.8008,1.7725,1.7285,1.7285,1.6908,1.6228,1.6298,1.6075,1.5663,1.5747,1.5625,1.541,1.541,1.541,1.541,1.541,1.541,1.541,1.541,1.541,1.541,1.5488,1.541,1.541,1.541,1.541,1.541,1.541,1.541,1.541,1.541,1.541,1.5225,1.4727,1.4551,1.4262,1.371,1.4061,1.3922,1.3042,1.2918,1.2881,1.2881,1.2881,1.2881,1.2881,1.2881,1.2881,1.2881,1.2881,1.2881,1.2881,1.2881,1.2881,1.291,1.3691,1.3719,1.321,1.4752,1.5419,1.541,1.541,1.5414,1.524,1.3847,1.3127,1.3078,1.4461,1.4084,1.2928,1.2928,1.2886,1.3165,1.4509,1.4003,1.29,1.29,1.2918,1.3042,1.3662,1.4192,1.4719,1.5283,1.5684,1.6017,1.6107,1.6542,1.6687,1.5802,1.551,1.5478,1.5778,1.705,1.8016,1.7988,1.8008,1.8008,1.8008,1.8008,1.7852,1.7432,1.7314,1.7334,1.7471,1.7725,1.791,1.8008,1.8008,1.8008,1.8008,1.8008,1.8008,1.8008,1.8008,1.8008,1.8008,1.8008,1.8008,1.8008,1.8008,1.7793,1.7363,1.6934,1.6484,1.6096,1.5596,1.541,1.541,1.541,1.541,1.541,1.541,1.541,1.541,1.541,1.541,1.541,1.542,1.541,1.541,1.541,1.541,1.541,1.541,1.541,1.541,1.541,1.541,1.5107,1.4253,1.3574,1.3262,1.3503,1.3273,1.3194,1.3416,1.3105,1.2881,1.2881,1.2881,1.2881,1.2881,1.2881,1.2881,1.2881,1.2881,1.2881,1.2881,1.2881,1.2881,1.291,1.3509,1.3809,1.4024,1.4958,1.5385,1.541,1.541,1.5399,1.539,1.518,1.4133,1.2931,1.3175,1.3096,1.29,1.29,1.2907,1.295,1.3185,1.3066,1.289,1.291,1.291,1.3135,1.4205,1.4546,1.4721,1.5292,1.5459,1.5498,1.5508,1.5909,1.6284,1.6476,1.5929,1.5829,1.7375,1.7859,1.8025,1.7988,1.8008,1.8008,1.8008,1.8008,1.7852,1.7432,1.7051,1.7109,1.7852,1.7625,1.7642,1.7969,1.8008,1.8008,1.8008,1.8008,1.8008,1.8008,1.8008,1.8008,1.8008,1.8008,1.8008,1.8008,1.8008,1.7793,1.7363,1.6934,1.6484,1.6096,1.5596,1.541,1.541,1.541,1.541,1.541,1.541,1.541,1.541,1.541,1.541,1.541,1.541,1.541,1.541,1.541,1.541,1.541,1.541,1.541,1.5322,1.5088,1.5059,1.4736,1.3877,1.3242,1.2959,1.3145,1.2988,1.2959,1.3145,1.2988,1.2881,1.2881,1.2881,1.2881,1.2881,1.2881,1.2881,1.2881,1.2881,1.2881,1.2881,1.2881,1.2881,1.291,1.3635,1.411,1.4409,1.5091,1.5405,1.5385,1.54,1.5425,1.5308,1.436,1.3537,1.2916,1.29,1.2881,1.2881,1.2881,1.288,1.2918,1.2871,1.288,1.2918,1.2871,1.2886,1.3006,1.3484,1.4316,1.511,1.5335,1.5399,1.541,1.541,1.5752,1.6145,1.6447,1.5872,1.5619,1.6389,1.737,1.8019,1.8027,1.8008,1.8008,1.8008,1.8008,1.7852,1.7432,1.7217,1.7246,1.7627,1.7723,1.7821,1.7998,1.8008,1.8008,1.8008,1.8008,1.8008,1.8008,1.8008,1.8008,1.8008,1.8008,1.8008,1.8008,1.7773,1.7432,1.7012,1.6816,1.6357,1.5693,1.5498,1.541,1.541,1.541,1.541,1.541,1.541,1.541,1.541,1.541,1.541,1.541]},{"header":{"parameterUnit":"m.s-1","parameterCategory":1,"la1":30.6,"la2":28.766,"lo1":-90.7593,"lo2":-88.6598,"dy":0.0162,"dx":0.0183,"nx":116,"ny":114,"refTime":"2023-09-07T06:00:00:Z","depth":0,"parameterNumber":3,"parameterNumberName":"V-component_of_WINDS"},"data":[0.0,0.0,0.0,0.0,0.0,0.0,0.0,0.0,0.0,0.0,0.0,0.0,0.0,0.0,0.0,0.0,0.0,0.0,0.0,0.0,0.0,0.0,0.0,0.0,0.0,0.0,0.0,0.0,0.0,0.0,0.0,0.0,0.0,0.0,0.0,0.0,0.0,0.0,0.0,0.0,0.0,0.0,0.0,0.0,0.0,0.0,0.0,0.0,0.0,0.0,0.0,0.0,0.0,0.0,0.0,0.0,0.0,0.0,0.0,0.0,0.0,0.0,0.0,0.0,0.0,0.0,0.0,0.0,0.0,0.0,0.0,0.0,0.0,0.0,0.0,0.0,0.0,0.0,0.0,0.0,0.0,0.0,0.0,0.0,0.0,0.0,0.0,0.0,0.0,0.0,0.0,0.0,0.0,0.0,0.0,0.0,0.0,0.0,0.0,0.0,0.0,0.0,0.0,0.0,0.0,0.0,0.0,0.0,0.0,0.0,0.0,0.0,0.0,0.0,0.0,0.0,0.0,0.0,0.0,0.0,0.0,0.0,0.0,0.0,0.0,0.0,0.0,0.0,0.0,0.0,0.0,0.0,0.0,0.0,0.0,0.0,0.0,0.0,0.0,0.0,0.0,0.0,0.0,0.0,0.0,0.0,0.0,0.0,0.0,0.0,0.0,0.0,0.0,0.0,0.0,0.0,0.0,0.0,0.0,0.0,0.0,0.0,0.0,0.0,0.0,0.0,0.0,0.0,0.0,0.0,0.0,0.0,0.0,0.0,0.0,0.0,0.0,0.0,0.0,0.0,0.0,0.0,0.0,0.0,0.0,0.0,0.0,0.0,0.0,0.0,0.0,0.0,0.0,0.0,0.0,0.0,0.0,0.0,0.0,0.0,0.0,0.0,0.0,0.0,0.0,0.0,0.0,0.0,0.0,0.0,0.0,0.0,0.0,0.0,0.0,0.0,0.0,0.0,0.0,0.0,0.0,0.0,0.0,0.0,0.0,0.0,0.0,0.0,0.0,0.0,0.0,0.0,0.0,0.0,0.0,0.0,0.0,0.0,0.0,0.0,0.0,0.0,0.0,0.0,0.0,0.0,0.0,0.0,0.0,0.0,0.0,0.0,0.0,0.0,0.0,0.0,0.0,0.0,0.0,0.0,0.0,0.0,0.0,0.0,0.0,0.0,0.0,0.0,0.0,0.0,0.0,0.0,0.0,0.0,0.0,0.0,0.0,0.0,0.0,0.0,0.0,0.0,0.0,0.0,0.0,0.0,0.0,0.0,0.0,0.0,0.0,0.0,0.0,0.0,0.0,0.0,0.0,0.0,0.0,0.0,0.0,0.0,0.0,0.0,0.0,0.0,0.0,0.0,0.0,0.0,0.0,0.0,0.0,0.0,0.0,0.0,0.0,0.0,0.0,0.0,0.0,0.0,0.0,0.0,0.0,0.0,0.0,0.0,0.0,0.0,0.0,0.0,0.0,0.0,0.0,0.0,0.0,0.0,0.0,0.0,0.0,0.0,0.0,0.0,0.0,0.0,0.0,0.0,0.0,0.0,0.0,0.0,0.0,0.0,0.0,0.0,0.0,0.0,0.0,0.0,0.0,0.0,0.0,0.0,0.0,0.0,0.0,0.0,0.0,0.0,0.0,0.0,0.0,0.0,0.0,0.0,0.0,0.0,0.0,0.0,0.0,0.0,0.0,0.0,0.0,0.0,0.0,0.0,0.0,0.0,0.0,0.0,0.0,0.0,0.0,0.0,0.0,0.0,0.0,0.0,0.0,0.0,0.0,0.0,0.0,0.0,0.0,0.0,0.0,0.0,0.0,0.0,0.0,0.0,0.0,0.0,0.0,0.0,0.0,0.0,0.0,0.0,0.0,0.0,0.0,0.0,0.0,0.0,0.0,0.0,0.0,0.0,0.0,0.0,0.0,0.0,0.0,0.0,0.0,0.0,0.0,0.0,0.0,0.0,0.0,0.0,0.0,0.0,0.0,0.0,0.0,0.0,0.0,0.0,0.0,0.0,0.0,0.0,0.0,0.0,0.0,0.0,0.0,0.0,0.0,0.0,0.0,0.0,0.0,0.0,0.0,0.0,0.0,0.0,0.0,0.0,0.0,0.0,0.0,0.0,0.0,0.0,0.0,0.0,0.0,0.0,0.0,0.0,0.0,0.0,0.0,0.0,0.0,0.0,0.0,0.0,0.0,0.0,0.0,0.0,0.0,0.0,0.0,0.0,0.0,0.0,0.0,0.0,0.0,0.0,0.0,0.0,0.0,0.0,0.0,0.0,0.0,0.0,0.0,0.0,0.0,0.0,0.0,0.0,0.0,0.0,0.0,0.0,0.0,0.0,0.0,0.0,0.0,0.0,0.0,0.0,0.0,0.0,0.0,0.0,0.0,0.0,0.0,0.0,0.0,0.0,0.0,0.0,0.0,0.0,0.0,0.0,0.0,0.0,0.0,0.0,0.0,0.0,0.0,0.0,0.0,0.0,0.0,0.0,0.0,0.0,0.0,0.0,0.0,0.0,0.0,0.0,0.0,0.0,0.0,0.0,0.0,0.0,0.0,0.0,0.0,0.0,0.0,0.0,0.0,0.0,0.0,0.0,0.0,0.0,0.0,0.0,0.0,0.0,0.0,0.0,0.0,0.0,0.0,0.0,0.0,0.0,0.0,0.0,0.0,0.0,0.0,0.0,0.0,0.0,0.0,0.0,0.0,0.0,0.0,0.0,0.0,0.0,0.0,0.0,0.0,0.0,0.0,0.0,0.0,0.0,0.0,0.0,0.0,0.0,0.0,0.0,0.0,0.0,0.0,0.0,0.0,0.0,0.0,0.0,0.0,0.0,0.0,0.0,0.0,0.0,0.0,0.0,0.0,0.0,0.0,0.0,0.0,0.0,0.0,0.0,0.0,0.0,0.0,0.0,0.0,0.0,0.0,0.0,0.0,0.0,0.0,0.0,0.0,0.0,0.0,0.0,0.0,0.0,0.0,0.0,0.0,0.0,0.0,0.0,0.0,0.0,0.0,0.0,0.0,0.0,0.0,0.0,0.0,0.0,0.0,0.0,0.0,0.0,0.0,0.0,0.0,0.0,0.0,0.0,0.0,0.0,0.0,0.0,0.0,0.0,0.0,0.0,0.0,0.0,0.0,0.0,0.0,0.0,0.0,0.0,0.0,0.0,0.0,0.0,0.0,0.0,0.0,0.0,0.0,0.0,0.0,0.0,0.0,0.0,0.0,0.0,0.0,0.0,0.0,0.0,0.0,0.0,0.0,0.0,0.0,0.0,0.0,0.0,0.0,0.0,0.0,0.0,0.0,0.0,0.0,0.0,0.0,0.0,0.0,0.0,0.0,0.0,0.0,0.0,0.0,0.0,0.0,0.0,0.0,0.0,0.0,0.0,0.0,0.0,0.0,0.0,0.0,0.0,0.0,0.0,0.0,0.0,0.0,0.0,0.0,0.0,0.0,0.0,0.0,0.0,0.0,0.0,0.0,0.0,0.0,0.0,0.0,0.0,0.0,0.0,0.0,0.0,0.0,0.0,0.0,0.0,0.0,0.0,0.0,0.0,0.0,0.0,0.0,0.0,0.0,0.0,0.0,0.0,0.0,0.0,0.0,0.0,0.0,0.0,0.0,0.0,0.0,0.0,0.0,0.0,0.0,0.0,0.0,0.0,0.0,0.0,0.0,0.0,0.0,0.0,0.0,0.0,0.0,0.0,0.0,0.0,0.0,0.0,0.0,0.0,0.0,0.0,0.0,0.0,0.0,0.0,0.0,0.0,0.0,0.0,0.0,0.0,0.0,0.0,0.0,0.0,0.0,0.0,0.0,0.0,0.0,0.0,0.0,0.0,0.0,0.0,0.0,0.0,0.0,0.0,0.0,0.0,0.0,0.0,0.0,0.0,0.0,0.0,0.0,0.0,0.0,0.0,0.0,0.0,0.0,0.0,0.0,0.0,0.0,0.0,0.0,0.0,0.0,0.0,0.0,0.0,0.0,0.0,0.0,0.0,0.0,0.0,0.0,0.0,0.0,0.0,0.0,0.0,0.0,0.0,0.0,0.0,0.0,0.0,0.0,0.0,0.0,0.0,0.0,0.0,0.0,0.0,0.0,0.0,0.0,0.0,0.0,0.0,0.0,0.0,0.0,0.0,0.0,0.0,0.0,0.0,0.0,0.0,0.0,0.0,0.0,0.0,0.0,0.0,0.0,0.0,0.0,0.0,0.0,0.0,0.0,0.0,0.0,0.0,0.0,0.0,0.0,0.0,0.0,0.0,0.0,0.0,0.0,0.0,0.0,0.0,0.0,0.0,0.0,0.0,0.0,0.0,0.0,0.0,0.0,0.0,0.0,0.0,0.0,0.0,0.0,0.0,0.0,0.0,0.0,0.0,0.0,0.0,0.0,0.0,0.0,0.0,0.0,0.0,0.0,0.0,0.0,0.0,0.0,0.0,0.0,0.0,0.0,0.0,0.0,0.0,0.0,0.0,0.0,0.0,0.0,0.0,0.0,0.0,0.0,0.0,0.0,0.0,0.0,0.0,0.0,0.0,0.0,0.0,0.0,0.0,0.0,0.0,0.0,0.0,0.0,0.0,0.0,0.0,0.0,0.0,0.0,0.0,0.0,0.0,0.0,0.0,0.0,0.0,0.0,0.0,0.0,0.0,0.0,0.0,0.0,0.0,0.0,0.0,0.0,0.0,0.0,0.0,0.0,0.0,0.0,0.0,0.0,0.0,0.0,0.0,0.0,0.0,0.0,0.0,0.0,0.0,0.0,0.0,0.0,0.0,0.0,0.0,0.0,0.0,0.0,0.0,0.0,0.0,0.0,0.0,0.0,0.0,0.0,0.0,0.0,0.0,0.0,0.0,0.0,0.0,0.0,0.0,0.0,0.0,0.0,0.0,0.0,0.0,0.0,0.0,0.0,0.0,0.0,0.0,0.0,0.0,0.0,0.0,0.0,0.0,0.0,0.0,0.0,0.0,0.0,0.0,0.0,0.0,0.0,0.0,0.0,0.0,0.0,0.0,0.0,0.0,0.0,0.0,0.0,0.0,0.0,0.0,0.0,0.0,0.0,0.0,0.0,0.0,0.0,0.0,0.0,0.0,0.0,0.0,0.0,0.0,0.0,0.0,0.0,0.0,0.0,0.0,0.0,0.0,0.0,0.0,0.0,0.0,0.0,0.0,0.0,0.0,0.0,0.0,0.0,0.0,0.0,0.0,0.0,0.0,0.0,0.0,0.0,0.0,0.0,0.0,0.0,0.0,0.0,0.0,0.0,0.0,0.0,0.0,0.0,0.0,0.0,0.0,0.0,0.0,0.0,0.0,0.0,0.0,0.0,0.0,0.0,0.0,0.0,0.0,0.0,0.0,0.0,0.0,0.0,0.0,0.0,0.0,0.0,0.0,0.0,0.0,0.0,0.0,0.0,0.0,0.0,0.0,0.0,0.0,0.0,0.0,0.0,0.0,0.0,0.0,0.0,0.0,0.0,0.0,0.0,0.0,0.0,0.0,0.0,0.0,0.0,0.0,0.0,0.0,0.0,0.0,0.0,0.0,0.0,0.0,0.0,0.0,0.0,0.0,0.0,0.0,0.0,0.0,0.0,0.0,0.0,0.0,0.0,0.0,0.0,0.0,0.0,0.0,0.0,0.0,0.0,0.0,0.0,0.0,0.0,0.0,0.0,0.0,0.0,0.0,0.0,0.0,0.0,0.0,0.0,0.0,0.0,0.0,0.0,0.0,0.0,0.0,0.0,0.0,0.0,0.0,0.0,0.0,0.0,0.0,0.0,0.0,0.0,0.0,0.0,0.0,0.0,0.0,0.0,0.0,0.0,0.0,0.0,0.0,0.0,0.0,0.0,0.0,0.0,0.0,0.0,0.0,0.0,0.0,0.0,0.0,0.0,0.0,0.0,0.0,0.0,0.0,0.0,0.0,0.0,0.0,0.0,0.0,0.0,0.0,0.0,0.0,0.0,0.0,0.0,0.0,0.0,0.0,0.0,0.0,0.0,0.0,0.0,0.0,0.0,0.0,0.0,0.0,0.0,0.0,0.0,0.0,0.0,0.0,0.0,0.0,0.0,0.0,0.0,0.0,0.0,0.0,-1.1372,-1.1082,0.0,0.0,0.0,0.0,0.0,0.0,0.0,0.0,0.0,0.0,0.0,0.0,0.0,0.0,0.0,0.0,0.0,0.0,0.0,0.0,0.0,0.0,0.0,0.0,0.0,0.0,0.0,0.0,0.0,0.0,0.0,0.0,0.0,0.0,0.0,0.0,0.0,0.0,-1.6522,-1.6522,-1.6522,-1.6522,-1.6522,-1.6522,0.0,0.0,0.0,0.0,0.0,0.0,0.0,0.0,0.0,0.0,0.0,0.0,0.0,0.0,0.0,0.0,0.0,0.0,0.0,0.0,0.0,0.0,0.0,0.0,0.0,0.0,0.0,0.0,0.0,0.0,0.0,0.0,0.0,0.0,0.0,0.0,0.0,0.0,0.0,0.0,0.0,0.0,0.0,0.0,0.0,0.0,0.0,0.0,0.0,0.0,0.0,0.0,0.0,0.0,0.0,0.0,0.0,0.0,0.0,0.0,0.0,0.0,0.0,0.0,0.0,0.0,0.0,0.0,0.0,0.0,-1.257,-1.222,0.0,0.0,0.0,0.0,0.0,0.0,0.0,0.0,0.0,0.0,0.0,0.0,0.0,0.0,0.0,0.0,0.0,0.0,0.0,0.0,0.0,0.0,0.0,0.0,-1.7907,-1.7827,-1.7827,0.0,0.0,0.0,0.0,0.0,0.0,0.0,0.0,-1.6522,-1.6522,-1.6522,-1.6522,-1.6522,-1.6522,-1.6522,-1.6522,-1.6522,-1.6522,0.0,0.0,0.0,0.0,0.0,0.0,0.0,0.0,0.0,0.0,0.0,0.0,0.0,0.0,0.0,0.0,0.0,0.0,0.0,0.0,0.0,0.0,0.0,0.0,0.0,0.0,0.0,0.0,0.0,0.0,0.0,0.0,0.0,0.0,0.0,0.0,0.0,0.0,0.0,0.0,0.0,0.0,0.0,0.0,0.0,0.0,0.0,0.0,0.0,0.0,0.0,0.0,0.0,0.0,0.0,0.0,0.0,0.0,0.0,0.0,0.0,0.0,0.0,-1.193,-1.2173,-1.2232,-1.2828,-1.371,-1.4655,-1.3746,-1.3649,-1.4121,-1.4215,0.0,0.0,0.0,0.0,0.0,0.0,0.0,0.0,0.0,0.0,0.0,0.0,0.0,0.0,0.0,0.0,0.0,0.0,0.0,0.0,0.0,-1.7076,-1.7229,-1.6752,-1.671,-1.671,0.0,0.0,0.0,0.0,0.0,0.0,-1.6522,-1.6522,-1.6522,-1.6522,-1.6522,-1.6522,-1.6522,-1.6522,-1.6522,-1.6522,-1.6522,-1.6522,-1.6522,0.0,0.0,0.0,0.0,0.0,0.0,0.0,0.0,0.0,0.0,0.0,0.0,0.0,0.0,0.0,0.0,0.0,0.0,0.0,0.0,0.0,0.0,0.0,0.0,0.0,0.0,0.0,0.0,0.0,0.0,0.0,0.0,0.0,0.0,0.0,0.0,0.0,0.0,0.0,0.0,0.0,-1.5152,-1.4765,0.0,0.0,0.0,0.0,0.0,0.0,0.0,0.0,0.0,0.0,0.0,0.0,0.0,-1.3547,-1.4615,-1.344,-1.3094,-1.3691,-1.3744,-1.3797,-1.3797,-1.3912,-1.4395,-1.5141,-1.5546,0.0,-1.5336,-1.5846,0.0,0.0,0.0,0.0,0.0,0.0,0.0,0.0,0.0,0.0,0.0,0.0,0.0,0.0,0.0,0.0,0.0,0.0,0.0,0.0,0.0,-1.671,-1.6752,-1.6522,-1.6522,-1.6522,-1.6522,0.0,0.0,0.0,0.0,-1.6522,-1.6522,-1.6522,-1.6522,-1.6522,-1.6522,-1.6522,-1.6522,-1.6795,-1.6951,-1.6951,-1.7271,-1.7229,-1.6951,-1.7188,0.0,0.0,0.0,0.0,0.0,0.0,0.0,0.0,0.0,0.0,0.0,0.0,0.0,0.0,0.0,0.0,0.0,0.0,0.0,0.0,0.0,0.0,0.0,0.0,0.0,0.0,0.0,0.0,0.0,0.0,0.0,0.0,0.0,0.0,0.0,0.0,0.0,0.0,0.0,-1.8113,-1.7543,-1.6751,-1.635,-1.5939,0.0,0.0,0.0,0.0,0.0,0.0,0.0,0.0,0.0,-1.6434,-1.5866,-1.5679,-1.6062,-1.5416,-1.5038,-1.4853,-1.4853,-1.4853,-1.4853,-1.4853,-1.5634,-1.7082,-1.7366,-1.7843,-1.834,-1.7339,-1.6728,-1.6464,0.0,0.0,0.0,0.0,-1.6161,-1.6208,0.0,0.0,0.0,0.0,0.0,0.0,0.0,0.0,0.0,0.0,0.0,0.0,-1.6722,-1.6735,-1.6735,-1.6735,-1.6735,-1.6672,-1.6522,-1.6522,0.0,0.0,0.0,-1.6522,-1.6522,-1.6522,-1.6522,-1.6522,-1.6522,-1.6552,-1.671,-1.7118,-1.7394,-1.7504,-1.7907,-1.7867,-1.7504,-1.7666,-1.7947,-1.8302,0.0,0.0,0.0,0.0,0.0,0.0,0.0,0.0,0.0,0.0,0.0,0.0,0.0,0.0,0.0,0.0,0.0,0.0,0.0,0.0,0.0,0.0,0.0,0.0,0.0,0.0,0.0,0.0,0.0,0.0,0.0,0.0,0.0,0.0,0.0,0.0,0.0,-1.9359,-1.9258,-1.8317,-1.7921,-1.7424,0.0,0.0,0.0,0.0,0.0,0.0,-1.6344,-1.6823,-1.7421,-1.8248,-1.8112,-1.8032,-1.8085,-1.7503,-1.6926,-1.6247,-1.591,-1.5752,-1.5752,-1.5752,-1.6791,-1.8632,-1.8632,-1.95,-2.0765,-1.8902,-1.8189,-1.8127,-1.7482,-1.7365,-1.7522,-1.7832,-1.7933,-1.7958,0.0,0.0,0.0,0.0,0.0,0.0,0.0,0.0,0.0,0.0,0.0,-1.6722,-1.7275,-1.7338,-1.7338,-1.7338,-1.7338,-1.7099,-1.6559,-1.6522,-1.6522,-1.6522,-1.6522,-1.6522,-1.6522,-1.6522,-1.6522,-1.6522,-1.6522,-1.6752,-1.7271,-1.7312,-1.7585,-1.8066,-1.8106,-1.8106,-1.8106,-1.8612,-1.8855,-1.8855,-1.8855,0.0,0.0,0.0,0.0,0.0,0.0,0.0,0.0,0.0,0.0,0.0,0.0,0.0,0.0,0.0,0.0,0.0,0.0,0.0,0.0,0.0,0.0,0.0,0.0,0.0,0.0,0.0,0.0,0.0,0.0,0.0,0.0,0.0,0.0,0.0,0.0,0.0,0.0,-1.8279,-1.862,0.0,0.0,0.0,0.0,-1.7094,-1.7562,-1.8116,-1.8725,-1.8761,-1.9575,-2.1206,-2.0601,-2.0735,-2.1699,-1.9691,-1.8648,-1.8585,-1.7269,-1.6597,-1.6597,-1.6597,-1.7513,-1.9067,-1.9067,-1.9959,-2.1393,-2.079,-2.0539,-2.0476,-1.9872,-1.9997,-2.0423,-1.9872,-1.9659,-1.9597,0.0,0.0,0.0,0.0,0.0,0.0,0.0,0.0,0.0,-1.6522,-1.6848,-1.7149,-1.7363,-1.7388,-1.7388,-1.7388,-1.7036,-1.6735,-1.6491,-1.6522,-1.6685,-1.7049,-1.7074,-1.7237,-1.7601,-1.725,-1.7074,-1.7074,-1.7426,-1.7503,-1.737,-1.807,-1.8682,-1.9252,-1.964,-2.0022,-2.0327,-1.9329,-1.9613,-2.0646,-2.0233,-2.0306,0.0,0.0,0.0,0.0,0.0,0.0,0.0,0.0,0.0,0.0,0.0,0.0,0.0,0.0,0.0,0.0,0.0,0.0,0.0,0.0,0.0,0.0,0.0,0.0,0.0,0.0,0.0,0.0,0.0,0.0,0.0,0.0,0.0,0.0,0.0,0.0,0.0,-2.03,-2.0175,0.0,-1.9527,-1.9302,-1.9076,-1.887,-1.9751,-2.0373,-2.0551,-2.1218,-2.2064,-2.3088,-2.2847,-2.2812,-2.2941,-2.154,-2.0584,-2.0065,-1.8913,-1.8379,-1.8379,-1.8379,-1.897,-2.0079,-2.0665,-2.1578,-2.2684,-2.3157,-2.2498,-2.1204,-2.1368,-2.133,-2.1217,-2.1368,-2.1192,-2.0865,0.0,0.0,0.0,0.0,0.0,0.0,0.0,0.0,-1.6522,-1.6522,-1.6861,-1.7162,-1.7363,-1.7388,-1.7388,-1.7388,-1.7024,-1.6722,-1.6522,-1.6522,-1.6773,-1.735,-1.7564,-1.784,-1.8191,-1.784,-1.7664,-1.7664,-1.8028,-1.8109,-1.7971,-1.9106,-1.9935,-2.0539,-2.1312,-2.2039,-2.2566,-2.1098,-2.0971,-2.1665,-2.1216,-2.144,-2.1949,0.0,0.0,0.0,0.0,0.0,0.0,0.0,0.0,0.0,0.0,0.0,0.0,0.0,0.0,0.0,0.0,0.0,0.0,0.0,0.0,0.0,0.0,0.0,0.0,0.0,0.0,0.0,0.0,0.0,0.0,0.0,0.0,0.0,0.0,-2.1267,-2.1631,-2.1995,-2.1895,-2.1707,-2.1518,-2.133,-2.1217,-2.1217,-2.2083,-2.2686,-2.2862,-2.3577,-2.4318,-2.5084,-2.5109,-2.4996,-2.4791,-2.3675,-2.2729,-2.1945,-2.0472,-1.9775,-1.9775,-1.9423,-1.9775,-2.0673,-2.1563,-2.2525,-2.3356,-2.4406,-2.3954,-2.2648,-2.3012,-2.2937,-2.2661,-2.3025,-2.2924,-2.2585,0.0,0.0,0.0,0.0,0.0,0.0,0.0,-1.6522,-1.6522,-1.6522,-1.6547,-1.6785,-1.735,-1.74,-1.74,-1.74,-1.7375,-1.7124,-1.6584,-1.6522,-1.6785,-1.74,-1.7953,-1.8279,-1.8304,-1.8292,-1.8279,-1.8279,-1.8292,-1.8563,-1.9081,-2.0329,-2.1209,-2.183,-2.3068,-2.3999,-2.4597,-2.3954,-2.2951,-2.1844,-2.1799,-2.2173,-2.2739,0.0,0.0,0.0,0.0,0.0,0.0,0.0,0.0,0.0,0.0,0.0,0.0,0.0,0.0,0.0,0.0,0.0,0.0,0.0,0.0,0.0,0.0,0.0,0.0,0.0,0.0,0.0,0.0,0.0,0.0,0.0,0.0,0.0,-2.1486,-2.2447,-2.3138,-2.3103,-2.369,-2.389,-2.3263,-2.3728,-2.4079,-2.4142,-2.4582,-2.5121,-2.5624,-2.5661,-2.6176,-2.7268,-2.7306,-2.7306,-2.7306,-2.5956,-2.4965,-2.4345,-2.2011,-2.091,-2.0889,-1.9928,-1.9928,-2.0757,-2.1699,-2.2594,-2.3416,-2.4455,-2.487,-2.487,-2.4858,-2.4833,-2.482,-2.4845,-2.4833,-2.4745,0.0,0.0,0.0,0.0,0.0,0.0,0.0,-1.6522,-1.6522,-1.6522,-1.7237,-1.7802,-1.7953,-1.7978,-1.7978,-1.7978,-1.7225,-1.6861,-1.7124,-1.6748,-1.7137,-1.8518,-1.9083,-1.9748,-2.0564,-2.0188,-1.9987,-1.9987,-2.0388,-2.0482,-2.0245,-2.1003,-2.198,-2.3105,-2.3456,-2.4534,-2.6004,-2.533,-2.5136,-2.5166,-2.4208,-2.4208,-2.4732,0.0,0.0,0.0,0.0,0.0,0.0,0.0,0.0,0.0,0.0,0.0,0.0,0.0,0.0,0.0,0.0,0.0,0.0,0.0,0.0,0.0,0.0,0.0,0.0,0.0,0.0,0.0,0.0,0.0,0.0,0.0,-2.1395,-2.2122,-2.2756,-2.3563,-2.3955,-2.3764,-2.5139,-2.6099,-2.5978,-2.5882,-2.6095,-2.6778,-2.6671,-2.6678,-2.6804,-2.7193,-2.7557,-2.7871,-2.7883,-2.7883,-2.7883,-2.6785,-2.591,-2.5385,-2.4459,-2.3793,-2.3364,-2.3503,-2.3743,-2.3949,-2.453,-2.4885,-2.5147,-2.5797,-2.6013,-2.5963,-2.5548,-2.5159,-2.487,-2.5247,-2.5146,-2.4795,0.0,0.0,0.0,0.0,0.0,0.0,0.0,-1.6522,-1.6522,-1.6522,-1.73,-1.7765,-1.7526,-1.7714,-1.7765,-1.7526,-1.7124,-1.6923,-1.7011,-1.7363,-1.8103,-1.9296,-2.01,-2.0815,-2.1481,-2.1179,-2.1016,-2.1016,-2.133,-2.133,-2.1083,-2.2145,-2.3263,-2.4401,-2.5196,-2.6395,-2.7814,-2.744,-2.75,-2.7769,-2.7006,-2.6422,-2.5959,-2.5285,-2.5046,-2.4941,-2.4178,-2.3774,-2.3535,-2.3071,0.0,0.0,0.0,0.0,0.0,0.0,0.0,0.0,0.0,0.0,0.0,0.0,0.0,0.0,0.0,0.0,0.0,0.0,0.0,0.0,0.0,0.0,0.0,0.0,-2.3204,-2.3694,-2.5285,-2.493,-2.5036,-2.6343,-2.7195,-2.7749,-2.8067,-2.8264,-2.8462,-2.8584,-2.8765,-2.8804,-2.8582,-2.8903,-2.8992,-2.8812,-2.8812,-2.8699,-2.8448,-2.789,-2.7297,-2.6773,-2.6083,-2.5616,-2.5252,-2.5179,-2.5171,-2.5215,-2.5608,-2.5815,-2.5852,-2.6305,-2.6533,0.0,0.0,0.0,0.0,0.0,-2.6113,-2.585,0.0,0.0,0.0,0.0,0.0,0.0,0.0,-1.6522,-1.6522,-1.6522,-1.7074,-1.725,-1.6685,-1.7124,-1.7237,-1.666,-1.7087,-1.7212,-1.6823,-1.8367,-1.951,-1.9974,-2.1079,-2.1681,-2.1681,-2.1681,-2.1681,-2.1681,-2.1681,-2.1707,-2.1794,-2.3521,-2.4744,-2.5605,-2.7414,-2.8766,-2.968,-2.9714,-2.9774,-2.9909,-2.9834,-2.8652,-2.6856,-2.6273,-2.6051,-2.6023,-2.5948,-2.5183,-2.4323,-2.4866,0.0,0.0,0.0,0.0,0.0,0.0,0.0,0.0,0.0,0.0,0.0,0.0,0.0,0.0,0.0,0.0,0.0,0.0,0.0,0.0,0.0,0.0,0.0,0.0,-2.5619,-2.5717,-2.8268,-2.6775,-2.6544,-2.9545,-2.9455,-2.9388,-2.984,-3.0692,-3.0869,-3.0057,-3.0733,-3.1035,-3.0703,-3.0527,0.0,0.0,0.0,-2.9541,-2.9038,-2.9026,-2.875,-2.8197,-2.7383,-2.6908,-2.6836,-2.6082,-2.573,-2.5695,-2.595,-2.6056,-2.6093,-2.64,-2.6559,-2.6622,-2.6622,-2.6622,-2.6684,-2.7105,-2.7318,-2.7356,0.0,0.0,0.0,0.0,0.0,0.0,0.0,-1.6522,-1.6522,-1.6522,-1.74,-1.784,-1.7275,-1.7714,-1.7827,-1.7262,-1.7313,-1.7714,-1.8493,-2.01,-2.1054,-2.1154,-2.2221,-2.2811,-2.2811,-2.2811,-2.2811,-2.2811,-2.2811,-2.305,-2.3514,-2.3912,-2.4696,-2.5881,-2.6964,-2.8462,-3.0177,-3.0256,-3.0956,-3.1898,-3.1375,-3.0298,-2.8996,-2.8861,-2.8803,-2.8673,-2.8134,-2.8077,-2.8202,-2.7862,-2.776,-2.7642,-2.7164,-2.6641,0.0,0.0,0.0,0.0,0.0,0.0,0.0,0.0,0.0,0.0,0.0,0.0,0.0,0.0,0.0,0.0,0.0,0.0,0.0,-2.6329,-2.7065,-2.8148,-2.9779,-2.9449,-2.9127,-2.9281,-3.1007,-3.2312,-3.2478,-3.2387,-3.2528,-3.3095,-3.2612,-3.2233,-3.2143,-3.1449,-3.1,-3.0895,-3.0216,-2.9741,-2.9628,-2.9628,-2.934,-2.8775,0.0,0.0,-2.8462,-2.8768,-2.8901,-2.8839,-2.799,-2.763,-2.7628,-2.6797,-2.6716,-2.713,-2.713,-2.713,-2.713,-2.7243,-2.7557,-2.7821,0.0,0.0,0.0,0.0,0.0,0.0,0.0,-1.6522,-1.6522,-1.6522,-1.7262,-1.7576,-1.7011,-1.7451,-1.7564,-1.6999,-1.7212,-1.7965,-1.9321,-2.0464,-2.133,-2.1882,-2.2686,-2.3078,-2.3078,-2.3078,-2.3276,-2.3565,-2.3565,-2.3853,-2.4418,-2.4682,-2.5512,-2.6865,-2.8034,-2.956,-3.1252,-3.1753,-3.2392,-3.2976,-3.2647,-3.1928,-3.0971,-3.0298,-2.984,-2.952,-2.9185,-2.9035,-2.9022,-2.9055,-2.8842,-2.8575,-2.861,-2.8132,-2.7395,0.0,0.0,0.0,0.0,0.0,0.0,0.0,0.0,0.0,0.0,0.0,0.0,0.0,0.0,-2.624,-2.6587,0.0,-2.7553,-2.9218,-2.9703,-3.0334,-3.1762,-3.2145,-3.2153,-3.1821,-3.258,-3.3301,-3.359,-3.3854,-3.4041,-3.4027,-3.4041,-3.3822,-3.331,-3.289,-3.2177,-3.1254,-3.0771,-3.0279,-2.9792,-2.9792,-2.9641,-2.9365,-2.9654,-2.9641,-2.9365,-2.9666,-2.9792,-2.9741,-2.8888,-2.8511,-2.8448,-2.762,-2.7444,-2.772,-2.7996,-2.8109,-2.8109,-2.8109,-2.8285,-2.8436,0.0,0.0,0.0,0.0,0.0,0.0,0.0,0.0,-1.6522,-1.6522,-1.7024,-1.7162,-1.6584,-1.7036,-1.7187,-1.6722,-1.7313,-1.8392,-2.0024,-2.0878,-2.1757,-2.2749,-2.3326,-2.3514,-2.3314,-2.3414,-2.364,-2.4004,-2.4104,-2.4494,-2.5146,-2.5573,-2.6506,-2.7824,-2.9267,-3.0609,-3.1792,-3.2727,-3.3288,-3.3594,-3.3594,-3.3347,-3.2766,-3.1554,-3.0633,-2.9961,-2.9961,-2.9501,-2.9097,-2.9902,-2.963,-2.9102,-2.9765,-2.9492,-2.8786,-2.7844,-2.7625,0.0,0.0,0.0,0.0,0.0,0.0,0.0,0.0,-2.7919,-2.7859,-2.8248,-2.8459,-2.8855,-2.9809,-2.958,-3.0007,-3.2318,-3.2281,-3.2408,-3.3543,-3.4262,-3.4666,-3.4666,-3.4044,-3.3827,-3.4269,-3.5052,-3.5133,-3.4327,-3.517,-3.5259,-3.4214,-3.3994,-3.3128,-3.1413,-3.1097,-3.0558,-2.9792,-2.9792,-2.9792,-2.9792,-2.9792,-2.9792,-2.9792,-2.9792,-2.9792,-2.9767,-2.9176,-2.8875,-2.8737,-2.8285,-2.8172,-2.831,-2.875,-2.9001,-2.9089,-2.8976,-2.9001,-2.9063,0.0,0.0,0.0,0.0,0.0,0.0,0.0,0.0,0.0,-1.6522,-1.7024,-1.7162,-1.6584,-1.7036,-1.735,-1.7287,-1.8242,-1.9547,-2.1192,-2.2761,-2.3904,-2.4506,-2.5046,-2.487,-2.3916,-2.4381,-2.4418,-2.4004,-2.4494,-2.5259,-2.6276,-2.6339,-2.6987,-2.8126,-2.9052,-2.99,-3.0673,-3.1474,-3.2605,-3.3946,-3.3946,-3.4076,-3.4173,-3.344,-3.2322,-3.1197,-3.1197,-3.0775,-3.0386,-3.1702,-3.1334,-3.0402,-3.1149,-3.0891,-2.9939,-2.8113,-2.7625,-2.726,-2.5869,-2.5177,-2.6391,-3.2803,-3.1566,-2.964,0.0,-3.2691,-3.1704,-3.1195,-3.1556,-3.1796,-3.1347,-3.1722,-3.2348,-3.326,-3.3811,-3.4215,-3.4352,-3.4966,-3.5385,-3.5385,-3.532,-3.527,-3.5344,-3.5424,-3.5424,-3.5359,-3.5977,-3.5925,-3.4836,-3.4072,-3.3115,-3.1945,-3.0612,-2.9934,-2.9792,-2.9792,-2.9792,-2.9792,-2.9792,-2.9792,-2.9792,-2.9792,-2.9792,-2.9767,-2.9176,-2.8649,-2.8197,-2.8134,-2.8398,-2.885,-2.89,-2.9239,-2.9628,-2.9114,-2.9252,-2.9553,0.0,0.0,0.0,0.0,0.0,0.0,0.0,0.0,0.0,0.0,-1.6722,-1.6785,-1.6547,-1.6735,-1.7024,-1.735,-1.8392,-1.9736,-2.138,-2.2749,-2.3891,-2.4782,-2.5021,-2.4933,-2.4494,-2.4707,-2.4858,-2.4933,-2.5498,-2.6176,-2.6942,-2.7268,-2.7833,-2.8661,-3.0166,-3.111,-3.1752,-3.3232,-3.4243,-3.4839,-3.4839,-3.4718,-3.4412,-3.3739,-3.266,-3.1349,-3.063,-2.9907,0.0,-3.051,-3.0179,-2.9644,-3.1086,-3.1046,-3.0268,-2.9086,-2.8996,-2.9092,-2.8207,-2.8075,-2.9355,-3.4286,-3.3521,-3.2019,-3.3559,-3.3185,-3.2542,-3.2647,-3.32,-3.3574,-3.3305,-3.3799,-3.4352,-3.4622,-3.522,-3.5519,-3.513,-3.5654,-3.5938,-3.5549,-3.5504,-3.5504,-3.5504,-3.5504,-3.5669,-3.6043,-3.5968,-3.5859,-3.581,-3.4562,-3.3409,-3.2399,-3.125,-3.0343,-2.9792,-2.9792,-2.9792,-2.9792,-2.9792,-2.9792,-2.9792,-2.9792,-2.9792,-2.9779,-2.9528,-2.9302,-2.9089,-2.9089,-2.9227,-2.9428,-2.9428,-2.9578,-2.9767,-2.9528,-2.9578,-2.9729,0.0,0.0,0.0,0.0,0.0,0.0,0.0,0.0,0.0,0.0,-1.671,-1.668,-1.6522,-1.6522,-1.6685,-1.7099,-1.8292,-1.966,-2.1167,-2.2585,-2.3879,-2.4983,-2.5197,-2.5197,-2.5034,-2.5197,-2.546,-2.5837,-2.6402,-2.7042,-2.7745,-2.8147,-2.8637,-2.924,-3.0633,-3.1639,-3.2321,-3.3699,-3.4624,-3.5067,-3.5067,-3.4862,-3.4382,-3.3544,-3.2407,-3.1106,-2.9983,-2.9041,-2.8382,-2.8861,-2.8592,-2.8323,-2.9939,-3.0088,-2.9639,-2.9385,-2.9624,-2.9858,-2.9227,-2.9862,-3.1615,-3.5166,-3.5217,-3.4448,-3.4532,-3.4203,-3.3993,-3.4472,-3.4951,-3.5235,-3.5055,-3.5444,-3.5714,-3.5534,-3.5908,-3.6043,-3.5564,-3.5908,-3.6043,-3.5564,-3.5504,-3.5504,-3.5504,-3.5669,-3.5968,-3.6447,-3.6372,-3.6216,-3.5922,-3.4819,-3.3606,-3.23,-3.1352,-3.0482,-2.9792,-2.9792,-2.9792,-2.9792,-2.9792,-2.9792,-2.9792,-2.9792,-2.9792,-2.9792,-2.9792,-2.9792,-2.9792,-2.9792,-2.9792,-2.9792,-2.9792,-2.9792,-2.9792,-2.9792,-2.9792,-2.9792,0.0,0.0,0.0,0.0,0.0,0.0,0.0,0.0,0.0,0.0,0.0,0.0,0.0,-1.6522,-1.6522,-1.6547,-1.8019,-1.9497,-2.0668,-2.2749,-2.4456,-2.5523,-2.6113,-2.6151,-2.5586,-2.6126,-2.6483,-2.6496,-2.6979,-2.7821,-2.8875,-2.89,-2.9214,-2.9767,-2.9844,-3.0406,-3.1254,-3.1328,-3.2393,-3.4027,-3.4027,-3.4215,-3.4337,-3.3036,-3.1704,-3.0447,-2.9804,-2.8727,-2.7655,-2.7619,-2.72,-2.6767,-2.747,-2.773,-2.7784,-2.8442,-2.8637,-2.8532,-2.7827,-2.9525,-3.2403,-3.6369,-3.7009,-3.6784,-3.7188,-3.7285,-3.727,-3.7285,-3.73,-3.7135,-3.6537,-3.6447,-3.6252,-3.5609,-3.5519,-3.5534,-3.5504,-3.5519,-3.5534,-3.5504,-3.5504,-3.5504,-3.5504,-3.6088,-3.6462,-3.6492,-3.7614,-3.7126,-3.4519,-3.4477,-3.363,-3.1486,-3.041,-2.9869,-2.9792,-2.9792,-2.9792,-2.9792,-2.9792,-2.9792,-2.9792,-2.9792,-2.9792,-2.9792,-2.9792,-2.9792,-2.9792,-2.9792,-2.9792,-2.9792,-2.9792,-2.9792,-2.9792,-2.9792,-2.9792,-2.9792,0.0,0.0,0.0,0.0,0.0,0.0,0.0,0.0,0.0,0.0,0.0,0.0,0.0,0.0,0.0,0.0,-1.794,-1.9108,-2.0618,-2.2058,-2.3376,-2.4481,-2.5398,-2.5799,-2.5598,-2.6163,-2.664,-2.7005,-2.7557,-2.821,-2.8938,-2.9327,-2.9948,-3.0771,-3.1402,-3.2177,-3.3101,-3.3768,-3.4656,-3.5547,-3.4676,-3.4664,-3.4861,-3.2198,-3.0642,-2.9624,0.0,-2.6662,-2.6273,-2.6273,-2.6123,-2.6213,-2.7769,-2.7934,-2.7709,-2.8397,-2.8269,-2.8081,-2.8749,-3.0601,-3.3171,-3.6535,-3.698,-3.6835,-3.7808,-3.7719,-3.7404,-3.7404,-3.6372,-3.5534,-3.5789,-3.51,-3.4577,-3.4786,-3.5579,-3.6013,-3.5564,-3.5878,-3.5998,-3.5549,-3.5504,-3.5669,-3.6118,-3.5968,-3.6193,-3.703,-3.712,-3.6906,-3.6356,-3.5173,-3.3745,-3.2212,-3.0984,-3.0168,-2.9792,-2.9792,-2.9792,-2.9792,-2.9792,-2.9792,-2.9792,-2.9792,-2.9792,-2.9792,-2.9792,-2.9792,-2.9792,-2.9792,-2.9792,-2.9792,-2.9792,-2.9792,-2.9792,-2.9792,-2.9792,-2.9792,0.0,0.0,0.0,0.0,0.0,0.0,0.0,0.0,0.0,0.0,0.0,0.0,0.0,0.0,0.0,0.0,0.0,-1.8442,-1.971,-2.1004,-2.2133,-2.3062,-2.4142,-2.472,-2.472,-2.5084,-2.5548,-2.6113,-2.6666,-2.7318,-2.8059,-2.8624,-2.9452,-3.0371,-3.101,-3.2116,-3.3518,-3.3946,-3.4604,-3.5325,-3.4218,-3.3754,-3.3455,-3.1076,-2.9624,0.0,-2.6662,-2.5503,-2.4917,-2.488,-2.4744,-2.4826,-2.6332,-2.6982,-2.7388,-2.8345,-2.834,-2.8414,-2.9901,-3.1543,-3.3401,-3.6094,-3.6783,-3.709,-3.8153,-3.8257,-3.8063,-3.7808,-3.6567,-3.5519,-3.5504,-3.4592,-3.3754,-3.3469,-3.4158,-3.4651,-3.4457,-3.4801,-3.5175,-3.5474,-3.5714,-3.5923,-3.6118,-3.5968,-3.6193,-3.7015,-3.7135,-3.6936,-3.6285,-3.5159,-3.3854,-3.2484,-3.1279,-3.0444,-3.0093,-3.0093,-2.9993,-2.9792,-2.9792,-2.9792,-2.9792,-2.9792,-2.9792,-2.9792,-2.9792,-2.9792,-2.9792,-2.9792,-2.9792,-2.9792,-2.9792,-2.9792,-2.9792,-2.9792,-2.9792,-2.9792,0.0,0.0,0.0,0.0,0.0,0.0,0.0,0.0,0.0,0.0,0.0,0.0,0.0,0.0,0.0,0.0,0.0,0.0,-1.8176,-1.9699,-2.079,-2.138,-2.246,-2.3002,-2.3027,-2.3065,-2.3427,-2.4004,-2.4519,-2.5335,-2.6496,-2.6929,-2.7733,-2.8824,-2.8824,-3.0163,-3.2331,-3.1792,-3.2208,-3.3257,-3.2632,-3.1601,-3.0421,-2.9689,-2.8682,-2.7485,-2.6782,-2.5324,-2.3789,-2.3718,-2.3393,-2.3057,-2.3583,-2.5128,-2.6944,-2.8322,-2.8882,-2.9375,-3.1023,-3.2205,-3.3339,-3.5067,-3.6424,-3.7539,-3.8197,-3.8841,-3.9125,-3.8437,-3.7719,-3.6836,-3.5624,-3.4846,-3.3769,-3.1943,-3.1631,-3.1958,-3.2572,-3.2691,-3.3425,-3.5325,-3.6133,-3.6297,-3.5669,-3.6163,-3.6537,-3.6537,-3.7629,-3.7126,-3.4547,-3.456,-3.3877,-3.2339,-3.1279,-3.0683,-3.0725,-3.0658,-3.0382,-2.9829,-2.9829,-2.9817,-2.9792,-2.9792,-2.9792,-2.9792,-2.9792,-2.9792,-2.9792,-2.9792,-2.9792,-2.9792,-2.9792,-2.9792,-2.9792,-2.9792,-2.9792,-2.9792,0.0,0.0,0.0,0.0,0.0,0.0,0.0,0.0,0.0,0.0,0.0,0.0,0.0,0.0,0.0,0.0,0.0,0.0,-1.8143,-1.8592,-1.9258,-2.0188,-2.1305,-2.2096,-2.251,-2.2924,-2.3427,-2.4004,-2.4142,-2.4757,-2.5812,-2.5561,-2.6187,-2.7564,-2.7564,-2.8276,-2.9596,-3.0409,-3.0834,-3.1082,-3.1043,-3.0804,-3.0177,-2.8108,-2.7432,-2.736,-2.5628,-2.5077,-2.5129,-2.5105,-2.5655,-2.6466,-2.7098,-2.8299,-2.9659,-3.0526,-3.0777,-3.0906,-3.1372,-3.3155,-3.4927,-3.54,-3.6112,-3.6881,-3.7509,-3.7793,-3.7734,-3.7105,-3.5654,-3.4397,-3.4068,-3.3455,-3.3006,-3.2991,-3.3844,-3.4547,-3.4711,-3.5175,-3.5669,-3.6178,-3.6791,-3.7105,-3.6941,-3.7075,-3.718,-3.718,-3.7045,-3.6581,-3.5596,-3.5311,-3.4533,-3.3314,-3.2272,-3.1996,-3.2358,-3.1576,-3.0934,-3.0407,-3.0407,-3.0193,-2.9792,-2.9792,-2.9792,-2.9792,-2.9792,-2.9792,-2.9792,-2.9792,-2.9792,-2.9792,-2.9792,-2.9792,-2.9792,-2.9792,-2.9792,-2.9792,0.0,0.0,0.0,0.0,0.0,0.0,0.0,0.0,0.0,0.0,0.0,0.0,0.0,0.0,0.0,0.0,0.0,0.0,0.0,-1.7695,-1.8116,-1.8719,-1.9572,-2.0188,-2.0501,-2.1054,-2.1368,-2.1455,-2.2184,-2.2849,-2.3439,-2.3627,-2.4442,-2.5764,-2.5764,-2.637,-2.7509,-2.794,-2.8204,0.0,0.0,-2.8094,-2.7712,-2.6479,-2.6269,-2.65,-2.5675,-2.6038,-2.6867,-2.6574,-2.6916,-2.7538,-2.8326,-2.9437,-3.0703,-3.199,-3.1944,-3.1754,-3.2912,-3.4337,-3.5469,-3.5487,-3.5785,-3.6075,-3.6148,-3.6582,-3.6656,-3.5429,-3.4277,-3.341,-3.3125,-3.2766,-3.2437,-3.2228,-3.3066,-3.3858,-3.4158,-3.4756,-3.5504,-3.6387,-3.7285,-3.7719,-3.7434,-3.7674,-3.7838,-3.7838,-3.7524,-3.702,-3.6375,-3.5503,-3.4719,-3.4109,-3.2623,-3.2143,-3.261,-3.1597,-3.0909,-3.062,-3.0369,-3.0093,-2.9792,-2.9792,-2.9792,-2.9792,0.0,-2.9792,-2.9792,-2.9792,-2.9792,-2.9792,-2.9792,-2.9792,-2.9792,-2.9792,-2.9792,-2.9792,0.0,0.0,0.0,0.0,0.0,0.0,0.0,0.0,0.0,0.0,0.0,0.0,0.0,0.0,0.0,0.0,0.0,0.0,0.0,0.0,-1.7422,-1.751,-1.7966,-1.821,-1.8286,-1.8668,-1.8681,-1.8204,-1.9635,-2.0376,-2.0464,-2.1355,-2.2334,-2.3339,-2.3414,-2.4141,-2.5315,-2.5017,-2.4997,-2.5163,-2.5314,-2.4969,-2.4407,0.0,-2.5287,-2.5508,-2.6229,-2.7249,-2.8275,-2.8057,-2.7911,-2.7945,-2.8958,-3.0002,-3.1331,-3.3196,-3.2907,-3.254,-3.4882,-3.5504,-3.5504,-3.5504,-3.5487,-3.5332,-3.4513,-3.5325,-3.5654,-3.3649,-3.3305,-3.314,-3.2377,-3.2317,-3.2033,-3.0941,-3.1345,-3.2063,-3.2811,-3.3484,-3.4577,-3.6387,-3.7659,-3.8197,-3.7719,-3.8197,-3.8527,-3.8527,-3.8437,-3.7923,-3.6849,-3.5596,-3.4849,-3.4706,-3.2821,-3.1991,-3.2328,-3.1411,-3.0909,-3.0821,-3.0344,-3.0043,-2.9905,-2.9905,-2.9867,-2.9792,-2.9792,-2.9792,-2.9792,-2.9792,-2.9792,-2.9792,-2.9792,-2.9792,-2.9792,-2.9792,-2.9792,-2.9792,0.0,0.0,0.0,0.0,0.0,0.0,0.0,0.0,0.0,0.0,-1.9566,-1.953,0.0,0.0,0.0,0.0,0.0,0.0,0.0,0.0,0.0,-1.8022,-1.814,-1.8427,-1.8852,-1.8516,-1.8304,-1.8204,-1.8493,-1.8869,-1.9309,-1.9045,-1.9258,-1.9911,-2.0338,-2.0671,-2.1023,-2.2441,-2.2701,-2.2343,-2.4028,-2.4218,-2.367,-2.4283,0.0,0.0,-2.6229,-2.6574,-2.6962,-2.9207,-3.0315,-3.1013,-3.2273,-3.3136,-3.3988,-3.4857,-3.5006,-3.4912,-3.5335,-3.5504,-3.5504,-3.5504,-3.5469,-3.517,-3.3963,-3.4262,-3.4262,-3.2273,-3.2302,-3.2302,-3.1076,-3.1315,-3.1809,-3.2123,-3.2721,-3.3574,-3.4816,-3.5549,-3.6282,-3.715,-3.7928,-3.8571,-3.9035,-3.917,-3.9245,-3.9245,-3.8706,-3.8009,-3.704,-3.6616,-3.5878,-3.4733,-3.4314,-3.3778,-3.293,-3.2742,-3.2416,-3.1938,-3.1838,-3.1336,-3.047,-3.047,-3.0218,-2.9792,-2.9792,0.0,-2.9792,-2.9792,-2.9792,-2.9792,-2.9792,-2.9792,-2.9792,-2.9792,-2.9792,-2.9792,0.0,0.0,0.0,0.0,0.0,0.0,0.0,-1.969,-1.969,-1.969,-1.969,-1.9824,-2.0183,-1.9975,-1.9809,0.0,0.0,0.0,0.0,0.0,0.0,0.0,0.0,0.0,-1.8113,-1.8176,-1.8055,-1.7746,0.0,-1.832,-1.8562,-1.8333,-1.8342,-1.8606,-1.8857,-1.897,-1.9044,-2.0211,-2.0513,-2.0355,-2.1863,-2.2459,-2.2472,0.0,0.0,0.0,-2.5673,-2.6078,-2.6663,-2.916,-3.0446,-3.1309,-3.3347,-3.4472,-3.507,-3.5415,-3.5504,-3.5504,-3.5504,-3.5504,-3.5504,-3.5504,-3.4957,-3.4178,-3.3184,-3.323,-3.2991,-3.133,-3.1539,-3.1809,-3.1165,-3.13,-3.1644,-3.1958,-3.2273,-3.2946,-3.4277,-3.5026,-3.5818,-3.6806,-3.7494,-3.8138,-3.8811,-3.8886,-3.8886,-3.8886,-3.8901,-3.8701,-3.8238,-3.768,-3.6646,-3.5074,-3.4832,-3.4428,-3.3953,-3.3094,-3.234,-3.1788,-3.1512,-3.0959,-3.0181,-3.0181,-3.0043,-2.9792,-2.9792,-2.9792,-2.9792,-2.9792,-2.9792,-2.9792,-2.9792,-2.9792,-2.9792,-2.9792,-2.9792,-2.9792,0.0,0.0,0.0,0.0,0.0,0.0,0.0,-1.969,-1.969,-1.969,-1.969,-2.0004,-2.0842,-2.0797,-2.0614,0.0,0.0,0.0,0.0,0.0,0.0,0.0,0.0,0.0,0.0,0.0,0.0,-1.7691,-1.8182,0.0,0.0,0.0,0.0,0.0,-1.8362,-1.8362,-1.8375,-1.8937,-1.9224,0.0,0.0,-2.1147,0.0,0.0,0.0,0.0,0.0,-2.5589,-2.6511,-2.8473,-2.9405,-3.0168,-3.28,-3.4375,-3.5235,-3.4951,-3.5175,-3.5504,-3.5504,-3.5504,-3.5504,-3.5504,-3.4505,-3.3309,-3.2482,-3.2422,-3.2093,-3.0612,-3.0956,-3.1437,-3.1345,-3.1315,-3.1302,-3.1452,-3.1482,-3.2033,-3.3499,-3.4277,-3.5145,-3.6342,-3.703,-3.7614,-3.8123,-3.8182,-3.8242,-3.8377,-3.9035,-3.9424,-3.9424,-3.8144,-3.6886,-3.5626,-3.4739,-3.4345,-3.4345,-3.3013,-3.2177,-3.175,-3.1336,-3.0846,-3.0306,-3.0193,-3.008,-2.9967,-2.9842,-2.9792,-2.9792,-2.9792,-2.9792,-2.9792,-2.9792,-2.9792,-2.9792,-2.9792,-2.9792,-2.9792,0.0,0.0,0.0,0.0,0.0,0.0,0.0,-1.969,-1.969,-1.969,-1.969,-2.0183,-2.147,-2.1066,-2.0923,0.0,0.0,0.0,0.0,0.0,0.0,0.0,0.0,0.0,0.0,0.0,0.0,-1.8921,-1.899,0.0,0.0,0.0,0.0,0.0,0.0,-1.8835,-1.8876,-1.9492,0.0,0.0,0.0,0.0,0.0,0.0,0.0,0.0,0.0,-2.4878,-2.5716,-2.7069,-2.7516,-2.797,-3.0096,-3.2547,-3.4337,-3.314,-3.4083,-3.5504,-3.5504,-3.5504,-3.5504,-3.5504,-3.4505,-3.3176,-3.1856,-3.2078,-3.1973,-3.0058,-3.0657,-3.1345,-3.0717,-3.0597,-3.0806,-3.1377,-3.1482,-3.2198,-3.4113,-3.4981,-3.5684,-3.6402,-3.703,-3.7434,-3.7494,-3.7494,-3.7749,-3.8347,-3.9035,-3.9424,-3.9424,-3.7482,-3.6263,-3.6129,-3.4223,-3.324,-3.324,-3.3104,-3.2968,-3.2918,-3.2867,-3.2554,-3.1976,-3.1474,-3.0984,-3.0507,-3.0005,-2.9792,0.0,-2.9792,-2.9792,-2.9792,-2.9792,-2.9792,-2.9792,-2.9792,-2.9792,-2.9792,0.0,0.0,0.0,0.0,0.0,0.0,-1.969,-1.969,-1.969,-1.969,-1.969,-2.0049,-2.1006,-2.1231,-2.1575,-2.2218,0.0,0.0,0.0,0.0,0.0,0.0,0.0,0.0,0.0,0.0,-1.9322,-1.9563,-1.9642,0.0,0.0,0.0,0.0,0.0,0.0,-1.8796,-1.8506,-1.9432,0.0,0.0,0.0,0.0,0.0,0.0,0.0,0.0,0.0,0.0,-2.4975,-2.6329,-2.6793,-2.683,-2.731,-2.926,-3.1632,-3.2765,-3.3395,-3.3978,-3.5175,-3.5504,-3.5504,-3.5504,-3.391,-3.2344,-3.2661,-3.1988,-3.1195,-3.0836,-3.1165,-3.1392,-3.118,-3.0776,-3.0597,-3.0866,-3.0172,-3.0279,-3.2422,-3.2476,-3.3107,-3.5036,-3.5504,-3.6103,-3.73,-3.7404,-3.7853,-3.8931,-3.8886,-3.8975,-3.9394,-3.8605,-3.813,-3.813,-3.6724,-3.5935,-3.5935,-3.5278,-3.4779,-3.4459,-3.3822,-3.3196,-3.2639,-3.1483,-3.0809,-3.0583,-3.003,-2.9792,0.0,-2.9792,-2.9792,-2.9792,-2.9792,-3.0139,-3.0558,-2.9998,-3.0139,-3.0558,0.0,0.0,0.0,0.0,0.0,-1.969,-1.969,-1.969,-1.969,-1.969,-1.969,-1.9944,-2.0632,-2.1306,-2.1964,-2.2664,-2.2084,0.0,0.0,0.0,0.0,0.0,0.0,0.0,0.0,0.0,-2.0313,-2.0746,-2.0838,-2.114,0.0,0.0,-2.0627,-2.013,0.0,0.0,0.0,0.0,0.0,0.0,0.0,0.0,0.0,0.0,0.0,0.0,0.0,0.0,0.0,0.0,0.0,-2.6343,-2.5657,-2.6723,-2.8653,-3.0778,-3.2065,-3.3066,-3.4292,-3.5055,-3.5459,-3.525,-3.3374,-3.1693,-3.2437,-3.1524,-3.0597,-3.0896,-3.127,-3.1482,-3.1482,-3.1135,-3.0806,-3.0806,-2.9952,-2.9869,-3.1543,-3.1471,-3.198,-3.3883,-3.4524,-3.5245,-3.6319,-3.7029,-3.7883,-3.9035,-3.8856,-3.8901,-3.9394,-3.9424,-3.9265,-3.8943,-3.7904,-3.7343,-3.7343,-3.6604,-3.6004,-3.5604,-3.458,-3.3807,-3.3159,-3.1847,-3.1197,-3.1006,-3.0739,-3.0633,0.0,-3.0633,-3.0633,-3.0633,-3.0633,-3.1057,-3.1536,-3.0846,-3.1057,-3.1536,0.0,0.0,0.0,0.0,0.0,0.0,-1.969,-1.969,-1.969,-1.969,-1.969,-1.9944,-2.0632,-2.1306,-2.1964,-2.2664,-2.2084,0.0,0.0,0.0,0.0,0.0,0.0,0.0,0.0,0.0,-2.135,-2.2652,-2.2652,-2.2981,-2.3565,-2.2951,-2.2652,-2.2592,0.0,0.0,0.0,0.0,0.0,0.0,0.0,0.0,0.0,0.0,0.0,0.0,0.0,0.0,0.0,0.0,0.0,0.0,0.0,-2.5469,-2.5689,-2.6366,-2.9881,-3.335,-3.2721,-3.3993,-3.534,-3.4666,-3.3017,-3.1338,-3.069,-3.0522,-3.0328,-2.9729,-3.0627,-3.1482,-3.1482,-3.1467,-3.1467,-3.1467,-3.1452,-3.1691,-3.2407,-3.3066,-3.3398,-3.3128,-3.4537,-3.5133,-3.4109,-3.6055,-3.7689,-3.8347,-3.9035,-3.9409,-3.9424,-3.9424,-3.8943,-3.7829,-3.6774,-3.6198,-3.6198,-3.6198,-3.6198,-3.6184,-3.5197,-3.4334,-3.3807,-3.308,-3.2501,-3.2011,-3.2436,-3.2593,0.0,-3.2593,-3.2593,-3.2593,-3.2593,-3.2593,-3.2593,-3.2593,-3.2593,-3.2593,0.0,0.0,0.0,0.0,0.0,0.0,0.0,-1.969,-1.969,-1.969,-1.969,-1.9765,-1.9989,-2.1021,-2.1784,-2.1994,-2.1814,0.0,0.0,0.0,0.0,0.0,0.0,0.0,0.0,0.0,-2.0917,-2.1335,-2.2233,-2.2787,-2.2981,-2.3191,-2.3086,-2.2667,-2.2248,-2.1919,0.0,0.0,0.0,0.0,0.0,0.0,-2.4867,0.0,0.0,0.0,0.0,0.0,0.0,0.0,0.0,0.0,0.0,0.0,0.0,-2.5905,-2.7548,-2.9933,-3.2101,-3.4081,-3.4855,-3.2243,-3.0906,-3.0365,-3.1019,-3.0507,-3.0073,-3.0776,-3.124,-3.1482,-3.1482,-3.1482,-3.1616,-3.2138,-3.1662,-3.1389,-3.1594,-3.2192,-3.2562,-3.2493,-3.5008,-3.6492,-3.5762,-3.7163,-3.8167,-3.8377,-3.8182,-3.8452,-3.9364,-3.8975,-3.8773,-3.8929,-3.8531,-3.8368,-3.8368,-3.8368,-3.8368,-3.8368,-3.7357,-3.6704,-3.6452,-3.4719,-3.3764,-3.3608,-3.2891,-3.2593,-3.2593,-3.2593,-3.2593,-3.2593,-3.2593,-3.2961,-3.3449,-3.282,-3.3031,-3.3393,0.0,0.0,0.0,0.0,0.0,0.0,0.0,-1.9818,-1.969,-1.969,-1.969,-1.969,-1.969,-2.0887,-2.1695,-2.1695,-2.1919,0.0,0.0,0.0,0.0,0.0,0.0,0.0,0.0,-2.0737,-2.1081,-2.1081,-2.2158,-2.2724,-2.2724,-2.3071,-2.3176,-2.3011,-2.2787,-2.2577,0.0,0.0,0.0,0.0,0.0,0.0,-2.4761,0.0,0.0,0.0,0.0,0.0,0.0,0.0,0.0,0.0,0.0,0.0,0.0,0.0,-2.5937,-2.7745,-3.0157,-3.216,-3.3003,-3.072,-2.9529,-2.9154,-3.0283,-3.0013,-2.9819,-3.0627,-3.1195,-3.1482,-3.1482,-3.1482,-3.1543,-3.1634,-3.1355,-3.1176,-3.1224,-3.1939,-3.2833,-3.3732,-3.5619,-3.6882,-3.6866,-3.7554,-3.8018,-3.8018,-3.7644,-3.7883,-3.8975,-3.8392,-3.8332,-3.9005,-3.9035,-3.9035,-3.9035,-3.9035,-3.8916,-3.8661,-3.7813,-3.7209,-3.672,-3.5246,-3.4461,-3.4195,-3.3873,-3.3685,0.0,-3.3685,-3.3685,-3.3685,-3.3685,-3.4041,-3.4476,-3.3905,-3.4041,-3.4418,0.0,0.0,0.0,0.0,0.0,0.0,0.0,-1.9965,-1.9711,-1.9711,-1.969,-1.969,-1.969,-2.0842,-2.162,-2.162,0.0,0.0,0.0,0.0,0.0,0.0,0.0,0.0,-2.0632,-2.1291,-2.162,-2.162,-2.2278,-2.2649,-2.2649,-2.2649,-2.2936,-2.3505,-2.2936,-2.3026,0.0,0.0,0.0,0.0,0.0,0.0,0.0,0.0,0.0,0.0,0.0,0.0,0.0,0.0,0.0,0.0,0.0,0.0,0.0,0.0,0.0,0.0,0.0,-2.8586,-2.9778,-2.9988,-2.8719,-2.7725,-2.8614,-2.9184,0.0,-2.9564,-3.0582,-3.1407,-3.1407,-3.1437,-3.1161,-3.0447,-3.0797,-3.1123,-3.1171,-3.2357,-3.3987,-3.6201,-3.63,-3.6426,-3.7142,-3.733,-3.7389,-3.7345,-3.73,-3.7584,-3.8287,-3.7704,-3.7644,-3.8302,-3.8287,-3.8302,-3.8392,-3.8392,-3.8078,-3.7479,-3.7054,-3.6245,-3.5175,-3.5091,-3.4675,0.0,-3.5096,-3.5504,-3.5504,-3.5504,-3.5504,-3.5504,-3.5504,-3.5504,-3.5504,-3.5504,-3.5504,-3.5489,0.0,0.0,0.0,0.0,0.0,0.0,0.0,0.0,0.0,0.0,-1.969,-1.969,-1.969,-2.0438,-2.0946,0.0,0.0,0.0,0.0,0.0,0.0,0.0,0.0,0.0,-1.9929,-2.0602,-2.0946,-2.0946,-2.1605,-2.1934,-2.1934,-2.1934,-2.2263,-2.2933,-2.2742,-2.3026,0.0,0.0,0.0,0.0,0.0,0.0,0.0,0.0,0.0,0.0,-2.3849,-2.3939,0.0,0.0,0.0,0.0,0.0,0.0,0.0,0.0,-2.6614,-2.726,-2.6916,0.0,-2.5564,-2.7669,-2.7328,-2.6693,0.0,-2.8375,-2.8966,-2.9475,-3.0208,-3.0746,-3.0746,-3.0675,-3.0669,-3.0935,-3.0906,-3.0922,-3.104,-3.2739,-3.4359,-3.5618,-3.6945,-3.7139,-3.5355,-3.6522,-3.721,-3.6746,-3.6237,-3.6447,-3.7584,-3.7045,-3.6985,-3.7629,-3.718,-3.7404,-3.8377,-3.8392,-3.8317,-3.8153,-3.757,-3.7104,-3.6793,-3.6333,-3.6037,-3.5926,-3.5648,-3.5504,-3.5504,-3.5504,-3.5504,-3.5504,-3.5504,-3.5504,-3.5504,-3.5504,-3.5504,-3.5429,0.0,0.0,0.0,0.0,0.0,0.0,0.0,0.0,0.0,0.0,0.0,-1.969,-1.969,-2.0303,0.0,0.0,0.0,0.0,0.0,0.0,0.0,0.0,0.0,-1.969,-1.969,-2.0662,-2.1021,-2.0722,-2.168,-2.1994,-2.1695,-2.1695,-2.2054,-2.2724,-2.2981,-2.3281,0.0,0.0,0.0,0.0,-2.3595,0.0,0.0,0.0,0.0,0.0,-2.3595,-2.3595,0.0,-2.3231,-2.357,-2.4104,0.0,0.0,0.0,0.0,-2.6363,-2.7036,-2.6692,-2.5991,-2.5423,-2.5602,-2.6257,-2.6923,-2.7498,-2.8114,-2.8786,-2.9445,-3.0073,-3.0597,-3.0911,-3.0909,-3.0908,-3.1185,-3.1311,-3.1475,-3.1777,-3.3107,-3.453,-3.5663,-3.6841,-3.7075,-3.5938,-3.6522,-3.6716,-3.6088,-3.5714,-3.5938,-3.6926,-3.6671,-3.6641,-3.6971,-3.6941,-3.7105,-3.7509,-3.7524,-3.736,-3.706,-3.7,-3.6821,-3.6522,-3.6193,-3.6028,-3.6013,-3.5669,-3.5504,-3.5504,-3.5504,-3.5504,-3.5504,-3.5504,-3.5504,-3.5504,-3.5504,-3.5504,-3.5444,0.0,0.0,0.0,0.0,0.0,0.0,0.0,0.0,0.0,0.0,0.0,0.0,0.0,0.0,0.0,0.0,0.0,0.0,0.0,0.0,0.0,0.0,0.0,-1.969,-1.969,-2.0902,-2.1276,-2.0722,-2.1829,-2.2084,-2.1545,-2.144,-2.1799,-2.2604,-2.3281,-2.3595,0.0,-2.3595,-2.3595,-2.3595,-2.3595,0.0,0.0,0.0,0.0,0.0,0.0,0.0,0.0,-2.3595,-2.3595,-2.3595,-2.3595,0.0,0.0,0.0,0.0,0.0,-2.6557,-2.7066,-2.7036,-2.4624,-2.5739,-2.7458,-2.7575,-2.8023,-2.8607,-2.916,-2.9849,-3.0537,-3.1135,-3.1275,-3.1265,-3.1069,-3.1651,-3.2354,-3.3017,-3.3827,-3.4864,-3.6122,-3.6458,-3.6761,-3.709,-3.6731,-3.6252,-3.5699,-3.5564,-3.5789,-3.6447,-3.6387,-3.6387,-3.6492,-3.7,-3.706,-3.6626,-3.6537,-3.6207,-3.5669,-3.6118,-3.6043,-3.5504,-3.5504,-3.5504,-3.5504,0.0,0.0,-3.5504,-3.5504,-3.5504,-3.5504,-3.5504,-3.5504,-3.5504,-3.5504,-3.5504,-3.5504,0.0,0.0,0.0,0.0,0.0,0.0,0.0,0.0,0.0,0.0,0.0,0.0,0.0,0.0,0.0,0.0,0.0,0.0,0.0,0.0,0.0,-2.0722,-2.0049,-1.969,-1.969,-2.0468,-2.0812,-2.0722,-2.0917,-2.0961,-2.0857,-2.0273,-2.0662,-2.1904,-2.3071,-2.3595,-2.3595,-2.3595,-2.3595,-2.3595,-2.3595,0.0,0.0,0.0,0.0,0.0,0.0,0.0,0.0,-2.3595,-2.3595,-2.3595,-2.3595,0.0,0.0,0.0,0.0,0.0,-2.6437,-2.7066,-2.75,-2.7051,-2.6828,-2.6826,-2.7473,-2.77,-2.7754,-2.791,-2.8861,-2.9759,-2.9864,-3.0234,-3.0478,-3.0444,-3.144,-3.2774,-3.4436,-3.5512,-3.6186,-3.6462,-3.6933,-3.6881,-3.5893,-3.6207,-3.6447,-3.6342,-3.5818,-3.5789,-3.6447,-3.5953,-3.5908,-3.6477,-3.6582,-3.6836,-3.727,-3.6746,-3.6432,-3.6327,-3.5878,-3.5609,-3.5504,-3.5504,-3.5504,-3.5504,0.0,-3.5504,-3.5504,-3.5504,-3.5504,-3.5504,-3.5504,-3.5504,-3.5504,-3.5504,-3.5504,-3.5504,0.0,0.0,0.0,0.0,0.0,0.0,0.0,0.0,0.0,0.0,0.0,0.0,0.0,0.0,0.0,0.0,0.0,0.0,0.0,0.0,-2.0543,-2.0183,-1.9854,-1.969,-1.969,-2.0363,-2.0722,-2.0722,-2.1066,-2.1051,-2.0722,-2.1007,-2.1491,-2.2164,-2.3453,-2.4032,-2.3991,-2.3709,-2.3752,-2.3991,0.0,0.0,0.0,0.0,0.0,0.0,0.0,0.0,0.0,0.0,-2.3595,-2.3595,-2.3595,0.0,0.0,0.0,0.0,0.0,-2.5884,-2.6542,-2.725,-2.8082,-2.8047,-2.7787,-2.7614,-2.7625,-2.7835,-2.8502,-2.9146,-2.9909,-3.0971,-3.1338,-3.1823,-3.2897,-3.3143,-3.3465,-3.4412,-3.4622,-3.4963,-3.5736,-3.5807,-3.6148,-3.6985,-3.6716,-3.6492,-3.6492,-3.6207,-3.6013,-3.5953,-3.6013,-3.6178,-3.6477,-3.6492,-3.6791,-3.7404,-3.6447,-3.6133,-3.6477,-3.5818,-3.5504,-3.5504,-3.5504,-3.5504,-3.5504,0.0,-3.5504,-3.5504,-3.5504,-3.5504,-3.5504,-3.5504,-3.5504,-3.5504,-3.5504,-3.5504,-3.5504,0.0,0.0,0.0,0.0,0.0,0.0,0.0,0.0,0.0,0.0,0.0,0.0,0.0,0.0,0.0,0.0,0.0,0.0,0.0,0.0,-2.0243,-1.9705,-1.969,-1.969,-1.969,-2.0198,-2.0483,-2.0483,-2.0976,-2.1038,-2.0617,-2.184,-2.2397,-2.2421,-2.3785,-2.4389,-2.4348,-2.3837,-2.3921,-2.4348,0.0,0.0,0.0,0.0,0.0,0.0,0.0,0.0,0.0,0.0,0.0,0.0,0.0,0.0,0.0,-2.3595,-2.3969,-2.4567,-2.539,-2.6093,-2.6939,-2.8258,-2.8595,-2.8486,-2.8,-2.788,-2.8143,-2.934,-2.9699,-3.0268,-3.1764,-3.2302,-3.3125,-3.4966,-3.4604,-3.4263,-3.4718,-3.4089,-3.4118,-3.539,-3.5073,-3.5564,-3.7734,-3.6926,-3.6312,-3.6477,-3.6342,-3.6103,-3.5744,-3.6073,-3.6327,-3.6492,-3.6492,-3.6791,-3.7404,-3.6447,-3.6133,-3.6477,-3.5818,-3.5504,-3.5504,-3.5504,-3.5504,-3.5504,-3.5504,-3.5504,-3.5504,-3.5504,-3.5504,-3.5504,-3.5504,-3.5504,-3.5504,-3.5504,-3.5504,-3.5504,0.0,0.0,0.0,0.0,0.0,0.0,0.0,0.0,0.0,0.0,0.0,0.0,0.0,0.0,0.0,0.0,0.0,0.0,0.0,0.0,-1.9735,-1.969,-1.969,-1.969,-1.969,-1.9735,-1.975,-1.975,-1.9809,-1.9995,-2.0354,-2.174,-2.2375,-2.2377,-2.3785,-2.4389,-2.4348,-2.3837,-2.3921,-2.4348,-2.3837,0.0,0.0,0.0,0.0,0.0,0.0,0.0,0.0,0.0,0.0,0.0,0.0,0.0,-2.3595,-2.3595,-2.3625,-2.3954,-2.5255,-2.6093,-2.6767,-2.7505,-2.7685,-2.7895,-2.8636,-2.8659,-2.8727,-2.943,-3.0043,-3.0477,-3.0627,-3.1674,-3.2961,-3.4322,-3.4547,-3.4902,-3.6156,-3.5768,-3.5618,-3.6335,-3.5863,-3.5744,-3.6552,-3.5983,-3.5833,-3.6432,-3.5923,-3.5818,-3.6387,-3.5878,-3.5863,-3.6462,-3.6492,-3.6791,-3.7404,-3.7315,-3.7,-3.6477,-3.5818,-3.5504,-3.5504,-3.5504,-3.5504,-3.5504,-3.5504,-3.5504,-3.5504,-3.5504,-3.5504,-3.5504,-3.5504,-3.5504,-3.5504,-3.5504,-3.5504,-3.5504,0.0,0.0,0.0,0.0,0.0,0.0,0.0,0.0,0.0,0.0,0.0,0.0,0.0,0.0,0.0,0.0,0.0,0.0,0.0,-1.969,-1.969,-1.969,-1.969,-1.969,-1.969,-1.969,-1.969,-1.969,-1.969,-2.0284,-2.1431,-2.2448,-2.3275,-2.4007,-2.4975,-2.5373,-2.5373,-2.4816,-2.4894,-2.5335,-2.4471,-2.4307,0.0,0.0,0.0,0.0,0.0,0.0,0.0,0.0,-2.3595,-2.3595,-2.3595,-2.3595,-2.3595,-2.3595,-2.3595,-2.3894,-2.5241,-2.6093,-2.6752,-2.741,-2.7889,-2.8181,-2.8137,-2.8891,-2.9522,-2.9232,-3.0571,-3.1884,-3.2287,-3.3469,-3.4532,-3.504,-3.5115,-3.5429,-3.6357,-3.5923,-3.5744,-3.6417,-3.5908,-3.5908,-3.6956,-3.6492,-3.6222,-3.6462,-3.6252,-3.6043,-3.5893,-3.5639,-3.5804,-3.6462,-3.6088,-3.6372,-3.7404,-3.703,-3.6911,-3.706,-3.6806,-3.6492,-3.6118,-3.6118,-3.5893,-3.5504,-3.5504,-3.5504,-3.5504,-3.5504,-3.5504,-3.5504,-3.5504,-3.5504,-3.5504,-3.5504,-3.5504,-3.5569,0.0,0.0,0.0,0.0,0.0,0.0,0.0,0.0,0.0,0.0,0.0,0.0,0.0,0.0,0.0,0.0,0.0,0.0,-1.9711,-1.969,-1.969,-1.969,-1.969,-1.969,-1.969,-1.969,-1.969,-1.969,-1.9899,-2.0727,-2.2098,-2.3079,-2.4035,-2.4975,-2.5683,-2.6013,-2.5961,-2.5411,-2.5486,-2.5924,-2.5028,-2.4855,0.0,0.0,0.0,0.0,0.0,0.0,0.0,0.0,-2.3595,-2.3565,-2.337,-2.3445,-2.3565,-2.337,-2.3595,-2.4163,-2.53,-2.6093,-2.6752,-2.741,-2.8083,-2.8569,-2.8462,-2.9134,-2.9839,-3.0012,-3.1334,-3.2706,-3.338,-3.4247,-3.5011,-3.5429,-3.5504,-3.5729,-3.6387,-3.5923,-3.5669,-3.6118,-3.5774,-3.5848,-3.6731,-3.6432,-3.6178,-3.6178,-3.6178,-3.5983,-3.5534,-3.5504,-3.5829,-3.6496,-3.6073,-3.6383,-3.7525,-3.7051,-3.7041,-3.7464,-3.7436,-3.709,-3.6477,-3.6267,-3.5923,-3.5504,-3.5504,-3.5504,-3.5504,-3.5504,-3.5504,-3.5504,-3.5782,-3.5831,-3.5831,-3.5831,-3.5831,-3.5958,0.0,0.0,0.0,0.0,0.0,0.0,0.0,0.0,0.0,0.0,0.0,0.0,0.0,0.0,0.0,0.0,0.0,0.0,-1.9726,-1.9726,-1.9711,-1.969,-1.969,-1.969,-1.969,-1.969,-1.9726,-1.9726,-2.0378,-2.1182,-2.2163,-2.3542,-2.4418,-2.4855,-2.5631,-2.6013,-2.5961,-2.5449,-2.554,-2.5961,-2.5411,-2.5221,-2.5144,0.0,0.0,0.0,0.0,0.0,0.0,0.0,-2.3595,-2.349,-2.2877,-2.3101,-2.3475,-2.2862,-2.361,-2.4716,-2.5435,-2.6093,-2.6752,-2.746,-2.8113,-2.8921,-2.9963,-2.9551,-2.9589,-3.2005,-3.2527,-3.2721,-3.338,-3.3499,-3.3948,-3.528,-3.5504,-3.5729,-3.6387,-3.5908,-3.5504,-3.5504,-3.5504,-3.5504,-3.5504,-3.5504,-3.5504,-3.5504,-3.5504,-3.5504,-3.5504,-3.5504,-3.5831,-3.6615,-3.66,-3.6964,-3.7806,-3.7653,-3.7622,-3.7622,-3.7449,-3.7075,-3.6462,-3.5804,-3.5504,-3.5504,-3.5504,-3.5504,-3.5504,-3.5504,-3.5504,-3.5554,-3.6337,-3.6615,-3.6615,-3.6615,-3.6615,-3.6615,0.0,0.0,0.0,0.0,0.0,0.0,0.0,0.0,0.0,0.0,0.0,0.0,0.0,0.0,0.0,0.0,0.0,0.0,-2.0158,-2.0124,-2.0,-1.9711,-1.969,-1.969,-1.969,-2.0168,-2.03,-2.0124,-2.0511,-2.1595,-2.3375,-2.3942,-2.4909,-2.6151,-2.637,-2.647,-2.647,-2.6315,-2.6367,-2.6436,-2.5961,-2.5762,-2.5652,0.0,0.0,0.0,0.0,0.0,0.0,0.0,0.0,0.0,-2.3385,-2.3445,-2.3565,-2.3385,-2.3595,-2.4163,-2.53,-2.6093,-2.6856,-2.8008,-2.9131,-3.0148,-3.0929,-3.0896,-3.1456,-3.4046,-3.3622,-3.3002,-3.4023,-3.4577,-3.4876,-3.4801,-3.519,-3.5579,-3.5774,-3.5624,-3.5504,-3.5504,-3.5504,-3.5504,-3.5504,-3.5504,-3.5504,-3.5504,-3.6006,-3.6275,-3.6275,-3.6829,-3.7235,-3.7456,-3.744,-3.7573,-3.7822,-3.8213,-3.8426,-3.8426,-3.8402,-3.7743,-3.6477,-3.6282,-3.5953,-3.5504,-3.5504,-3.5504,-3.5569,-3.6054,-3.6275,-3.6337,-3.716,-3.71,-3.6676,-3.7219,-3.71,-3.6783,0.0,0.0,0.0,0.0,0.0,0.0,0.0,0.0,0.0,0.0,-2.1735,0.0,0.0,0.0,0.0,0.0,0.0,0.0,0.0,-2.0384,-2.0354,-2.0094,-2.0348,-2.0483,-2.0483,-2.0887,-2.1039,-2.0843,-2.1295,-2.2255,-2.3713,-2.4333,-2.5265,-2.6436,-2.6624,-2.6691,-2.6691,-2.6691,-2.6691,-2.6691,-2.6401,-2.6297,-2.6175,0.0,0.0,0.0,0.0,0.0,0.0,0.0,0.0,0.0,-2.3595,-2.3789,-2.3954,-2.3684,-2.4163,-2.4911,-2.545,-2.6482,-2.759,-2.8397,-2.9774,-3.1222,-3.2342,-3.2613,-3.323,-3.5091,-3.4403,-3.3764,-3.4726,-3.4996,-3.5055,-3.4906,-3.5235,-3.5504,-3.5504,-3.5504,-3.5619,-3.5894,-3.5943,-3.607,-3.6368,-3.6117,-3.607,-3.6368,-3.6508,-3.6722,-3.704,-3.7515,-3.7921,-3.8262,-3.8246,-3.8374,-3.8723,-3.8796,-3.8836,-3.8836,-3.8563,-3.7925,-3.7046,-3.7046,-3.6815,-3.6368,-3.607,-3.6133,-3.643,-3.6569,-3.6783,-3.7144,-3.7962,-3.7946,-3.7584,-3.8076,-3.7946,-3.7642,0.0,0.0,0.0,0.0,0.0,0.0,0.0,0.0,0.0,0.0,-2.1507,-2.115,0.0,0.0,0.0,0.0,0.0,0.0,0.0,0.0,-2.0783,-2.0707,-2.1335,-2.1695,-2.1695,-2.1754,-2.1784,-2.1784,-2.2383,-2.2965,-2.3499,-2.4655,-2.5486,-2.6085,-2.6505,-2.6691,-2.6691,-2.6691,-2.6691,-2.6691,-2.6657,-2.6624,-2.6539,-2.5524,0.0,0.0,0.0,0.0,0.0,0.0,0.0,0.0,-2.3744,-2.4133,-2.4373,-2.3864,-2.4986,-2.6303,-2.5749,-2.7021,-2.8532,-2.8667,-3.0163,-3.2105,-3.3893,-3.4378,-3.4651,-3.5359,-3.5123,-3.4928,-3.54,-3.5045,-3.4883,-3.54,-3.5504,-3.5504,-3.5504,-3.5554,-3.5831,-3.6492,-3.6661,-3.6964,-3.7748,-3.7144,-3.7024,-3.7748,-3.7203,-3.7144,-3.7863,-3.7978,-3.8318,-3.8978,-3.9032,-3.9368,-4.007,-3.9368,-3.9032,-3.9016,-3.8318,-3.7978,-3.7978,-3.7863,-3.7822,-3.7748,-3.7024,-3.7144,-3.7764,-3.7084,-3.7263,-3.7978,-3.869,-3.8962,-3.8908,-3.8962,-3.8962,-3.8908,0.0,0.0,0.0,0.0,0.0,0.0,0.0,0.0,0.0,0.0,0.0,0.0,0.0,0.0,0.0,0.0,0.0,0.0,0.0,0.0,-2.1419,-2.0707,-2.1335,-2.1695,-2.1695,-2.2203,-2.2458,-2.2458,-2.2649,-2.3151,-2.4031,-2.4846,-2.5672,-2.6539,-2.6657,-2.6691,-2.6691,-2.6691,-2.6691,-2.6657,-2.6297,-2.6156,-2.6033,-2.4973,-2.4576,0.0,0.0,0.0,0.0,0.0,0.0,0.0,-2.4837,-2.4552,-2.3894,-2.4298,-2.4717,-2.5136,-2.551,-2.6677,-2.8053,-2.9101,-3.0851,-3.2796,-3.4804,-3.4706,-3.4505,-3.5353,-3.6338,-3.6754,-3.5729,-3.5885,-3.5997,-3.5589,-3.5504,-3.5504,-3.5504,-3.6006,-3.6446,-3.6615,-3.716,-3.7632,-3.7748,-3.7632,-3.7632,-3.7822,-3.8189,-3.8453,-3.8635,-3.9279,-3.9679,-3.9833,-3.9833,-3.9901,-4.007,-3.9952,-3.9833,-3.9833,-3.9679,-3.9627,-3.9558,-3.8374,-3.7822,-3.7806,-3.7632,-3.7632,-3.7806,-3.823,-3.8509,-3.8745,-3.9542,-3.9437,-3.8962,-3.961,-3.9437,-3.8962,0.0,0.0,0.0,0.0,0.0,0.0,0.0,0.0,0.0,0.0,0.0,0.0,0.0,0.0,0.0,0.0,0.0,0.0,0.0,0.0,-2.1949,-2.2069,-2.2428,-2.2607,-2.2607,-2.2936,-2.3116,-2.3116,-2.3116,-2.3529,-2.4295,-2.493,-2.5598,-2.6367,-2.659,-2.659,-2.6367,-2.6367,-2.6367,-2.6332,-2.6085,-2.612,-2.621,-2.5166,-2.4776,-2.4672,-2.3879,0.0,0.0,0.0,0.0,0.0,0.0,0.0,-2.4567,-2.4567,-2.53,-2.5974,-2.5689,-2.7036,-2.8936,-3.0582,-3.1749,-3.2886,-3.4224,-3.4691,-3.4826,-3.4893,-3.5826,-3.6593,-3.63,-3.6155,-3.6054,-3.6054,-3.6006,-3.618,-3.6538,-3.6935,-3.7322,-3.7642,-3.806,-3.8486,-3.8887,-3.8541,-3.8486,-3.8887,-3.8924,-3.9086,-3.9437,-3.9885,-4.007,-4.007,-4.007,-4.007,-4.007,-4.007,-4.007,-4.007,-4.007,-4.007,-4.007,-3.9279,-3.8887,-3.8887,-3.8486,-3.8541,-3.8887,-3.8924,-3.9139,-3.9489,-3.9952,-3.9833,-3.9542,-3.9952,-3.9833,-3.9542,0.0,0.0,0.0,0.0,0.0,0.0,0.0,0.0,0.0,0.0,0.0,0.0,0.0,0.0,0.0,0.0,0.0,0.0,0.0,0.0,0.0,-2.3535,-2.3595,-2.3595,-2.3595,-2.3595,-2.3595,-2.3595,-2.3595,-2.3879,-2.4389,-2.4855,-2.5449,-2.612,-2.6436,-2.6367,-2.6013,-2.6013,-2.5961,-2.5852,-2.5762,-2.5944,-2.6193,-2.5281,-2.4973,-2.495,-2.4074,-2.3767,-2.3739,-2.3859,0.0,0.0,0.0,0.0,-2.5181,-2.4701,-2.5779,-2.6826,-2.5734,-2.7395,-2.9864,-3.1704,-3.2258,-3.2512,-3.317,-3.4072,-3.4723,-3.4262,-3.5093,-3.6118,-3.6896,-3.6447,-3.6194,-3.6753,-3.6783,-3.7024,-3.769,-3.7921,-3.8206,-3.8854,-3.9032,-3.9368,-4.002,-3.9489,-3.9368,-4.007,-3.9489,-3.9368,-4.007,-4.007,-4.007,-4.007,-4.007,-4.007,-4.007,-4.007,-4.007,-4.007,-4.007,-4.007,-4.007,-4.007,-4.007,-4.007,-3.9385,-3.9489,-4.007,-3.9368,-3.9489,-4.007,-4.007,-4.007,-4.007,-4.007,-4.007,-4.007,0.0,0.0,0.0,0.0,0.0,0.0,0.0,0.0,0.0,0.0,-2.0682,-2.0261,0.0,0.0,0.0,0.0,0.0,0.0,-1.9818,0.0,0.0,-2.3535,-2.3595,-2.3595,-2.3595,-2.3595,-2.3595,-2.3595,-2.3595,-2.3879,-2.4389,-2.4471,-2.5281,-2.659,-2.6262,-2.6049,-2.6013,-2.6013,-2.5726,-2.5259,-2.4776,-2.4657,-2.4657,-2.4032,-2.4116,-2.4511,-2.4348,-2.4266,-2.4359,-2.4976,-2.445,0.0,0.0,0.0,-2.3969,-2.4433,-2.4761,-2.4986,-2.4761,-2.6707,-2.9056,-3.0432,-3.1225,-3.1839,-3.2497,-3.2303,-3.2481,-3.3923,-3.5984,-3.7405,-3.7064,-3.7629,-3.8057,-3.7679,-3.7632,-3.769,-3.7748,-3.8358,-3.8799,-3.8908,-3.9489,-3.9952,-4.007,-4.002,-3.9952,-4.007,-4.002,-4.002,-4.007,-4.007,-4.007,-4.007,-4.007,-4.007,-4.007,-4.007,-4.007,-4.007,-4.007,-4.007,-4.007,-4.007,-4.007,-4.007,-4.002,-4.002,-4.007,-3.9952,-4.002,-4.007,-4.007,-4.007,-4.007,-4.007,-4.007,-4.007,0.0,0.0,0.0,0.0,0.0,0.0,0.0,0.0,0.0,0.0,0.0,-2.0431,0.0,0.0,0.0,-1.969,-1.9874,-2.004,-2.0228,-2.1156,-2.2113,-2.3041,-2.3415,-2.3595,-2.3595,-2.3595,-2.3595,-2.3595,-2.3595,-2.3879,-2.4389,-2.4074,-2.4617,-2.5855,-2.5961,-2.5652,-2.5144,-2.5411,-2.5259,-2.4736,-2.4511,-2.4736,-2.5221,-2.4348,-2.4592,-2.5182,-2.4266,-2.4348,-2.4839,-2.4828,-2.4694,-2.4539,-2.482,0.0,0.0,0.0,-2.4582,-2.533,-2.6078,-2.7126,-2.8427,-3.0088,-3.0731,-3.1135,-3.1809,-3.199,-3.2184,-3.2601,-3.412,-3.5354,-3.5091,-3.6974,-3.8334,-3.7546,-3.7633,-3.7954,-3.8401,-3.8733,-3.909,-3.9508,-3.9901,-4.007,-4.007,-4.007,-4.007,-4.007,-4.007,-4.007,-4.007,-4.007,-4.007,-4.007,-4.007,-4.007,-4.007,-4.007,-4.007,-4.007,-4.007,-4.007,-4.007,-4.007,-4.007,-4.007,-4.007,-4.007,-4.007,-4.007,-4.007,-4.007,-4.007,-4.007,-4.007,-4.007,-4.007,-4.007,0.0,0.0,0.0,0.0,0.0,0.0,0.0,0.0,0.0,0.0,0.0,0.0,0.0,0.0,0.0,0.0,-1.969,-1.9974,-2.0677,-2.1335,-2.1994,-2.2694,-2.3266,-2.3595,-2.3595,-2.3595,-2.3595,-2.3595,-2.3595,-2.3794,-2.4199,-2.3794,-2.4032,-2.4831,-2.5335,-2.5221,-2.4617,-2.5012,-2.4816,-2.4184,-2.4348,-2.4855,-2.5503,-2.4697,-2.4973,-2.5652,-2.443,-2.4402,-2.4866,-2.4689,-2.4744,-2.4866,-2.4689,-2.4951,0.0,0.0,0.0,-2.5561,-2.6723,-2.7214,-2.7709,-2.9355,-3.0133,-3.0642,-3.115,-3.1779,-3.2124,-3.159,-3.23,-3.3078,-3.3291,-3.5767,-3.7748,-3.7531,-3.765,-3.8036,-3.8668,-3.8717,-3.892,-3.9462,-3.9529,-3.9529,-3.9529,-3.9529,-3.9597,-3.9783,-3.9631,-3.9681,-4.0054,-3.9901,-3.9884,-4.007,-4.007,-4.007,-4.007,-4.007,-4.007,-4.007,-4.007,-4.007,-4.007,-4.007,-4.007,-4.007,-4.007,-4.007,-4.007,-4.007,-4.007,-4.007,-4.007,-4.007,-4.007,-4.007,-4.007,-4.007,0.0,0.0,0.0,0.0,0.0,0.0,0.0,0.0,0.0,0.0,0.0,0.0,-2.028,-1.9945,-1.969,-1.969,-1.969,-1.9974,-2.0677,-2.1335,-2.1994,-2.2694,-2.3266,0.0,-2.3595,-2.3595,-2.3595,-2.3595,-2.3595,-2.3595,-2.3638,-2.3595,-2.3638,-2.3724,-2.4225,-2.4736,-2.5182,-2.5182,-2.4592,-2.3681,-2.4199,-2.443,-2.4471,-2.443,-2.4752,-2.5221,-2.5144,-2.4691,-2.4281,-2.492,-2.4713,-2.4281,-2.4936,-2.516,-2.5192,0.0,0.0,0.0,-2.5327,-2.6077,-2.6811,-2.7595,-2.9131,-3.0507,-3.0552,-3.1091,-3.1511,-3.1497,-3.1575,-3.1885,-3.2653,-3.4462,-3.6339,-3.8216,-3.8159,-3.7908,-3.7956,-3.7973,-3.7973,-3.8024,-3.8024,-3.8024,-3.8024,-3.8024,-3.8311,-3.8988,-3.8413,-3.8616,-4.0003,-3.9428,-3.9377,-4.0054,-4.007,-4.007,-4.007,-4.007,-4.007,-4.007,-4.007,-4.007,-4.007,-4.007,-4.007,-4.007,-4.007,-4.007,-4.007,-4.007,-4.007,-4.007,-4.007,-4.007,-4.007,-4.007,-4.007,-4.007,0.0,0.0,0.0,0.0,0.0,0.0,0.0,0.0,0.0,0.0,0.0,0.0,0.0,-1.9782,-1.969,-1.969,-1.969,-1.9794,-2.0034,-2.0692,-2.1365,-2.2024,-2.2667,-2.3191,-2.3595,-2.3595,-2.3595,-2.3595,-2.3206,-2.3206,-2.3595,-2.3191,-2.3417,-2.4116,-2.4307,-2.4511,-2.4712,-2.4712,-2.4471,-2.4116,-2.4307,-2.4592,-2.4894,-2.4894,-2.5259,-2.5615,-2.4934,-2.4752,-2.4862,-2.5102,-2.525,-2.5362,-2.5607,-2.5503,-2.5128,-2.4792,-2.4776,-2.4973,-2.5299,-2.5905,-2.6656,-2.739,-2.8427,-2.9385,-2.9819,-3.0417,-3.0866,-3.0866,-3.1203,-3.1601,-3.1889,-3.3988,-3.5632,-3.5794,-3.6606,-3.7178,-3.7178,-3.7178,-3.7364,-3.7838,-3.7905,-3.7905,-3.7905,-3.7905,-3.8024,-3.8278,-3.8058,-3.8142,-3.865,-3.8447,-3.8413,-3.8684,-3.914,-3.9377,-3.9377,-3.9377,-3.9377,-3.9394,-3.9851,-4.007,-4.007,-4.007,-4.007,-4.007,-4.007,-4.007,-4.007,-4.007,-4.007,-4.007,-4.007,-4.007,-4.007,-4.007,-4.007,-4.007,0.0,0.0,0.0,0.0,0.0,0.0,0.0,0.0,0.0,-2.0174,0.0,0.0,0.0,0.0,-1.969,-1.969,-1.969,-1.969,-1.969,-2.0333,-2.1006,-2.1665,-2.2323,-2.2966,-2.3595,-2.3595,-2.3595,-2.3595,-2.3191,-2.3086,-2.3281,-2.3071,-2.3405,-2.4064,-2.4092,-2.4348,-2.4672,-2.4471,-2.4511,-2.4657,-2.4471,-2.4712,-2.5182,-2.5012,-2.5144,-2.5406,-2.4898,-2.4957,-2.5214,-2.5454,-2.5847,-2.6227,-2.6227,-2.598,-2.5538,-2.4665,-2.4735,-2.5078,-2.5171,-2.5576,-2.6153,-2.699,-2.7875,-2.8707,-2.9388,-2.9892,-3.0248,-3.0437,-3.0803,-3.1087,-3.106,-3.3061,-3.4726,-3.4736,-3.5669,-3.64,-3.64,-3.64,-3.6569,-3.7077,-3.7144,-3.7144,-3.7144,-3.7144,-3.7246,-3.7499,-3.728,0.0,-3.7872,-3.7669,-3.7652,-3.7905,-3.8616,-3.8988,-3.8988,-3.9242,-3.936,-3.936,-3.9851,-4.007,-4.007,-4.007,-4.007,-4.007,-4.007,-4.007,-4.007,-4.007,-4.007,-4.007,-4.007,-4.007,-4.007,-4.007,-4.007,-4.007,0.0,0.0,0.0,0.0,0.0,0.0,0.0,0.0,-2.0483,-2.091,0.0,0.0,0.0,0.0,0.0,-1.969,-1.9705,-1.972,-1.972,-2.0348,-2.1021,-2.1695,-2.2323,-2.2936,-2.3595,-2.3595,-2.3595,-2.3565,-2.3565,-2.3251,-2.2667,-2.3281,-2.35,-2.3374,-2.3534,-2.4184,-2.5112,-2.4617,-2.4712,-2.5128,-2.4632,-2.4712,-2.516,-2.4632,-2.4446,-2.457,-2.5211,-2.5381,-2.5381,-2.6023,-2.6475,-2.6708,-2.6674,-2.6657,-2.637,-2.4915,-2.4645,-2.4806,0.0,0.0,0.0,-2.6196,-2.7396,-2.8523,-2.9268,-2.952,-2.972,-3.0371,-3.0357,-3.0232,-3.0167,-3.1743,-3.3567,-3.529,-3.556,-3.5622,-3.5622,-3.5622,-3.5622,-3.5622,-3.5622,-3.5622,-3.5622,-3.5622,-3.5926,-3.6688,-3.6045,-3.6265,-3.7753,-3.7144,-3.7094,-3.7838,-3.8531,-3.8903,-3.892,-3.9631,-3.9969,-3.9969,-4.0003,-4.002,-4.0054,-4.0054,-4.0054,-4.007,-4.007,-4.007,-4.007,-4.007,-4.007,-4.007,-4.007,-4.007,-4.007,-4.007,-4.007,-4.007,0.0,0.0,0.0,0.0,0.0,-2.1899,-2.1244,-2.0959,-2.0632,0.0,0.0,0.0,-1.9839,-1.9782,-1.969,-1.969,-2.0139,-2.0423,-2.0423,-2.0617,-2.1216,-2.2353,-2.2128,-2.2473,-2.358,-2.3595,-2.3385,-2.2936,-2.2936,-2.2607,-2.1979,-2.2622,-2.2915,-2.2914,-2.3396,-2.3732,-2.3873,-2.3819,-2.4348,-2.5128,-2.4632,-2.5011,-2.5918,-2.5659,-2.594,-2.6506,-2.6606,-2.6687,-2.6881,-2.7467,-2.7344,-2.6789,-2.5675,-2.5598,-2.5645,-2.4314,-2.4596,-2.5296,-2.4891,0.0,0.0,0.0,0.0,0.0,-2.7798,-2.8396,-2.8978,-2.9654,-3.0904,-3.1413,-3.003,-3.1741,-3.3477,-3.3951,-3.4919,-3.5622,-3.5622,-3.5622,-3.5622,-3.5622,-3.5622,-3.5622,-3.5622,-3.5622,-3.5707,0.0,-3.574,-3.5808,-3.6231,-3.6062,-3.6299,-3.706,-3.6738,-3.6823,-3.7381,-3.7584,-3.7686,-3.7702,-3.8244,-3.8785,-3.9292,-3.9292,-3.958,-4.007,-4.007,-4.007,-4.007,-4.007,-4.007,-4.007,-4.007,-4.007,-4.007,-4.007,-4.007,-4.007,0.0,0.0,0.0,0.0,0.0,-2.184,-2.1323,-2.0943,-2.0532,0.0,0.0,0.0,-1.969,-1.969,-1.969,-1.969,-2.0318,-2.0722,-2.0722,-2.0976,-2.159,-2.2664,-2.2308,-2.2577,-2.358,-2.3595,-2.3295,-2.2724,-2.2724,-2.2338,-2.171,-2.2368,-2.2776,-2.3021,-2.3438,-2.3542,-2.3398,-2.3277,-2.3825,-2.4729,-2.4281,-2.4782,-2.5857,-2.583,-2.6278,-2.7026,-2.747,-2.7688,-2.7818,-2.8425,-2.8058,-2.7161,-2.5962,-2.5799,-2.5713,-2.4061,-2.4525,-2.5459,-2.4846,-2.5512,-2.6399,-2.6464,0.0,0.0,-2.791,-2.8271,-2.8683,-2.964,-3.0576,-3.1023,-3.0529,-3.1621,-3.2583,-3.25,-3.3957,-3.5043,-3.4755,-3.4953,-3.5161,-3.5174,-3.5424,-3.5622,-3.5622,-3.5622,-3.5622,-3.5622,-3.5622,-3.5622,-3.5622,-3.5622,-3.5825,-3.6282,-3.618,-3.6315,-3.6772,-3.7094,-3.7246,-3.7263,-3.7702,-3.8125,-3.8548,-3.8853,-3.9225,-3.9648,-3.9952,-4.007,-4.007,-4.007,-4.007,-4.007,-4.007,-4.007,-4.007,-4.007,-4.007,-4.007,0.0,0.0,-2.2282,-2.2237,-2.1899,-2.1552,-2.146,-2.083,-2.0348,0.0,-1.9909,-1.969,-1.969,-1.969,-1.972,-1.9794,-2.0423,-2.0857,-2.0932,-2.1485,-2.2099,-2.2757,-2.2679,-2.2892,-2.3595,-2.346,-2.3146,-2.2724,-2.2649,-2.2233,-2.1605,-2.2338,-2.2879,-2.3226,-2.3402,-2.3409,-2.3196,-2.2778,-2.3124,-2.3893,-2.3701,-2.4331,-2.5416,-2.5633,-2.6127,-2.6886,-2.8126,-2.8559,-2.8622,-2.9145,-2.877,-2.7891,-2.6996,-2.6691,-2.6268,-2.4137,-2.4509,-2.5456,-2.478,-2.5152,-2.5899,-2.6697,-2.6824,0.0,-2.8606,-2.8533,-2.8533,-2.9772,-2.9821,-3.0012,-3.1297,-3.1544,-3.1457,-3.1112,-3.2719,-3.3906,-3.3644,-3.4125,-3.4561,-3.4717,-3.5078,-3.5397,-3.5487,-3.5504,-3.5504,-3.5504,-3.5571,-3.5622,-3.5622,-3.5622,-3.5622,-3.5622,-3.6282,-3.6654,-3.6654,-3.7313,-3.7652,-3.7652,-3.7652,-3.7736,-3.7922,-3.8582,-3.8954,-3.9157,-3.98,-4.007,-4.007,-4.007,-4.007,-4.007,-4.007,-4.007,-4.007,-4.007,-4.007,-4.007,0.0,-2.231,-2.218,-2.1794,-2.1658,-2.1352,-2.0667,-2.0715,-2.0599,-1.9909,-1.9747,-1.969,-1.969,-1.969,-1.9914,-2.0468,-2.1126,-2.1724,-2.2263,-2.2413,-2.2757,-2.3385,-2.2443,-2.2428,-2.358,-2.2592,-2.2263,-2.2724,-2.2143,-2.1545,-2.0932,-2.2113,-2.2465,-2.2049,-2.2645,-2.257,-2.2018,-2.1914,-2.1994,-2.2267,-2.3215,-2.4331,-2.5505,-2.6546,-2.7392,-2.8169,-2.935,-3.013,-3.0549,-3.0073,-2.9812,-2.9313,-2.7317,-2.6691,-2.637,-2.4746,-2.4898,-2.5575,-2.5423,-2.593,-2.6522,-2.669,-2.6478,0.0,-2.7169,-2.7344,-2.7574,-2.8375,-2.9762,-3.0914,-3.1233,-3.1926,-3.1976,-3.047,-3.0588,-3.1672,-3.3984,-3.4451,-3.4792,-3.5345,-3.4535,-3.4122,-3.4665,-3.4709,-3.4709,-3.4709,-3.5267,-3.5622,-3.5622,-3.5622,-3.5622,-3.5622,-3.5774,-3.5842,-3.5842,-3.5994,-3.6062,-3.6062,-3.6062,-3.6721,-3.7905,-3.8058,-3.8751,-3.9868,-4.002,-4.007,-4.007,-4.007,-4.007,-4.007,-4.007,-4.007,-4.007,-4.007,-4.007,-4.007,-2.231,-2.231,-2.2225,-2.2003,-2.1598,-2.1134,-2.0715,-2.0465,-2.0174,-1.9747,-1.969,-1.969,-1.969,-1.9989,-2.0333,-2.0677,-2.162,-2.2323,-2.2694,-2.2966,-2.3266,-2.3595,-2.2981,-2.2802,-2.3131,-2.2817,-2.2503,-2.2188,-2.1859,-2.153,-2.1216,-2.1545,-2.1695,-2.171,-2.2039,-2.1814,-2.1201,-2.1201,-2.1201,-2.1321,-2.2622,-2.3887,-2.5116,-2.6056,-2.6862,-2.7576,-2.8758,-2.9799,-3.0598,-3.0226,-2.9854,-2.9414,-2.8636,-2.7875,-2.7029,-2.5913,-2.6116,-2.6556,-2.5812,-2.6133,-2.6691,-2.6691,-2.6505,0.0,0.0,-2.7718,-2.8256,-2.897,-2.9916,-3.0746,-3.1122,-3.1219,-3.1066,-3.0659,-3.0261,-3.0542,-3.2078,-3.276,-3.334,-3.4022,-3.4087,-3.419,-3.4501,-3.4852,-3.5064,-3.5064,-3.5402,-3.5453,-3.5081,-3.5064,-3.5064,-3.5064,-3.4709,-3.4878,-3.556,-3.525,-3.525,-3.5622,-3.5622,-3.6028,-3.6789,-3.7567,-3.8311,-3.9039,-3.9766,-4.007,-4.0054,-3.9681,-3.9529,-3.958,-3.9935,-3.9631,-3.9089,-3.9817,-3.9851,-3.958,-2.231,-2.231,-2.2282,-2.218,-2.1524,-2.0959,-2.0862,-2.0277,-1.9818,-1.9818,-1.9747,-1.969,-1.969,-2.0183,-2.0572,-2.0707,-2.168,-2.2398,-2.2667,-2.3146,-2.343,-2.343,-2.343,-2.3191,-2.2724,-2.3041,-2.2847,-2.2069,-2.1695,-2.1575,-2.168,-2.1021,-2.0991,-2.1515,-2.1515,-2.1276,-2.0902,-2.0767,-2.0857,-2.1186,-2.2248,-2.331,-2.4327,-2.5302,-2.5963,-2.6467,-2.764,-2.8849,-2.9905,-2.9676,-2.9362,-2.908,-2.9307,-2.8669,-2.77,-2.6808,-2.7147,-2.7502,-2.6184,-2.6251,-2.6691,-2.6691,-2.681,-2.7063,0.0,0.0,0.0,-2.977,-3.0006,-3.0294,-3.0869,-3.0425,-3.0184,-3.0847,-3.0547,-3.0252,-3.0371,-3.0911,-3.1715,-3.2857,-3.3473,-3.4023,-3.4559,-3.5052,-3.5362,-3.5407,-3.5404,-3.5086,-3.4391,-3.4297,-3.4229,-3.4139,-3.3668,-3.3981,-3.5182,-3.4726,-3.4793,-3.5402,-3.5554,-3.569,-3.5876,-3.7127,-3.7838,-3.8176,-3.936,-3.9868,-3.9817,-3.9242,-3.8819,-3.8633,-3.9377,-3.8937,-3.8075,-3.9394,-3.9495,-3.9106,-2.231,-2.231,-2.218,-2.1748,-2.1306,-2.0862,-2.0449,-2.0314,-2.0212,-2.0212,-1.9909,-1.969,-1.969,-1.975,-2.0049,-2.0662,-2.0857,-2.144,-2.2607,-2.2742,-2.2787,-2.2787,-2.2787,-2.2783,-2.2724,-2.2173,-2.2398,-2.3385,-2.1665,-2.1126,-2.168,-2.1021,-2.0752,-2.0827,-2.0827,-2.1111,-2.1545,-2.0961,-2.1395,-2.2473,-2.2664,-2.2813,-2.317,-2.5472,-2.6072,-2.5784,-2.7054,-2.8323,-2.9204,-2.807,-2.8396,-2.8973,-2.7266,-2.7375,-2.7893,-2.6482,-2.6902,-2.7603,-2.6793,-2.664,-2.6691,-2.6691,-2.7199,-2.7723,-2.7772,0.0,-2.9008,-2.9093,0.0,-3.0142,-3.0226,0.0,0.0,-3.022,-3.0634,-3.1132,-3.1323,-3.0935,-3.1565,-3.4075,-3.2368,-3.1874,-3.4267,-3.4609,-3.4657,-3.4688,-3.4722,-3.4444,-3.3727,-3.366,-3.3333,-3.2734,-3.3168,-3.3491,-3.366,-3.4218,-3.4539,-3.4624,-3.5301,-3.5977,-3.6654,-3.6823,-3.7618,-3.887,-3.9039,-3.9106,-3.9106,-3.9022,-3.821,-3.711,-3.7855,-3.8058,-3.8007,-3.8819,-3.9056,-3.9106,-2.231,-2.231,-2.2237,-2.2032,-2.1446,-2.0926,-2.0731,-2.0261,-1.9929,-1.9929,-2.0128,-2.0288,-2.0288,-2.0961,-2.138,-2.1291,-2.1635,-2.2084,-2.2679,-2.2724,-2.2847,-2.3191,-2.3206,-2.3041,-2.2724,-2.2757,-2.2892,-2.3071,-2.1874,-2.1425,-2.168,-2.0617,-2.0124,-2.0124,-2.0124,-2.0498,-2.1111,-2.0842,-2.1261,-2.2173,-2.2906,-2.2996,-2.2843,-2.4273,-2.4833,-2.4999,-2.5963,-2.6821,-2.7559,-2.7437,-2.7736,-2.8086,-2.7628,-2.7872,-2.8208,-2.7941,-2.8224,-2.8415,-2.755,-2.7672,-2.7909,-2.7452,-2.7588,-2.7789,-2.7789,-2.8416,-2.9011,-2.9011,0.0,0.0,0.0,0.0,0.0,0.0,-3.043,-3.1232,-3.1316,-3.0787,-3.1309,-3.3726,-3.2657,0.0,-3.3838,-3.435,-3.4411,-3.3999,-3.399,-3.3691,-3.2897,-3.2907,-3.2961,-3.3031,-3.3262,-3.3609,-3.4032,-3.3914,-3.4083,-3.4489,-3.481,-3.5368,-3.6129,-3.6569,-3.7127,-3.7736,-3.8176,-3.8362,-3.8328,-3.7889,-3.7347,-3.6772,-3.6637,-3.6857,-3.7449,-3.9039,-3.936,-3.9039,-2.231,-2.231,-2.231,-2.231,-2.1584,-2.0926,-2.0665,-2.0208,-1.9878,-1.9966,-2.0408,-2.0782,-2.0961,-2.1829,-2.2218,-2.1739,-2.1964,-2.2218,-2.2398,-2.2413,-2.2607,-2.3056,-2.3415,-2.331,-2.2724,-2.3281,-2.3385,-2.2936,-2.2099,-2.1695,-2.1665,-2.0318,-1.969,-1.969,-1.9884,-2.0348,-2.0991,-2.1171,-2.162,-2.2293,-2.3236,-2.3325,-2.2981,-2.343,-2.3837,-2.4261,-2.4795,-2.5467,-2.6125,-2.6303,-2.6582,0.0,-2.7257,-2.7672,-2.8132,-2.8567,-2.9041,-2.9237,-2.8376,-2.8399,-2.8535,-2.796,-2.7789,-2.784,-2.8095,-2.8569,-2.9093,-2.9499,-2.9871,0.0,0.0,0.0,-3.0015,-2.9677,0.0,-3.1348,-3.1772,-3.1077,-3.1267,-3.3073,-3.3052,-3.2882,0.0,-3.3793,-3.394,-3.3064,-3.3161,-3.2829,-3.185,-3.2249,-3.2508,-3.253,-3.3102,-3.3457,-3.3592,-3.3474,-3.3677,-3.4201,-3.4387,-3.4895,-3.5639,-3.6197,-3.6586,-3.6806,-3.7364,-3.7601,-3.755,-3.7009,-3.6654,-3.6417,-3.6079,-3.6282,-3.6975,-3.8582,-3.8836,-3.8413,-2.231,-2.231,-2.231,-2.231,-2.1584,-2.0698,-1.9889,-2.007,-2.0369,-2.0625,-2.0707,-2.0961,-2.1605,-2.171,-2.1724,-2.1695,-2.1141,-2.1051,-2.168,-2.1724,-2.1739,-2.1754,-2.2936,-2.331,-2.2724,-2.3281,-2.3595,-2.3565,-2.2308,-2.1695,-2.1665,-2.0318,-1.969,-1.972,-2.0378,-2.1051,-2.171,-2.2338,-2.2981,-2.3535,-2.358,-2.3595,-2.3565,-2.3595,-2.3595,-2.3638,-2.3668,-2.4447,0.0,-2.4109,-2.4536,0.0,0.0,0.0,-2.7435,-2.7352,-2.8639,-2.9901,-2.9161,-2.8416,-2.7823,-2.7789,-2.7789,-2.801,-2.8772,-2.8958,-2.9397,-3.0835,-3.0581,-3.0328,-3.1055,-3.1193,-3.1147,-3.1106,-3.1193,0.0,0.0,-3.2131,-3.1544,-3.2361,-3.3073,-3.2946,-3.1685,-3.2767,-3.3029,-3.1778,-3.2168,-3.1888,-3.0635,-3.174,-3.178,-3.045,-3.2337,-3.273,-3.1309,-3.2696,-3.3423,-3.344,-3.415,-3.4895,-3.5622,-3.5639,-3.6062,-3.6772,-3.6806,-3.6823,-3.6806,-3.6789,-3.6332,-3.5723,-3.6451,-3.6755,-3.6789,-3.6857,-3.6874,-3.6958,-2.2412,-2.231,-2.231,-2.231,-2.1811,-2.1263,-2.0828,-2.0956,-2.1316,-2.1939,-2.1635,-2.1769,-2.2832,-2.2951,-2.2802,-2.2383,-2.2143,-2.2113,-2.2338,-2.2338,-2.2532,-2.2936,-2.337,-2.3505,-2.3295,-2.349,-2.3595,-2.3595,-2.2323,-2.1695,-2.1665,-2.0318,-1.969,-1.972,-2.0408,-2.1081,-2.1739,-2.2439,-2.3041,-2.3595,-2.3595,-2.3879,-2.4223,-2.3774,-2.3595,-2.3595,-2.3595,-2.3859,0.0,-2.3756,-2.4461,-2.5516,-2.5317,-2.6597,-2.8196,-2.8554,-2.944,-3.0142,0.0,0.0,-2.9939,-2.9448,0.0,-2.9397,-2.9668,-2.9347,-2.9262,-3.0277,-3.0277,-3.0328,-3.1055,-3.1179,-3.1201,-3.119,-3.1179,-3.137,0.0,-3.1549,-3.1405,-3.166,-3.2773,-3.3326,-3.2955,-3.3272,-3.3111,-3.2192,-3.2321,-3.2077,-3.1059,-3.2409,-3.2714,-3.1715,-3.3292,-3.3406,-3.1935,-3.2408,-3.2662,-3.2662,-3.2899,-3.3677,-3.4878,-3.4878,-3.5301,-3.6011,-3.6011,-3.6011,-3.6011,-3.6011,-3.5859,-3.5639,-3.591,-3.6011,-3.6129,-3.7144,-3.7533,-3.7483,-2.2784,-2.2496,-2.2395,-2.2649,-2.2664,-2.2408,-2.1795,-2.2108,-2.2512,-2.2686,-2.2503,-2.2682,-2.3505,-2.3595,-2.343,-2.3041,-2.2802,-2.2724,-2.2724,-2.2724,-2.2847,-2.3251,-2.349,-2.3595,-2.3595,-2.3595,-2.3681,-2.3879,-2.2671,-2.2144,-2.2282,-2.0775,-2.0168,-2.0423,-2.0857,-2.1425,-2.2084,-2.2742,-2.3236,-2.3595,-2.3595,-2.3864,-2.4223,-2.3759,-2.3595,-2.3595,0.0,-2.3595,-2.3595,-2.3595,-2.4343,-2.53,-2.554,-2.6918,-2.8589,-2.9191,-2.9978,-3.0599,-3.0499,-3.0649,0.0,-3.0226,-2.9905,0.0,-3.004,-2.9533,-2.9262,-3.0294,-3.0294,-3.0328,-3.1055,-3.119,-3.119,-3.119,-3.119,-3.119,0.0,-3.1457,-3.1656,-3.1656,-3.2327,-3.2789,-3.2798,-3.2789,-3.246,-3.1759,-3.1937,-3.1858,-3.1336,-3.2724,-3.3306,-3.2768,-3.3883,-3.3914,-3.2696,-3.2408,-3.2408,-3.2679,-3.2408,-3.2916,-3.4117,-3.4117,-3.437,-3.4844,-3.4844,-3.4979,-3.5216,-3.5216,-3.5368,-3.5622,-3.5622,-3.5622,-3.574,-3.6738,-3.7094,-3.7026,-2.346,-2.2919,-2.2682,-2.3393,-2.4069,-2.4097,-2.2723,-2.3417,-2.3815,-2.2964,-2.3263,-2.358,-2.364,-2.3625,-2.3595,-2.3595,-2.3056,-2.2727,-2.2727,-2.2768,-2.2753,-2.2768,-2.3323,-2.3638,-2.3595,-2.3638,-2.3879,-2.4389,-2.3325,-2.2991,-2.3336,-2.1591,-2.1096,-2.1695,-2.1724,-2.2084,-2.2753,-2.3325,-2.3595,-2.3595,-2.3595,-2.3595,-2.3595,-2.3595,-2.3595,-2.3595,-2.3595,-2.3625,-2.364,-2.361,-2.4103,-2.4776,-2.542,-2.6931,-2.8581,-2.9198,-3.0251,-3.119,-3.119,-3.0683,-3.0159,-3.0159,-2.9617,0.0,0.0,0.0,-2.9448,-3.0903,-3.0615,-3.0328,-3.1055,-3.119,-3.119,-3.119,-3.119,-3.119,-3.119,-3.1782,-3.2263,-3.2263,-3.1729,-3.1422,-3.1486,-3.147,-3.1166,-3.0541,-3.101,-3.1364,-3.1391,-3.2689,-3.3423,-3.3313,-3.4049,-3.4066,-3.3305,-3.2594,-3.2594,-3.3288,-3.256,-3.2611,-3.3355,-3.3355,-3.3372,-3.3406,-3.3406,-3.3795,-3.4438,-3.4472,-3.4912,-3.5571,-3.5605,-3.5622,-3.5622,-3.5622,-3.5622,-3.5622,-2.4337,-2.4509,-2.4814,-2.5,-2.5186,-2.5061,-2.4284,-2.4197,-2.43,-2.4683,-2.3655,-2.3281,-2.4253,-2.3909,-2.3595,-2.3595,-2.3445,-2.3355,-2.3355,-2.3747,-2.3788,-2.3398,-2.3914,-2.3991,-2.3595,-2.3991,-2.4266,-2.4389,-2.4021,-2.3692,-2.339,-2.2401,-2.1858,-2.1724,-2.2203,-2.2514,-2.2731,-2.3353,-2.3595,-2.3595,-2.3595,-2.3595,-2.3595,0.0,-2.3595,-2.3595,-2.3595,-2.391,-2.4268,-2.3789,-2.4702,-2.6033,-2.5704,-2.7226,-2.9166,-2.9342,-3.0251,-3.119,-3.119,-3.1055,-3.092,-3.092,-3.0768,-3.0666,0.0,0.0,0.0,0.0,0.0,0.0,0.0,-3.119,-3.119,-3.119,-3.119,-3.119,-3.119,-3.136,-3.1461,-3.1461,-3.1331,-3.1683,-3.2784,-3.2383,-3.1983,-3.1842,-3.1968,-3.1825,-3.1364,0.0,-3.348,-3.1868,-3.3017,-3.3068,-3.1782,-3.1562,-3.1562,-3.1765,-3.1562,-3.185,-3.256,-3.256,-3.2882,-3.3406,-3.3406,-3.3508,-3.3728,-3.4269,-3.4607,-3.4844,-3.5402,-3.5622,-3.5622,-3.5622,-3.5622,-3.5622,-2.505,-2.5321,-2.5609,-2.5609,-2.5916,-2.6094,-2.5848,-2.5542,-2.542,-2.5461,-2.4802,-2.4303,-2.4163,-2.4307,-2.4405,-2.4447,-2.4368,-2.4446,-2.474,-2.456,-2.4282,-2.3948,-2.3991,-2.3921,-2.3595,-2.3799,-2.4175,-2.4752,-2.4354,-2.4286,-2.4503,-2.3374,-2.2844,-2.2892,-2.2727,-2.2862,-2.311,-2.3473,-2.3595,-2.3595,-2.3595,-2.3595,0.0,-2.3595,-2.3595,-2.3595,-2.3595,-2.4044,-2.4476,-2.382,-2.4926,-2.6482,-2.5809,-2.718,-2.9042,-2.9316,-3.0081,-3.0878,-3.1151,-3.119,-3.119,-3.119,-3.119,-3.119,-3.119,-3.0869,-3.07,0.0,-3.1123,-3.1089,0.0,0.0,-3.1562,-3.1241,-3.119,-3.119,-3.119,-3.119,-3.119,-3.119,-3.119,-3.1529,-3.2357,-3.1765,-3.1461,-3.1782,-3.1799,-3.1813,0.0,0.0,-3.3455,-3.2257,-3.3001,-3.3,-3.2171,-3.1833,-3.1664,-3.1664,-3.1343,-3.141,-3.1799,-3.1799,-3.2036,-3.2442,-3.2442,-3.2797,-3.344,-3.3846,-3.4404,-3.4996,-3.5081,-3.5334,-3.5537,-3.4895,-3.5064,-3.5571,-2.5913,-2.5981,-2.5981,-2.5795,-2.6528,-2.7217,-2.7325,-2.7066,-2.6566,-2.5832,-2.5973,-2.5586,-2.4137,-2.467,-2.5219,-2.533,-2.5138,-2.5243,-2.5902,-2.4961,-2.4389,-2.4389,-2.4032,-2.3794,-2.3794,-2.3711,-2.4209,-2.5297,-2.4718,-2.4986,-2.5959,-2.4433,-2.3982,-2.4377,-2.3355,-2.3171,-2.3595,-2.3595,-2.3595,-2.3595,-2.3595,-2.3595,-2.3595,-2.3595,-2.3595,-2.3595,-2.3595,-2.4089,-2.4641,-2.394,-2.5061,-2.6587,-2.5839,-2.6914,-2.8575,-2.9114,-2.9783,-3.0435,-3.1015,-3.119,-3.119,-3.119,-3.119,-3.119,-3.119,-3.119,-3.119,-3.119,-3.1782,-3.2053,0.0,0.0,-3.2036,-3.1309,-3.1207,-3.1185,-3.1185,-3.136,-3.1433,-3.1202,-3.1292,0.0,-3.1207,-3.0615,-3.0514,-3.114,-3.119,-3.1427,0.0,0.0,-3.3169,-3.2983,-3.3169,-3.322,-3.3119,-3.2476,-3.2178,-3.2138,-3.1495,-3.119,-3.119,-3.119,-3.119,-3.119,-3.119,-3.1985,-3.3271,-3.3271,-3.4083,-3.5267,-3.4607,-3.4759,-3.5182,-3.388,-3.4286,-3.5368,-2.7554,-2.796,-2.7994,-2.6725,-2.7687,-2.8645,-2.8662,-2.7446,-2.6612,-2.6936,-2.5777,-2.5162,-2.5756,-2.4671,-2.4104,-2.4575,-2.4151,-2.3925,-2.4046,-2.4302,-2.4389,-2.4389,-2.4736,-2.491,-2.491,-2.5336,-2.5648,-2.5852,-2.611,-2.6142,-2.5995,-2.5697,-2.5147,-2.4407,-2.4195,-2.3915,-2.3595,-2.3595,-2.3595,-2.3595,-2.3595,-2.3595,-2.3595,-2.3595,-2.3595,-2.3595,-2.3595,-2.4403,-2.5299,-2.4627,-2.5764,-2.7186,-2.5989,-2.6914,-2.8497,-2.8542,-2.9394,-3.0435,-3.1015,-3.119,-3.119,-3.119,-3.119,-3.119,-3.119,-3.119,-3.119,-3.119,-3.1782,-3.2053,-3.1326,0.0,-3.2036,-3.1309,-3.119,-3.1211,-3.1211,-3.2229,-3.2547,-3.1352,-3.1736,-3.185,-3.1258,-3.1072,-3.1055,-3.119,-3.119,-3.0987,0.0,0.0,-3.1935,0.0,-3.185,0.0,0.0,0.0,-3.1376,-3.1376,-3.1258,-3.119,-3.119,-3.119,-3.119,-3.119,-3.119,-3.1681,-3.2476,-3.2476,-3.3,-3.3778,-3.3643,-3.3677,-3.3761,-3.3508,-3.3947,-3.4675,-2.8501,-2.8399,-2.83,-2.7963,-2.8236,-2.8641,-2.9053,-2.847,-2.8051,-2.8289,-2.7295,-2.6349,-2.591,-2.5416,-2.5035,-2.5004,-2.4632,-2.4585,-2.4984,-2.486,-2.4634,-2.4233,-2.4875,-2.5006,-2.4654,-2.5134,-2.5763,-2.6574,-2.6286,-2.642,-2.6922,-2.6286,-2.5587,-2.4786,-2.3905,-2.3555,-2.358,-2.3271,0.0,-2.3595,-2.3595,-2.3595,-2.3595,-2.3595,-2.3595,-2.3595,-2.3595,-2.4236,-2.5018,-2.4712,-2.5931,-2.7445,-2.6422,-2.701,-2.8161,-2.8738,-2.9355,-3.0038,-3.0958,-3.119,-3.119,-3.119,-3.119,-3.119,-3.119,-3.119,-3.119,-3.119,-3.1782,-3.2171,-3.1833,-3.1732,0.0,0.0,-3.1432,-3.1358,-3.1888,-3.2127,-3.219,-3.1998,-3.1839,-3.1579,-3.1224,-3.119,-3.1038,-3.0666,-3.097,-3.07,0.0,0.0,-3.1613,0.0,0.0,0.0,-3.0632,0.0,-3.1376,-3.0632,-3.1021,-3.119,-3.119,-3.119,-3.119,-3.119,-3.119,-3.1613,-3.2307,-3.2696,-3.3085,-3.3372,-3.2983,-3.3068,-3.3322,-3.2544,-3.273,-3.3339,-2.9245,-2.8975,-2.8859,-2.9174,-2.9122,-2.9137,-2.9546,-2.9736,-2.9707,-2.9543,-2.8832,-2.7876,-2.6592,-2.6424,-2.6233,-2.5879,-2.5441,-2.5461,-2.6022,-2.5525,-2.4916,-2.4285,-2.4965,-2.5088,-2.443,-2.4935,-2.5806,-2.7018,-2.6387,-2.6585,0.0,-2.6759,-2.5948,-2.5108,-2.357,-2.3172,0.0,0.0,-2.3169,-2.3595,-2.3595,-2.3595,-2.3595,-2.3595,-2.3595,-2.3595,-2.3595,-2.4023,-2.4591,-2.4623,-2.5819,-2.73,-2.6589,-2.6971,-2.7765,-2.8715,-2.9188,-2.9629,-3.0699,-3.1095,-3.119,-3.119,-3.119,-3.119,-3.119,-3.119,-3.119,-3.119,-3.1647,-3.2138,-3.2459,-3.2053,0.0,0.0,0.0,-3.2178,-3.2364,-3.2235,-3.2213,-3.2361,-3.1698,-3.114,-3.097,-3.097,-3.0666,-2.9922,-3.0548,-3.0378,-2.9096,0.0,0.0,0.0,0.0,-3.1427,-3.0125,0.0,-3.1157,-2.9871,-3.0446,-3.0717,-3.0717,-3.0717,-3.0818,-3.097,-3.097,-3.1376,-3.2104,-3.2848,-3.3068,-3.2882,-3.2273,-3.2408,-3.2797,-3.163,-3.1647,-3.2256,-3.0142,-3.1004,-3.1494,-3.0206,-3.107,-3.1675,-3.1082,-3.1023,-3.0828,-3.0294,-2.9166,-2.8712,-2.9566,-2.7653,-2.6478,-2.6913,-2.5869,-2.5253,-2.5317,-2.5253,-2.5051,-2.4734,-2.5494,-2.5773,-2.5479,-2.6152,-2.659,-2.6725,-2.7305,-2.7324,0.0,-2.7368,-2.678,-2.5153,0.0,0.0,0.0,-2.3525,-2.3565,-2.3595,-2.3595,-2.3595,-2.3595,-2.3595,-2.3595,-2.3595,-2.3595,-2.4023,-2.4587,-2.462,-2.551,-2.6577,-2.5915,-2.6547,-2.759,-2.7643,-2.8491,-2.954,-3.0208,-3.0781,-3.119,-3.119,-3.119,-3.119,-3.119,-3.119,-3.119,-3.119,-3.1241,-3.1715,-3.3051,-3.3237,-3.3,0.0,0.0,-3.4279,-3.1722,-3.3581,-3.425,-3.1662,-3.1263,-3.0937,-3.0277,-3.0209,-2.9905,-2.9144,-2.9786,-2.9854,0.0,0.0,0.0,-2.911,-3.0514,-3.092,-3.0125,-3.0243,-2.9905,-2.9093,-2.9144,-2.9231,-2.9231,-2.9231,-2.9567,-3.0209,-3.0209,-3.0615,-3.136,-3.2087,-3.2002,-3.1393,-3.1326,-3.1343,-3.1376,-3.1241,-3.1647,-3.2188,-3.0818,-3.0869,-3.1072,-3.136,-3.1173,-3.1162,-3.1756,-3.1465,-3.1112,-3.0878,-2.9692,-2.8903,-2.8943,-2.7346,-2.6158,-2.5972,-2.5496,-2.5221,-2.5221,-2.5503,-2.5203,-2.4163,-2.5612,-2.5967,-2.4941,-2.6098,-2.6928,-2.7351,-2.7639,-2.7904,-2.8072,0.0,0.0,0.0,0.0,-2.3519,-2.3576,-2.32,-2.3266,-2.3595,-2.3595,-2.3595,-2.3595,-2.3595,-2.3595,-2.3595,-2.3595,-2.3786,-2.4008,-2.4008,-2.4866,-2.5938,-2.5701,-2.5948,-2.6527,-2.7257,-2.8129,-2.9021,-3.0051,-3.074,-3.119,-3.119,-3.119,-3.119,-3.119,-3.119,-3.119,-3.119,-3.119,-3.1376,-3.1968,-3.2087,-3.2121,-3.2256,0.0,0.0,-3.3019,-3.2968,-3.2502,-3.1353,-3.0683,-2.9947,-2.905,-2.9664,-2.9989,-2.9685,-3.0345,-3.0243,0.0,0.0,0.0,-3.0311,0.0,-3.0395,-3.0108,-3.0108,-2.9499,-2.8298,-2.8755,-2.9011,-2.9045,-2.9448,-3.0057,-3.0768,-3.0768,-3.092,-3.1207,-3.1512,-3.1461,-3.119,-3.119,-3.119,-3.119,-3.119,-3.1376,-3.1596,-3.1512,-3.1444,-3.1692,-3.279,-3.1892,-3.1412,-3.2451,-3.1805,-3.119,-3.119,-3.0001,-2.9031,-2.8788,-2.7728,-2.672,-2.6026,-2.5766,-2.5635,-2.5635,-2.5776,-2.541,-2.4315,-2.5629,-2.589,-2.4842,-2.6046,-2.6962,-2.7487,-2.7692,-2.7958,0.0,0.0,0.0,0.0,-2.4115,-2.3681,-2.3565,-2.3131,-2.3191,-2.3595,-2.3595,-2.3595,-2.3595,-2.3595,-2.3595,-2.3595,-2.3595,-2.3595,-2.3595,-2.3595,-2.423,-2.504,-2.5258,-2.5416,-2.5764,-2.6688,-2.7514,-2.8387,-2.9436,-3.0328,-3.0925,-3.0881,-3.1038,-3.114,-3.092,-3.1038,-3.119,-3.119,-3.119,-3.1258,-3.1461,-3.1512,-3.1681,-3.2246,0.0,0.0,-3.3191,-3.2332,-3.154,-3.1249,-3.0294,-2.9282,-2.8303,-2.9154,-2.9685,-2.9448,-3.0328,0.0,0.0,0.0,0.0,0.0,0.0,0.0,-2.9786,-2.955,-2.8789,-2.7503,-2.8044,-2.8433,-2.867,-2.9668,-3.0378,-3.0886,-3.1106,-3.119,-3.119,-3.119,-3.119,-3.119,-3.119,-3.119,-3.119,-3.119,-3.119,-3.119,-3.2313,-3.344,-3.444,-3.448,-3.3852,-3.3393,-3.3396,-3.2139,-3.119,-3.119,-2.9905,-2.9279,-3.0006,-2.9414,-2.8653,-2.784,-2.708,-2.6691,-2.6691,-2.6017,-2.5614,-2.5588,-2.561,-2.5603,-2.5586,-2.6316,-2.6691,-2.6708,-2.7433,0.0,-2.6725,0.0,-2.5727,-2.5194,-2.4632,-2.4092,-2.3595,-2.3595,-2.3595,-2.3595,-2.3595,-2.3595,-2.3595,-2.3595,-2.3595,-2.3595,-2.3595,-2.3595,-2.3595,-2.3595,-2.361,-2.3728,-2.4379,-2.509,-2.5591,-2.5601,-2.6504,-2.7625,-2.8279,-2.9355,-3.027,-3.014,-3.0666,-3.1004,-3.0294,-3.0683,-3.119,-3.119,-3.119,-3.141,-3.2138,-3.2313,-3.2313,-3.2313,0.0,0.0,-3.1427,-3.2083,-3.2303,-3.1309,-3.0302,-2.9282,-2.8303,-2.8682,-2.867,-2.7874,0.0,0.0,0.0,0.0,0.0,-2.9025,-2.9719,0.0,-2.9045,-2.823,-2.7469,-2.6708,-2.6708,-2.7114,-2.7857,-2.9414,-3.0108,-3.0159,-3.0886,-3.119,-3.119,-3.119,-3.119,-3.119,-3.119,-3.119,-3.119,-3.119,-3.119,-3.119,-3.2374,-3.3068,-3.3905,-3.4406,-3.3482,-3.2816,-3.3311,-3.2156,-3.119,-3.119,-3.0784,-3.0192,-2.9414,-2.8197,-2.752,-2.7755,-2.7131,-2.6691,0.0,-2.6488,-2.5914,-2.4879,-2.534,-2.5133,-2.4115,-2.5306,-2.5967,-2.5967,0.0,0.0,0.0,-2.7164,-2.6488,-2.5194,-2.5416,-2.4996,-2.4158,-2.4158,-2.3906,-2.3595,-2.3595,-2.3595,-2.3595,-2.3595,-2.3595,-2.3595,-2.3595,-2.3595,-2.3595,-2.3595,-2.3595,-2.3625,-2.3831,-2.4085,-2.4342,-2.4777,-2.5818,-2.7032,-2.8092,-2.8939,-2.9625,-2.9989,-2.9905,-2.9634,-2.9397,-2.9922,-3.0598,-3.1089,-3.119,-3.1258,-3.1495,-3.1546,-3.1546,-3.1546,-3.1749,0.0,-3.1258,-3.0903,-3.0794,-3.1162,-2.9076,-2.7956,-2.8664,-2.7926,-2.7767,-2.8569,0.0,0.0,0.0,0.0,0.0,0.0,-2.9736,0.0,-2.9753,-2.8467,-2.7435,-2.6691,-2.6691,-2.7097,-2.784,-2.9414,-3.0108,-3.0142,-3.0886,-3.119,-3.119,-3.119,-3.119,-3.119,-3.119,-3.1389,-3.1565,-3.1291,-3.1389,-3.1565,-3.2797,-3.3525,-3.4286,-3.4464,-3.3516,-3.2773,-3.294,-3.1953,-3.119,-3.119,-3.0954,-3.0425,-2.9526,-2.8024,0.0,-2.7385,-2.6962,-2.6691,-2.6691,-2.6438,-2.5882,-2.4938,-2.5101,-2.4897,-2.4247,-2.5125,0.0,-2.6017,-2.6945,-2.7231,-2.6952,-2.7266,-2.6716,-2.5538,-2.5844,-2.5411,-2.4389,-2.4389,-2.4074,-2.358,-2.3359,-2.3271,-2.3271,-2.3271,-2.3271,-2.3286,-2.3507,-2.3595,-2.3595,-2.3595,-2.3595,-2.3595,-2.3595,-2.3595,-2.3684,-2.4118,-2.5285,-2.6642,-2.7434,-2.8371,-2.9261,-2.9623,-2.933,-2.9059,-2.9347,-2.9973,-3.0649,-3.1106,-3.119,-3.119,-3.119,-3.119,-3.119,-3.119,-3.119,-3.1106,-3.0835,-3.0256,-2.9976,-3.0341,-2.8861,-2.7926,0.0,-2.7604,-2.7516,0.0,0.0,0.0,0.0,0.0,0.0,-3.1022,-2.9843,-2.9379,-2.9685,-2.8163,-2.7165,-2.6708,-2.7283,-2.8031,-2.8938,-3.0014,-3.0514,-3.0548,-3.1004,-3.119,-3.119,-3.119,-3.119,-3.119,-3.119,-3.1351,-3.1528,-3.1291,-3.1351,-3.1545,-3.3406,-3.4556,-3.5334,0.0,-3.3929,0.0,-3.247,-3.1708,-3.119,-3.119,-3.0598,-3.015,-3.0096,-2.8777,-2.7585,-2.686,0.0,0.0,-2.6691,-2.6051,-2.5631,-2.5531,-2.4872,-2.4774,-2.5355,-2.5433,-2.5822,-2.664,-2.6623,-2.664,-2.6657,-2.6691,-2.6436,-2.5961,-2.6013,-2.5449,-2.4389,-2.443,-2.4116,-2.3565,-2.3051,-2.2802,-2.2743,-2.2742,-2.2743,-2.2789,-2.3359,-2.3595,-2.3683,-2.3683,-2.3683,-2.3683,-2.3683,-2.361,-2.3595,-2.3595,-2.4948,-2.642,-2.6333,-2.7648,-2.9029,-2.9016,-2.9011,-2.9178,-2.9939,-3.0632,-3.114,-3.119,-3.119,-3.119,-3.119,-3.119,-3.119,-3.119,-3.1157,-3.0886,-3.0209,-3.0023,-2.9702,-2.9079,0.0,0.0,-2.6889,-2.7535,-2.769,0.0,0.0,0.0,0.0,0.0,-3.2296,-3.0786,-3.009,-2.9558,-2.9187,-2.7674,-2.691,-2.6876,-2.8386,-2.9622,-3.0612,-3.1056,-3.1196,-3.1184,-3.1213,-3.119,-3.119,-3.119,-3.119,-3.119,-3.119,-3.123,-3.1252,-3.1252,-3.1252,-3.1213,0.0,0.0,-3.4878,-3.5284,-3.4259,-3.3347,-3.3161,-3.2053,-3.119,-3.119,-3.1055,-3.0717,-3.0163,-2.9262,-2.8384,-2.7606,-2.7029,-2.6691,-2.6691,-2.6539,-2.5933,-2.4796,-2.459,-2.4035,-2.3119,-2.3627,-2.4564,-2.5866,-2.5847,-2.5967,-2.6191,-2.6539,-2.6245,-2.5411,-2.621,-2.573,-2.443,-2.4831,-2.4471,-2.361,-2.3904,-2.3655,-2.3147,-2.3196,-2.3222,-2.3154,-2.2978,-2.3477,-2.4215,-2.4215,-2.4215,-2.4215,-2.4215,-2.3919,-2.3595,-2.3595,-2.4556,-2.5772,-2.6166,-2.6837,-2.7679,-2.8747,-2.9011,-2.9178,-2.9939,-3.0243,-3.0531,-3.1072,-3.119,-3.119,-3.119,-3.119,-3.119,-3.119,-3.0734,-3.0311,-3.0125,-2.911,-2.8503,0.0,-2.8048,-2.7233,-2.6742,-2.6928,-2.6978,0.0,0.0,-2.9863,-3.0688,-3.2236,-3.2503,-3.127,-3.1059,-3.0923,-3.0826,-2.991,-2.9136,-2.8544,-2.9728,-3.0003,-2.9528,-3.0976,-3.1349,-3.0815,-3.1096,-3.119,-3.119,-3.119,-3.119,-3.119,-3.119,-3.1389,-3.166,-3.166,-3.166,-3.1573,-3.3846,-3.4506,-3.503,-3.5098,-3.4167,-3.3288,-3.2949,-3.1918,-3.119,-3.119,-3.119,-3.0784,-2.9719,-2.9242,-2.8535,-2.7403,-2.6928,-2.6691,-2.6691,-2.6691,-2.6034,-2.4547,-2.4492,-2.3984,-2.283,-2.3523,-2.4637,-2.6115,-2.6098,-2.6168,-2.6332,-2.659,-2.6217,-2.5415,-2.5933,-2.5304,-2.384,-2.4461,-2.4241,-2.3523,-2.3823,-2.3651,-2.3188,-2.2989,-2.2917,-2.2838,-2.2738,-2.3419,-2.4402,-2.4413,-2.4578,-2.4782,-2.4782,-2.458,-2.4316,-2.4317,-2.501,-2.5857,-2.6086,-2.6727,-2.7478,-2.826,-2.9228,-3.0006,-3.0091,-3.0362,-3.0717,-3.1106,-3.119,-3.119,-3.119,-3.119,-3.119,-3.119,-3.0581,-2.9989,-2.9634,-2.8569,-2.7858,-2.7926,-2.7214,-2.669,-2.669,-2.735,-2.7757,-2.7739,-2.9367,0.0,-3.1345,-3.2685,-3.3056,-3.2245,-3.1905,-3.1617,-3.1412,-3.065,-3.0362,-3.0485,-3.0829,-3.102,-3.0981,-3.1549,-3.1582,-3.1183,-3.1202,-3.119,-3.119,-3.119,-3.119,-3.1196,-3.0997,-3.1293,-3.1773,-3.1638,-3.1567,-3.1481,-3.4353,-3.4912,-3.5115,-3.459,-3.3795,-3.3017,-3.2374,-3.1664,-3.119,-3.119,-3.119,-3.0712,-2.9471,-2.9114,-2.848,-2.7165,-2.6843,-2.6691,-2.6691,-2.659,-2.5916,-2.4547,-2.4394,-2.4001,-2.3249,-2.3956,-2.5017,-2.6377,-2.647,-2.659,-2.6691,-2.6691,-2.6336,-2.5663,-2.5728,-2.4879,-2.3455,-2.3971,-2.3919,-2.3499,-2.3568,-2.3437,-2.3158,-2.2754,-2.2648,-2.2676,-2.2742,-2.3576,-2.4645,-2.4639,-2.4929,-2.533,-2.533,-2.5271,-2.5201,-2.5301,-2.5767,-2.6233,-2.6044,-2.6978,-2.8026,-2.8129,-2.9685,-3.1038,-3.0412,-3.0751,-3.119,-3.119,-3.119,-3.119,-3.119,-3.119,-3.1241,-3.1343,-3.0649,-2.9922,-2.9381,0.0,-2.7737,-2.6987,-2.6987,-2.7123,-2.7362,-2.8157,-2.8842,-2.9296,-3.055,-3.1324,-3.1412,-3.2799,-3.3524,-3.3302,-3.2697,-3.2173,-3.1778,-3.1075,-3.1219,-3.2172,-3.1834,-3.2174,-3.3092,-3.2347,-3.2022,-3.1986,-3.1524,-3.1291,-3.1291,-3.1291,-3.1291,-3.1261,-3.0972,-3.1237,-3.1707,-3.1482,-3.126,-3.1059,-3.4353,-3.41,-3.3914,-3.4404,-3.3355,-3.2408,-3.2347,-3.1664,-3.119,-3.119,-3.119,-3.1106,-3.0903,-2.9753,-2.8892,-2.866,-2.7453,-2.6691,-2.6691,-2.6118,-2.538,-2.453,-2.39,-2.3232,-2.2474,-2.32,-2.3968,-2.483,-2.5479,-2.6099,-2.6691,-2.6691,-2.642,-2.5955,-2.6337,-2.5891,-2.4868,-2.4736,-2.4418,-2.4026,-2.4431,-2.418,-2.3622,-2.3661,-2.3984,-2.4294,-2.3396,-2.4215,-2.5764,-2.5746,-2.5799,-2.5883,-2.5883,-2.5545,-2.5287,-2.5762,-2.5962,-2.6054,-2.6021,-2.7387,-2.8966,-2.9593,-3.0467,-3.1157,-3.1055,-3.1123,-3.119,-3.119,-3.119,-3.119,-3.119,-3.119,-3.1393,-3.2019,-3.0987,-3.0277,-3.0784,0.0,-2.86,-2.8034,-2.8359,-2.9115,-3.0396,-2.841,-2.8118,-3.0656,-3.0775,-3.0916,-3.1395,-3.2291,-3.3065,-3.3689,-3.3597,-3.3497,-3.3424,-3.2965,-3.2669,-3.2535,-3.2795,-3.2832,-3.2692,-3.2889,-3.2965,-3.2952,-3.2144,-3.1768,-3.1696,-3.1696,-3.1696,-3.1752,-3.2073,-3.1872,-3.1411,-3.1762,-3.1207,-3.0194,-3.3846,-3.3643,-3.3508,-3.3846,-3.3017,-3.2313,-3.2313,-3.1664,-3.119,-3.119,-3.119,-3.0886,-3.0091,-2.9397,-2.8672,-2.7809,-2.7097,-2.6691,-2.6691,-2.6387,-2.5681,-2.4543,-2.4164,-2.3642,-2.2909,-2.3224,-2.3976,-2.5096,-2.5445,-2.5778,-2.6116,-2.6505,-2.6152,-2.5213,-2.5815,-2.553,-2.4512,-2.472,-2.4718,-2.4642,-2.5199,-2.5173,-2.4654,-2.4106,-2.4267,-2.4647,-2.3503,-2.4365,-2.601,-2.5997,-2.6169,-2.6387,-2.6387,-2.6219,-2.6051,-2.6286,-2.6387,-2.6387,-2.6376,-2.7662,-2.91,-2.942,-3.0366,-3.119,-3.119,-3.119,-3.119,-3.119,-3.119,-3.119,-3.119,-3.0869,-3.0852,-3.1579,-3.0463,0.0,-3.0497,-2.9668,-2.8989,-2.8996,-2.8996,-2.9583,-3.1079,-2.9939,-2.9694,-3.1113,-3.1323,-3.1597,-3.1951,-3.2799,-3.3421,-3.3788,-3.3807,-3.3807,-3.3807,-3.3625,-3.3424,-3.3256,-3.3442,-3.3424,-3.323,-3.3198,-3.3214,-3.3154,-3.2502,-3.1951,-3.1548,-3.1548,-3.1269,-3.09,-3.0942,-3.0987,-3.1029,-3.103,-3.093,-3.0648,-3.3406,-3.3271,-3.3136,-3.3136,-3.2527,-3.2019,-3.2019,-3.141,-3.0937,-3.0937,-3.0801,-3.0277,-2.911,-2.8808,-2.825,-2.708,-2.681,-2.6691,-2.6691,-2.6539,-2.5848,-2.4563,-2.4154,-2.3721,-2.3153,-2.3493,-2.413,-2.5076,-2.5441,-2.5524,-2.5341,-2.593,-2.5676,-2.4763,-2.5355,-2.5126,-2.4331,-2.4779,-2.4945,-2.4946,-2.5609,-2.5762,-2.548,-2.4627,-2.4688,-2.5101,-2.4067,-2.4747,-2.6152,-2.6152,-2.6404,-2.6657,-2.6504,-2.642,-2.6454,-2.6454,-2.6589,-2.6725,-2.6911,-2.7807,-2.882,-2.9175,-3.0121,-3.0999,-3.1157,-3.119,-3.119,-3.119,-3.119,-3.119,-3.119,-3.0734,-3.0598,-3.1326,0.0,-2.9753,0.0,-2.9973,-2.9651,-3.0015,-2.9736,-2.9943,-3.1113,-3.1201,-3.1223,-3.1175,-3.183,-3.2323,-3.2595,-3.3372,-3.3899,-3.4082,-3.3899,-3.3807,-3.3807,-3.3807,-3.3807,-3.3807,-3.3807,-3.3807,-3.3788,-3.3494,-3.3332,-3.3302,-3.284,-3.2204,-3.1475,-3.1475,-3.1,-3.0237,-3.0098,-3.027,-3.0604,-3.0314,-3.0467,-3.065,-3.3406,-3.2848,-3.2357,-3.2357,-3.1749,-3.1275,-3.1275,-3.0666,-3.0192,-3.0192,-2.9593,-2.9117,-2.9008,-2.8338,-2.7845,-2.7737,-2.7097,-2.6691,-2.6691,-2.6051,-2.533,-2.4523,-2.3211,-2.244,-2.2378,-2.3721,-2.4138,-2.3574,-2.4938,-2.527,-2.4574,-2.4647,-2.4966,-2.5524,-2.5592,-2.5542,-2.5492,-2.551,-2.5154,-2.4596,-2.534,-2.5627,-2.5593,-2.5509,-2.5947,-2.6454,-2.5679,-2.5965,-2.6657,-2.6657,-2.6674,-2.6572,-2.5917,-2.5698,-2.5673,-2.5673,-2.6149,-2.6843,-2.7521,-2.7791,-2.823,-2.9638,-3.0113,-3.037,-3.1033,-3.119,-3.119,-3.119,-3.119,-3.119,-3.119,-3.1157,-3.136,-3.2087,0.0,0.0,-3.2019,-3.1495,-3.1055,-3.1089,-3.1072,-3.1089,-3.1213,-3.119,-3.1193,-3.1192,-3.1986,-3.261,-3.2931,-3.3496,-3.4137,-3.488,-3.4192,-3.3807,-3.3807,-3.3807,-3.3807,-3.3807,-3.3807,-3.3807,-3.3807,-3.3762,-3.3762,-3.3734,-3.3332,-3.2703,-3.1953,-3.1953,-3.1456,-3.0782,-3.1133,-3.0864,-3.0235,-3.0228,-2.9769,-2.907,-3.2121,-3.1799,-3.1461,-3.1021,-3.07,-3.0531,-3.0531,-2.9888,-2.9583,-3.004,-2.9462,-2.8803,-2.8315,-2.7996,-2.7623,-2.7147,-2.6877,-2.6691,-2.6691,-2.5596,-2.4603,-2.3854,-2.2846,-2.231,-2.231,-2.283,-2.3224,-2.3385,-2.3968,-2.4092,-2.3829,-2.4275,-2.4644,-2.4915,-2.4915,-2.5423,-2.6218,-2.5304,-2.527,-2.5845,-2.5676,-2.5879,-2.6234,-2.5778,-2.6065,-2.659,-2.5861,-2.5796,-2.6034,-2.6015,-2.6032,-2.5967,-2.5707,-2.5588,-2.5607,-2.5607,-2.6132,-2.6775,-2.7046,-2.7471,-2.8065,-2.914,-2.977,-3.0281,-3.1033,-3.0858,-3.0667,-3.1123,-3.0842,-3.0667,-3.114,-3.1207,-3.1278,-3.1579,0.0,-3.1444,-3.2212,-3.1647,-3.1529,-3.2459,-3.1765,-3.1202,-3.1183,-3.12,-3.1202,-3.1219,-3.2503,-3.3073,-3.2489,-3.2795,-3.3355,-3.4114,-3.3844,-3.3948,-3.4532,-3.4045,-3.3807,-3.3807,-3.3807,-3.3807,-3.3807,-3.3807,-3.3807,-3.377,-3.3122,-3.2365,-3.1581,-3.0822,-3.017,-2.9678,-2.9591,-2.9527,-2.9475,-2.9475,-2.9586,-2.9564,-3.1241,-3.0818,-3.0412,-3.0159,-2.9922,-2.9753,-2.9753,-2.911,-2.8805,-2.933,-2.8738,-2.8061,-2.752,-2.7469,-2.7249,-2.6742,-2.6691,-2.6691,-2.6691,-2.5341,-2.4073,-2.3107,-2.257,-2.231,-2.231,-2.2536,-2.2773,-2.3044,-2.3291,-2.3266,-2.3064,-2.3579,-2.4052,-2.4506,-2.4506,-2.5169,-2.6302,-2.5507,-2.5625,-2.6336,-2.6065,-2.6251,-2.6623,-2.5879,-2.6065,-2.659,-2.5859,-2.5611,-2.5598,-2.5605,-2.559,-2.5528,-2.5075,-2.4905,-2.4949,-2.5186,-2.5761,-2.642,-2.6623,-2.708,-2.7691,-2.8749,-2.9389,-3.0001,-3.0982,-3.0825,-3.0588,-3.1086,-3.0811,-3.0594,-3.1123,-3.1183,-3.1187,-3.1207,-3.1202,-3.1444,-3.2212,-3.185,-3.1918,-3.2933,-3.2154,-3.1455,-3.1217,-3.1217,-3.1585,-3.2531,-3.3072,-3.3014,-3.2144,-3.2732,-3.3253,-3.3632,-3.3752,-3.4067,-3.4588,-3.4178,-3.389,-3.3807,-3.3807,-3.3807,-3.3807,-3.3807,-3.366,-3.3385,-3.2852,-3.1939,-3.0775,-2.9942,-2.9297,-2.8773,-2.8515,-2.8565,-2.8839,-2.8952,-2.9186,-2.9326,-3.1038,-2.9989,-2.9211,-2.9973,-2.9465,-2.8975,-2.8975,-2.8315,-2.7772,-2.7789,-2.7165,-2.6691,-2.6691,-2.6691,-2.6691,-2.6691,-2.6691,-2.6691,-2.6674,-2.5287,-2.3833,-2.2378,-2.231,-2.231,-2.231,-2.3022,-2.3039,-2.231,-2.3039,-2.3022,-2.231,-2.231,-2.3088,-2.4506,-2.4506,-2.4881,-2.5659,-2.637,-2.6251,-2.5676,-2.6404,-2.6691,-2.6623,-2.5896,-2.6048,-2.6573,-2.5876,-2.5594,-2.5564,-2.5581,-2.5569,-2.5323,-2.3861,-2.3421,-2.3545,-2.4303,-2.5014,-2.5758,-2.6521,-2.6691,-2.708,-2.8629,-2.8991,-2.9376,-3.0858,-3.119,-3.1202,-3.1185,-3.121,-3.119,-3.119,-3.119,-3.1213,-3.1182,-3.12,-3.1461,-3.2212,-3.2313,-3.2313,-3.233,-3.2313,-3.1985,-3.1275,-3.119,-3.2423,-3.5348,-3.3668,-3.2354,-3.2117,-3.3548,-3.415,-3.3684,-3.4135,-3.4167,-3.3684,-3.4085,-3.4129,-3.3807,-3.3807,-3.3807,-3.3807,-3.3807,-3.3366,-3.2588,-3.2588,-3.1462,-2.9602,-2.9602,-2.9106,-2.8394,-2.8394,-2.8376,-2.8446,-2.8839,-2.8533,-2.7897,-2.9702,-2.9279,-2.8873,-2.8569,-2.8315,-2.8163,-2.8163,-2.752,-2.7215,-2.7722,-2.7165,-2.6691,-2.6691,-2.6691,-2.6691,-2.6691,-2.6236,-2.5497,-2.443,-2.3984,-2.3316,-2.2333,-2.231,-2.231,-2.231,-2.2536,-2.2536,-2.231,-2.2536,-2.2536,-2.231,-2.231,-2.2818,-2.3697,-2.319,-2.3951,-2.5558,-2.4729,-2.5152,-2.6353,-2.6048,-2.6234,-2.6623,-2.5899,-2.5732,-2.5832,-2.508,-2.4514,-2.4067,-2.4062,-2.4064,-2.3972,-2.3557,-2.3776,-2.4235,-2.4455,-2.5021,-2.5765,-2.6488,-2.6691,-2.6928,-2.7912,-2.8561,-2.9237,-3.0213,-3.0421,-3.0572,-3.1086,-3.0811,-3.0578,-3.1123,-3.163,-3.1783,-3.128,-3.1635,-3.2063,-3.2256,-3.1833,-3.1901,-3.2949,-3.2154,-3.163,-3.1935,-3.1476,-3.1546,-3.2458,-3.1931,-3.1534,-3.1476,-3.1903,-3.2337,-3.272,-3.2835,-3.3023,-3.3208,-3.3103,-3.3136,-3.3361,-3.3361,-3.3522,-3.3788,-3.3522,-3.2972,-3.221,-3.1312,-3.0266,-2.918,-2.8341,-2.8017,-2.802,-2.7747,-2.7805,-2.8047,-2.8174,-2.8093,-2.7869,-2.9076,-2.8501,-2.8027,-2.7806,-2.7571,-2.7368,-2.7368,-2.6996,-2.686,-2.7317,-2.6979,-2.6691,-2.6691,-2.6691,-2.6691,-2.6691,-2.6034,-2.5079,-2.3909,-2.3572,-2.3077,-2.2333,-2.231,-2.231,-2.231,-2.231,-2.231,-2.231,-2.231,-2.231,-2.231,-2.231,-2.2699,-2.3393,-2.3241,-2.4069,-2.5573,-2.4949,-2.5473,-2.6657,-2.6218,-2.6134,-2.6169,-2.5464,-2.5363,-2.5497,-2.4757,-2.4387,-2.4216,-2.3915,-2.3431,-2.3028,-2.3328,-2.3507,-2.368,-2.3968,-2.4365,-2.4943,-2.5983,-2.627,-2.6438,-2.7182,-2.8202,-2.9204,-2.9934,-3.0314,-3.0578,-3.0718,-3.0651,-3.0578,-3.0735,-3.1365,-3.1698,-3.128,-3.1573,-3.1985,-3.2275,-3.1907,-3.1952,-3.2848,-3.2171,-3.1681,-3.1833,-3.1466,-3.119,-3.1207,-3.119,-3.119,-3.119,-3.1193,-3.138,-3.1873,-3.2015,-3.2154,-3.2286,-3.2085,-3.2282,-3.2903,-3.2903,-3.3045,-3.3284,-3.2733,-3.2056,-3.1285,-3.0243,-2.9236,-2.8328,-2.76,-2.7439,-2.7619,-2.7378,-2.7439,-2.7678,-2.784,-2.7678,-2.7409,-2.8825,-2.7655,-2.6911,-2.7588,-2.7148,-2.6691,-2.6691,-2.6691,-2.6691,-2.6691,-2.6691,-2.6674,-2.6607,-2.659,-2.6573,-2.6505,-2.5832,-2.5122,-2.4453,-2.3708,-2.2993,-2.2333,-2.231,-2.231,-2.231,-2.231,-2.231,-2.231,-2.231,-2.231,-2.231,-2.231,-2.2665,-2.3325,-2.3985,-2.4743,-2.5552,-2.6217,-2.6573,-2.6691,-2.6691,-2.627,-2.5514,-2.4779,-2.4913,-2.5413,-2.4569,-2.4793,-2.5288,-2.4562,-2.3431,-2.2491,-2.3119,-2.2892,-2.2542,-2.3202,-2.341,-2.3708,-2.5211,-2.5598,-2.5782,-2.6522,-2.7811,-2.911,-2.9817,-3.0566,-3.0898,-3.023,-3.0566,-3.0835,-3.0213,-3.0667,-3.114,-3.119,-3.119,-3.1438,-3.2122,-3.2207,-3.2188,-3.2188,-3.2188,-3.1901,-3.1173,-3.1106,-3.1123,-3.119,-3.119,-3.119,-3.119,-3.1196,-3.1199,-3.1173,-3.1582,-3.1565,-3.119,-3.119,-3.1637,-3.2451,-3.2451,-3.2451,-3.2449,-3.1703,-3.0893,-3.0101,-2.9306,-2.832,-2.7241,-2.7241,-2.7241,-2.7241,-2.7241,-2.7241,-2.7303,-2.7648,-2.7317,-2.6758,-2.73,-2.6928,-2.6742,-2.6911,-2.681,-2.6691,-2.6691,-2.6691,-2.6691,-2.6691,-2.6691,-2.6471,-2.5896,-2.5845,-2.5609,-2.5048,-2.4309,-2.3804,-2.3648,-2.2953,-2.2454,-2.2299,-2.231,-2.231,-2.231,-2.231,-2.231,-2.231,-2.231,-2.231,-2.231,-2.231,-2.2395,-2.2547,-2.2716,-2.3502,-2.4747,-2.491,-2.5625,-2.6691,-2.6691,-2.627,-2.5514,-2.4779,-2.4613,-2.4564,-2.326,-2.3243,-2.3765,-2.3025,-2.2943,-2.3073,-2.2666,-2.283,-2.3187,-2.334,-2.3409,-2.3709,-2.52,-2.5596,-2.5782,-2.6522,-2.7382,-2.825,-2.9059,-2.9807,-3.0309,-3.0135,-2.9763,-2.9587,-3.0017,-3.023,-3.0544,-3.1123,-3.119,-3.128,-3.1438,-3.145,-3.1427,-3.1427,-3.1427,-3.114,-3.0412,-3.0345,-3.0581,-3.1157,-3.119,-3.119,-3.119,-3.1184,-3.1184,-3.119,-3.1291,-3.1291,-3.119,-3.119,-3.1449,-3.1951,-3.1951,-3.2127,-3.2449,-3.1373,-3.0418,-2.9687,-2.8577,-2.7606,-2.6841,-2.6841,-2.6841,-2.6841,-2.6841,-2.6841,-2.6841,-2.6939,-2.6841,-2.6725,-2.6843,-2.6691,-2.6691,-2.6691,-2.6691,-2.6691,-2.6691,-2.6691,-2.6691,-2.6691,-2.6691,-2.642,-2.5693,-2.5609,-2.5319,-2.455,-2.384,-2.3391,-2.3403,-2.27,-2.231,-2.231,-2.231,-2.231,-2.231,-2.231,-2.231,-2.231,-2.231,-2.231,-2.231,-2.231,-2.231,-2.2344,-2.3038,-2.3765,-2.455,-2.5261,-2.5981,-2.6691,-2.6691,-2.627,-2.5514,-2.477,-2.4495,-2.4334,-2.3244,-2.3063,-2.3324,-2.2965,-2.283,-2.2807,-2.2435,-2.2551,-2.2892,-2.2892,-2.3136,-2.3642,-2.4764,-2.5321,-2.5764,-2.6539,-2.7249,-2.7923,-2.8342,-2.9006,-2.9488,-2.9076,-2.9264,-2.9523,-2.9583,-3.0159,-3.0735,-3.1157,-3.119,-3.119,-3.119,-3.119,-3.1072,-3.0717,-3.0683,-3.0531,-3.0142,-3.0429,-3.0784,-3.1157,-3.119,-3.119,-3.119,-3.119,-3.119,-3.119,-3.119,-3.119,-3.119,-3.119,-3.1329,-3.1507,-3.1507,-3.1468,-3.1341,-3.0332,-2.9453,-2.8699,-2.7691,-2.7063,-2.6691,-2.6691,-2.6691,-2.6691,-2.6691,-2.6691,-2.6691,-2.6691,-2.6691,-2.6691,-2.6826,-2.6691,-2.6691,-2.6691,-2.6691,-2.6691,-2.6691,-2.6691,-2.6691,-2.6691,-2.6691,-2.637,-2.5507,-2.5203,-2.4828,-2.4356,-2.3634,-2.3284,-2.3409,-2.2717,-2.231,-2.231,-2.231,-2.231,-2.231,-2.231,-2.231,-2.231,-2.231,-2.231,-2.231,-2.231,-2.231,-2.2361,-2.3714,-2.4373,-2.4586,-2.5942,-2.6573,-2.6691,-2.6691,-2.6169,-2.5363,-2.4726,-2.4431,-2.4213,-2.3483,-2.3209,-2.3204,-2.3204,-2.2892,-2.2461,-2.2343,-2.241,-2.2457,-2.2344,-2.2717,-2.3409,-2.4271,-2.4958,-2.5624,-2.6471,-2.7165,-2.7603,-2.7619,-2.8224,-2.8614,-2.793,-2.8716,-2.9419,-2.9059,-2.9983,-3.0892,-3.1157,-3.119,-3.119,-3.119,-3.119,-3.092,-3.0192,-2.9989,-3.0023,-3.026,-3.07,-3.1021,-3.119,-3.119,-3.119,-3.119,-3.119,-3.119,-3.119,-3.119,-3.119,-3.119,-3.119,-3.119,-3.119,-3.119,-3.0818,-3.0074,-2.933,-2.8552,-2.7739,-2.7012,-2.6691,-2.6691,-2.6691,-2.6691,-2.6691,-2.6691,-2.6691,-2.6691,-2.6691,-2.6691,-2.6691,-2.6708,-2.6691,-2.6691,-2.6691,-2.6691,-2.6691,-2.6691,-2.6691,-2.6691,-2.6691,-2.6691,-2.6167,-2.4811,-2.3511,-2.297,-2.3507,-2.2873,-2.2738,-2.3354,-2.2699,-2.231,-2.231,-2.231,-2.231,-2.231,-2.231,-2.231,-2.231,-2.231,-2.231,-2.231,-2.231,-2.231,-2.2361,-2.3165,-2.3917,-2.4537,-2.5394,-2.6118,-2.6691,-2.6691,-2.5883,-2.463,-2.4531,-2.4113,-2.3448,-2.2704,-2.2456,-2.2457,-2.2457,-2.2813,-2.3124,-2.2495,-2.2745,-2.3136,-2.2474,-2.2361,-2.275,-2.4115,-2.4572,-2.4991,-2.6353,-2.6776,-2.6843,-2.686,-2.7418,-2.7923,-2.7832,-2.7451,-2.7555,-2.8774,-2.9143,-2.9705,-3.0999,-3.119,-3.119,-3.119,-3.119,-3.092,-3.0192,-2.9533,-2.9634,-3.092,-3.0374,-3.0251,-3.1123,-3.119,-3.119,-3.119,-3.119,-3.119,-3.119,-3.119,-3.119,-3.119,-3.119,-3.119,-3.119,-3.119,-3.0818,-3.0074,-2.933,-2.8552,-2.7739,-2.7012,-2.6691,-2.6691,-2.6691,-2.6691,-2.6691,-2.6691,-2.6691,-2.6691,-2.6691,-2.6691,-2.6691,-2.6691,-2.6691,-2.6691,-2.6691,-2.6691,-2.6691,-2.6691,-2.6691,-2.6539,-2.6133,-2.6082,-2.5524,-2.4036,-2.2936,-2.2446,-2.2767,-2.2496,-2.2446,-2.2767,-2.2496,-2.231,-2.231,-2.231,-2.231,-2.231,-2.231,-2.231,-2.231,-2.231,-2.231,-2.231,-2.231,-2.231,-2.2361,-2.3498,-2.4194,-2.4585,-2.5747,-2.6152,-2.6118,-2.6539,-2.5799,-2.4497,-2.45,-2.4049,-2.33,-2.257,-2.231,-2.231,-2.231,-2.2536,-2.2717,-2.2406,-2.2536,-2.2717,-2.2406,-2.2892,-2.3585,-2.3833,-2.4797,-2.5781,-2.6034,-2.6404,-2.6691,-2.6691,-2.7283,-2.7823,-2.7782,-2.7912,-2.8323,-2.9414,-2.9935,-3.0437,-3.1067,-3.119,-3.119,-3.119,-3.119,-3.092,-3.0192,-2.982,-2.9871,-3.0531,-3.0543,-3.0712,-3.1173,-3.119,-3.119,-3.119,-3.119,-3.119,-3.119,-3.119,-3.119,-3.119,-3.119,-3.119,-3.119,-3.0784,-3.0192,-2.9465,-2.9127,-2.8332,-2.7182,-2.6843,-2.6691,-2.6691,-2.6691,-2.6691,-2.6691,-2.6691,-2.6691,-2.6691,-2.6691,-2.6691,-2.6691]}]]